
Distance (Route):
Temperature : 0°C
Humidity : -1.0%
Pressure : -1.0hPa| Receiver | Frames | First received | Last received |
|---|---|---|---|
| KRY50SP | 698 | 2026-08-30 13:38:36 | 2026-08-30 15:36:57 |
| KRY50SP-1 | 361 | 2026-08-30 14:09:36 | 2026-08-30 15:36:44 |
| SP3WXH-11 | 162 | 2026-08-30 13:49:21 | 2026-08-30 15:37:26 |
| SP3BTT-10 | 138 | 2026-08-30 13:38:59 | 2026-08-30 15:31:25 |
| SP6BVK | 72 | 2026-08-30 13:56:47 | 2026-08-30 15:19:21 |
| Receiver | Date | Latitude | Longitude | Direction | Speed | Altitude | Climb | Temperature | Humidity | Pressure | Voltage | Killtimer | Uptime | BKT | XDATA |
|---|---|---|---|---|---|---|---|---|---|---|---|---|---|---|---|
| SP3WXH-11 | 2026-08-30 15:37:26 | 52.64756 | 18.53550 | 66° | 47km/h | 2515m | -10.8m/s | 0°C | -1.0% | -1.0hPa | 0V | 00:00:00 | 00:00:00 | 00:00:00 | |
| KRY50SP | 2026-08-30 15:36:57 | 52.64706 | 18.53356 | 63° | 57km/h | 2626m | -10.9m/s | 0°C | 0% | 0hPa | 0V | 00:00:00 | 00:00:00 | 00:00:00 | |
| KRY50SP-1 | 2026-08-30 15:36:44 | 52.64623 | 18.53093 | 60° | 55km/h | 2768m | -10.6m/s | 0°C | 0% | 0hPa | 0V | 00:00:00 | 00:00:00 | 00:00:00 | |
| KRY50SP | 2026-08-30 15:36:43 | 52.64616 | 18.53074 | 60° | 53km/h | 2779m | -11.3m/s | 0°C | 0% | 0hPa | 0V | 00:00:00 | 00:00:00 | 00:00:00 | |
| KRY50SP | 2026-08-30 15:36:30 | 52.64516 | 18.52818 | 56° | 53km/h | 2926m | -10.8m/s | 0°C | 0% | 0hPa | 0V | 00:00:00 | 00:00:00 | 00:00:00 | |
| KRY50SP | 2026-08-30 15:36:16 | 52.64412 | 18.52548 | 60° | 55km/h | 3084m | -11.4m/s | 0°C | 0% | 0hPa | 0V | 00:00:00 | 00:00:00 | 00:00:00 | |
| KRY50SP | 2026-08-30 15:35:55 | 52.64277 | 18.52152 | 64° | 49km/h | 3327m | -11.1m/s | 0°C | 0% | 0hPa | 0V | 00:00:00 | 00:00:00 | 00:00:00 | |
| KRY50SP-1 | 2026-08-30 15:35:50 | 52.64249 | 18.52053 | 70° | 55km/h | 3383m | -11.1m/s | 0°C | 0% | 0hPa | 0V | 00:00:00 | 00:00:00 | 00:00:00 | |
| KRY50SP | 2026-08-30 15:35:49 | 52.64244 | 18.52032 | 66° | 53km/h | 3394m | -10.6m/s | 0°C | 0% | 0hPa | 0V | 00:00:00 | 00:00:00 | 00:00:00 | |
| KRY50SP-1 | 2026-08-30 15:35:41 | 52.64198 | 18.51879 | 64° | 49km/h | 3484m | -10.3m/s | 0°C | 0% | 0hPa | 0V | 00:00:00 | 00:00:00 | 00:00:00 | |
| KRY50SP | 2026-08-30 15:35:40 | 52.64192 | 18.51861 | 60° | 49km/h | 3495m | -10.6m/s | 0°C | 0% | 0hPa | 0V | 00:00:00 | 00:00:00 | 00:00:00 | |
| SP3WXH-11 | 2026-08-30 15:35:22 | 52.64060 | 18.51463 | 60° | 53km/h | 3727m | -9.6m/s | 0°C | -1.0% | -1.0hPa | 0V | 00:00:00 | 00:00:00 | 00:00:00 | |
| KRY50SP | 2026-08-30 15:35:17 | 52.64047 | 18.51422 | 62° | 55km/h | 3750m | -11.1m/s | 0°C | 0% | 0hPa | 0V | 00:00:00 | 00:00:00 | 00:00:00 | |
| KRY50SP | 2026-08-30 15:35:07 | 52.63986 | 18.51222 | 66° | 49km/h | 3862m | -9.4m/s | 0°C | 0% | 0hPa | 0V | 00:00:00 | 00:00:00 | 00:00:00 | |
| KRY50SP-1 | 2026-08-30 15:34:57 | 52.63933 | 18.51023 | 67° | 51km/h | 3969m | -11.3m/s | 0°C | 0% | 0hPa | 0V | 00:00:00 | 00:00:00 | 00:00:00 | |
| KRY50SP | 2026-08-30 15:34:32 | 52.63800 | 18.50510 | 68° | 55km/h | 4247m | -11.0m/s | 0°C | 0% | 0hPa | 0V | 00:00:00 | 00:00:00 | 00:00:00 | |
| KRY50SP | 2026-08-30 15:34:23 | 52.63750 | 18.50325 | 67° | 57km/h | 4349m | -11.1m/s | 0°C | 0% | 0hPa | 0V | 00:00:00 | 00:00:00 | 00:00:00 | |
| KRY50SP | 2026-08-30 15:34:16 | 52.63712 | 18.50180 | 69° | 55km/h | 4429m | -11.0m/s | 0°C | 0% | 0hPa | 0V | 00:00:00 | 00:00:00 | 00:00:00 | |
| SP3WXH-11 | 2026-08-30 15:33:49 | 52.63546 | 18.49620 | 63° | 53km/h | 4744m | -10.7m/s | 0°C | -1.0% | -1.0hPa | 0V | 00:00:00 | 00:00:00 | 00:00:00 | |
| KRY50SP | 2026-08-30 15:33:32 | 52.63448 | 18.49295 | 63° | 60km/h | 4926m | -11.1m/s | 0°C | 0% | 0hPa | 0V | 00:00:00 | 00:00:00 | 00:00:00 | |
| KRY50SP | 2026-08-30 15:33:26 | 52.63406 | 18.49166 | 63° | 57km/h | 4994m | -11.5m/s | 0°C | 0% | 0hPa | 0V | 00:00:00 | 00:00:00 | 00:00:00 | |
| KRY50SP-1 | 2026-08-30 15:33:23 | 52.63388 | 18.49102 | 67° | 57km/h | 5030m | -11.0m/s | 0°C | 0% | 0hPa | 0V | 00:00:00 | 00:00:00 | 00:00:00 | |
| KRY50SP | 2026-08-30 15:33:19 | 52.63363 | 18.49014 | 65° | 58km/h | 5077m | -11.6m/s | 0°C | 0% | 0hPa | 0V | 00:00:00 | 00:00:00 | 00:00:00 | |
| SP3WXH-11 | 2026-08-30 15:33:18 | 52.63351 | 18.48970 | 63° | 57km/h | 5100m | -11.4m/s | 0°C | -1.0% | -1.0hPa | 0V | 00:00:00 | 00:00:00 | 00:00:00 | |
| KRY50SP-1 | 2026-08-30 15:33:16 | 52.63345 | 18.48948 | 69° | 60km/h | 5112m | -11.0m/s | 0°C | 0% | 0hPa | 0V | 00:00:00 | 00:00:00 | 00:00:00 | |
| KRY50SP | 2026-08-30 15:33:12 | 52.63321 | 18.48859 | 65° | 60km/h | 5159m | -11.6m/s | 0°C | 0% | 0hPa | 0V | 00:00:00 | 00:00:00 | 00:00:00 | |
| KRY50SP | 2026-08-30 15:33:07 | 52.63289 | 18.48747 | 68° | 58km/h | 5219m | -11.5m/s | 0°C | 0% | 0hPa | 0V | 00:00:00 | 00:00:00 | 00:00:00 | |
| KRY50SP | 2026-08-30 15:33:01 | 52.63246 | 18.48619 | 58° | 58km/h | 5289m | -11.6m/s | 0°C | 0% | 0hPa | 0V | 00:00:00 | 00:00:00 | 00:00:00 | |
| SP3WXH-11 | 2026-08-30 15:32:47 | 52.63146 | 18.48306 | 62° | 57km/h | 5471m | -11.5m/s | 0°C | -1.0% | -1.0hPa | 0V | 00:00:00 | 00:00:00 | 00:00:00 | |
| KRY50SP | 2026-08-30 15:32:43 | 52.63126 | 18.48240 | 66° | 60km/h | 5508m | -11.4m/s | 0°C | 0% | 0hPa | 0V | 00:00:00 | 00:00:00 | 00:00:00 | |
| KRY50SP-1 | 2026-08-30 15:32:41 | 52.63113 | 18.48196 | 64° | 62km/h | 5531m | -10.7m/s | 0°C | 0% | 0hPa | 0V | 00:00:00 | 00:00:00 | 00:00:00 | |
| KRY50SP | 2026-08-30 15:32:37 | 52.63085 | 18.48109 | 63° | 60km/h | 5578m | -11.0m/s | 0°C | 0% | 0hPa | 0V | 00:00:00 | 00:00:00 | 00:00:00 | |
| KRY50SP-1 | 2026-08-30 15:32:36 | 52.63078 | 18.48087 | 62° | 58km/h | 5589m | -11.0m/s | 0°C | 0% | 0hPa | 0V | 00:00:00 | 00:00:00 | 00:00:00 | |
| KRY50SP | 2026-08-30 15:32:32 | 52.63052 | 18.48006 | 64° | 55km/h | 5636m | -11.2m/s | 0°C | 0% | 0hPa | 0V | 00:00:00 | 00:00:00 | 00:00:00 | |
| KRY50SP-1 | 2026-08-30 15:32:30 | 52.63041 | 18.47965 | 68° | 55km/h | 5660m | -10.8m/s | 0°C | 0% | 0hPa | 0V | 00:00:00 | 00:00:00 | 00:00:00 | |
| KRY50SP | 2026-08-30 15:32:26 | 52.63020 | 18.47880 | 67° | 57km/h | 5713m | -12.9m/s | 0°C | 0% | 0hPa | 0V | 00:00:00 | 00:00:00 | 00:00:00 | |
| KRY50SP-1 | 2026-08-30 15:32:25 | 52.63014 | 18.47860 | 69° | 53km/h | 5725m | -12.7m/s | 0°C | 0% | 0hPa | 0V | 00:00:00 | 00:00:00 | 00:00:00 | |
| KRY50SP | 2026-08-30 15:32:20 | 52.62988 | 18.47751 | 68° | 57km/h | 5787m | -11.9m/s | 0°C | 0% | 0hPa | 0V | 00:00:00 | 00:00:00 | 00:00:00 | |
| KRY50SP-1 | 2026-08-30 15:32:19 | 52.62983 | 18.47730 | 69° | 55km/h | 5799m | -11.4m/s | 0°C | 0% | 0hPa | 0V | 00:00:00 | 00:00:00 | 00:00:00 | |
| SP3WXH-11 | 2026-08-30 15:32:16 | 52.62962 | 18.47641 | 68° | 57km/h | 5844m | -11.0m/s | 0°C | -1.0% | -1.0hPa | 0V | 00:00:00 | 00:00:00 | 00:00:00 | |
| KRY50SP | 2026-08-30 15:32:14 | 52.62956 | 18.47619 | 71° | 58km/h | 5855m | -11.1m/s | 0°C | 0% | 0hPa | 0V | 00:00:00 | 00:00:00 | 00:00:00 | |
| KRY50SP-1 | 2026-08-30 15:32:13 | 52.62951 | 18.47596 | 71° | 58km/h | 5866m | -11.0m/s | 0°C | 0% | 0hPa | 0V | 00:00:00 | 00:00:00 | 00:00:00 | |
| KRY50SP | 2026-08-30 15:32:08 | 52.62925 | 18.47483 | 71° | 58km/h | 5924m | -11.2m/s | 0°C | 0% | 0hPa | 0V | 00:00:00 | 00:00:00 | 00:00:00 | |
| SP3WXH-11 | 2026-08-30 15:31:45 | 52.62796 | 18.46865 | 75° | 68km/h | 6233m | -12.6m/s | 0°C | -1.0% | -1.0hPa | 0V | 00:00:00 | 00:00:00 | 00:00:00 | |
| KRY50SP | 2026-08-30 15:31:38 | 52.62780 | 18.46757 | 75° | 66km/h | 6285m | -12.5m/s | 0°C | 0% | 0hPa | 0V | 00:00:00 | 00:00:00 | 00:00:00 | |
| KRY50SP-1 | 2026-08-30 15:31:36 | 52.62771 | 18.46703 | 76° | 69km/h | 6310m | -12.5m/s | 0°C | 0% | 0hPa | 0V | 00:00:00 | 00:00:00 | 00:00:00 | |
| KRY50SP | 2026-08-30 15:31:32 | 52.62753 | 18.46596 | 75° | 66km/h | 6360m | -12.3m/s | 0°C | 0% | 0hPa | 0V | 00:00:00 | 00:00:00 | 00:00:00 | |
| KRY50SP-1 | 2026-08-30 15:31:29 | 52.62740 | 18.46516 | 75° | 64km/h | 6398m | -12.4m/s | 0°C | 0% | 0hPa | 0V | 00:00:00 | 00:00:00 | 00:00:00 | |
| KRY50SP | 2026-08-30 15:31:26 | 52.62728 | 18.46437 | 76° | 64km/h | 6436m | -12.1m/s | 0°C | 0% | 0hPa | 0V | 00:00:00 | 00:00:00 | 00:00:00 | |
| SP3BTT-10 | 2026-08-30 15:31:25 | 52.62724 | 18.46411 | 77° | 66km/h | 6448m | -12.2m/s | 0°C | 0% | 0hPa | 0V | 00:00:00 | 00:00:00 | 00:00:00 | |
| KRY50SP-1 | 2026-08-30 15:31:24 | 52.62720 | 18.46384 | 76° | 66km/h | 6460m | -12.1m/s | 0°C | 0% | 0hPa | 0V | 00:00:00 | 00:00:00 | 00:00:00 | |
| KRY50SP | 2026-08-30 15:31:20 | 52.62703 | 18.46283 | 75° | 62km/h | 6509m | -12.2m/s | 0°C | 0% | 0hPa | 0V | 00:00:00 | 00:00:00 | 00:00:00 | |
| SP3WXH-11 | 2026-08-30 15:31:14 | 52.62671 | 18.46099 | 75° | 66km/h | 6597m | -12.5m/s | 0°C | -1.0% | -1.0hPa | 0V | 00:00:00 | 00:00:00 | 00:00:00 | |
| KRY50SP | 2026-08-30 15:31:09 | 52.62654 | 18.45989 | 76° | 71km/h | 6648m | -12.5m/s | 0°C | 0% | 0hPa | 0V | 00:00:00 | 00:00:00 | 00:00:00 | |
| KRY50SP-1 | 2026-08-30 15:31:06 | 52.62641 | 18.45906 | 78° | 69km/h | 6685m | -12.6m/s | 0°C | 0% | 0hPa | 0V | 00:00:00 | 00:00:00 | 00:00:00 | |
| KRY50SP-1 | 2026-08-30 15:31:00 | 52.62623 | 18.45742 | 84° | 64km/h | 6761m | -12.5m/s | 0°C | 0% | 0hPa | 0V | 00:00:00 | 00:00:00 | 00:00:00 | |
| SP3WXH-11 | 2026-08-30 15:30:43 | 52.62604 | 18.45267 | 86° | 66km/h | 6992m | -12.9m/s | 0°C | -1.0% | -1.0hPa | 0V | 00:00:00 | 00:00:00 | 00:00:00 | |
| KRY50SP | 2026-08-30 15:30:39 | 52.62600 | 18.45184 | 85° | 68km/h | 7032m | -12.9m/s | 0°C | 0% | 0hPa | 0V | 00:00:00 | 00:00:00 | 00:00:00 | |
| KRY50SP-1 | 2026-08-30 15:30:38 | 52.62598 | 18.45156 | 85° | 66km/h | 7045m | -12.8m/s | 0°C | 0% | 0hPa | 0V | 00:00:00 | 00:00:00 | 00:00:00 | |
| KRY50SP | 2026-08-30 15:30:34 | 52.62592 | 18.45045 | 87° | 68km/h | 7096m | -13.1m/s | 0°C | 0% | 0hPa | 0V | 00:00:00 | 00:00:00 | 00:00:00 | |
| KRY50SP-1 | 2026-08-30 15:30:32 | 52.62590 | 18.44988 | 87° | 68km/h | 7122m | -12.4m/s | 0°C | 0% | 0hPa | 0V | 00:00:00 | 00:00:00 | 00:00:00 | |
| KRY50SP | 2026-08-30 15:30:28 | 52.62586 | 18.44876 | 91° | 68km/h | 7174m | -13.0m/s | 0°C | 0% | 0hPa | 0V | 00:00:00 | 00:00:00 | 00:00:00 | |
| KRY50SP-1 | 2026-08-30 15:30:27 | 52.62586 | 18.44848 | 91° | 69km/h | 7187m | -13.3m/s | 0°C | 0% | 0hPa | 0V | 00:00:00 | 00:00:00 | 00:00:00 | |
| SP3BTT-10 | 2026-08-30 15:30:25 | 52.62586 | 18.44792 | 91° | 68km/h | 7214m | -13.1m/s | 0°C | 0% | 0hPa | 0V | 00:00:00 | 00:00:00 | 00:00:00 | |
| KRY50SP | 2026-08-30 15:30:23 | 52.62586 | 18.44735 | 92° | 68km/h | 7240m | -13.2m/s | 0°C | 0% | 0hPa | 0V | 00:00:00 | 00:00:00 | 00:00:00 | |
| KRY50SP-1 | 2026-08-30 15:30:21 | 52.62587 | 18.44679 | 92° | 68km/h | 7267m | -13.2m/s | 0°C | 0% | 0hPa | 0V | 00:00:00 | 00:00:00 | 00:00:00 | |
| KRY50SP | 2026-08-30 15:30:16 | 52.62589 | 18.44539 | 93° | 68km/h | 7333m | -13.3m/s | 0°C | 0% | 0hPa | 0V | 00:00:00 | 00:00:00 | 00:00:00 | |
| KRY50SP-1 | 2026-08-30 15:30:14 | 52.62590 | 18.44484 | 92° | 68km/h | 7359m | -12.6m/s | 0°C | 0% | 0hPa | 0V | 00:00:00 | 00:00:00 | 00:00:00 | |
| SP3WXH-11 | 2026-08-30 15:30:12 | 52.62591 | 18.44400 | 90° | 66km/h | 7397m | -12.9m/s | 0°C | -1.0% | -1.0hPa | 0V | 00:00:00 | 00:00:00 | 00:00:00 | |
| KRY50SP | 2026-08-30 15:30:10 | 52.62592 | 18.44372 | 91° | 68km/h | 7411m | -12.9m/s | 0°C | 0% | 0hPa | 0V | 00:00:00 | 00:00:00 | 00:00:00 | |
| KRY50SP-1 | 2026-08-30 15:30:08 | 52.62592 | 18.44316 | 92° | 68km/h | 7437m | -13.2m/s | 0°C | 0% | 0hPa | 0V | 00:00:00 | 00:00:00 | 00:00:00 | |
| KRY50SP | 2026-08-30 15:30:05 | 52.62592 | 18.44230 | 91° | 68km/h | 7476m | -12.8m/s | 0°C | 0% | 0hPa | 0V | 00:00:00 | 00:00:00 | 00:00:00 | |
| KRY50SP-1 | 2026-08-30 15:30:03 | 52.62591 | 18.44174 | 92° | 68km/h | 7503m | -13.4m/s | 0°C | 0% | 0hPa | 0V | 00:00:00 | 00:00:00 | 00:00:00 | |
| KRY50SP | 2026-08-30 15:29:58 | 52.62592 | 18.44031 | 90° | 69km/h | 7571m | -12.9m/s | 0°C | 0% | 0hPa | 0V | 00:00:00 | 00:00:00 | 00:00:00 | |
| KRY50SP-1 | 2026-08-30 15:29:57 | 52.62591 | 18.44003 | 90° | 68km/h | 7584m | -12.9m/s | 0°C | 0% | 0hPa | 0V | 00:00:00 | 00:00:00 | 00:00:00 | |
| KRY50SP | 2026-08-30 15:29:53 | 52.62591 | 18.43892 | 90° | 66km/h | 7637m | -13.3m/s | 0°C | 0% | 0hPa | 0V | 00:00:00 | 00:00:00 | 00:00:00 | |
| KRY50SP-1 | 2026-08-30 15:29:51 | 52.62590 | 18.43837 | 91° | 66km/h | 7664m | -13.5m/s | 0°C | 0% | 0hPa | 0V | 00:00:00 | 00:00:00 | 00:00:00 | |
| KRY50SP | 2026-08-30 15:29:47 | 52.62590 | 18.43727 | 91° | 66km/h | 7719m | -13.7m/s | 0°C | 0% | 0hPa | 0V | 00:00:00 | 00:00:00 | 00:00:00 | |
| KRY50SP-1 | 2026-08-30 15:29:45 | 52.62590 | 18.43671 | 91° | 66km/h | 7746m | -13.4m/s | 0°C | 0% | 0hPa | 0V | 00:00:00 | 00:00:00 | 00:00:00 | |
| SP3BTT-10 | 2026-08-30 15:29:43 | 52.62590 | 18.43617 | 91° | 62km/h | 7773m | -13.1m/s | 0°C | 0% | 0hPa | 0V | 00:00:00 | 00:00:00 | 00:00:00 | |
| KRY50SP | 2026-08-30 15:29:42 | 52.62590 | 18.43590 | 90° | 66km/h | 7786m | -13.6m/s | 0°C | 0% | 0hPa | 0V | 00:00:00 | 00:00:00 | 00:00:00 | |
| SP3WXH-11 | 2026-08-30 15:29:40 | 52.62590 | 18.43535 | 90° | 66km/h | 7813m | -13.6m/s | 0°C | -1.0% | -1.0hPa | 0V | 00:00:00 | 00:00:00 | 00:00:00 | |
| KRY50SP-1 | 2026-08-30 15:29:39 | 52.62590 | 18.43508 | 89° | 66km/h | 7827m | -13.7m/s | 0°C | 0% | 0hPa | 0V | 00:00:00 | 00:00:00 | 00:00:00 | |
| KRY50SP | 2026-08-30 15:29:37 | 52.62590 | 18.43454 | 90° | 66km/h | 7854m | -13.5m/s | 0°C | 0% | 0hPa | 0V | 00:00:00 | 00:00:00 | 00:00:00 | |
| KRY50SP-1 | 2026-08-30 15:29:34 | 52.62588 | 18.43373 | 90° | 66km/h | 7895m | -13.6m/s | 0°C | 0% | 0hPa | 0V | 00:00:00 | 00:00:00 | 00:00:00 | |
| KRY50SP | 2026-08-30 15:29:32 | 52.62588 | 18.43318 | 90° | 64km/h | 7922m | -13.8m/s | 0°C | 0% | 0hPa | 0V | 00:00:00 | 00:00:00 | 00:00:00 | |
| KRY50SP-1 | 2026-08-30 15:29:28 | 52.62587 | 18.43213 | 91° | 62km/h | 7976m | -13.4m/s | 0°C | 0% | 0hPa | 0V | 00:00:00 | 00:00:00 | 00:00:00 | |
| KRY50SP | 2026-08-30 15:29:26 | 52.62587 | 18.43161 | 91° | 62km/h | 8003m | -14.1m/s | 0°C | 0% | 0hPa | 0V | 00:00:00 | 00:00:00 | 00:00:00 | |
| KRY50SP-1 | 2026-08-30 15:29:22 | 52.62587 | 18.43058 | 90° | 62km/h | 8059m | -13.8m/s | 0°C | 0% | 0hPa | 0V | 00:00:00 | 00:00:00 | 00:00:00 | |
| KRY50SP | 2026-08-30 15:29:20 | 52.62587 | 18.43006 | 89° | 62km/h | 8086m | -13.6m/s | 0°C | 0% | 0hPa | 0V | 00:00:00 | 00:00:00 | 00:00:00 | |
| KRY50SP-1 | 2026-08-30 15:29:16 | 52.62585 | 18.42903 | 89° | 62km/h | 8140m | -13.1m/s | 0°C | 0% | 0hPa | 0V | 00:00:00 | 00:00:00 | 00:00:00 | |
| KRY50SP | 2026-08-30 15:29:14 | 52.62584 | 18.42853 | 90° | 62km/h | 8167m | -13.8m/s | 0°C | 0% | 0hPa | 0V | 00:00:00 | 00:00:00 | 00:00:00 | |
| KRY50SP-1 | 2026-08-30 15:29:11 | 52.62583 | 18.42775 | 90° | 62km/h | 8208m | -13.7m/s | 0°C | 0% | 0hPa | 0V | 00:00:00 | 00:00:00 | 00:00:00 | |
| SP3WXH-11 | 2026-08-30 15:29:10 | 52.62582 | 18.42724 | 88° | 60km/h | 8235m | -13.8m/s | 0°C | -1.0% | -1.0hPa | 0V | 00:00:00 | 00:00:00 | 00:00:00 | |
| KRY50SP | 2026-08-30 15:29:08 | 52.62582 | 18.42699 | 91° | 60km/h | 8249m | -13.8m/s | 0°C | 0% | 0hPa | 0V | 00:00:00 | 00:00:00 | 00:00:00 | |
| KRY50SP-1 | 2026-08-30 15:29:05 | 52.62580 | 18.42623 | 88° | 60km/h | 8290m | -13.2m/s | 0°C | 0% | 0hPa | 0V | 00:00:00 | 00:00:00 | 00:00:00 | |
| KRY50SP-1 | 2026-08-30 15:29:00 | 52.62576 | 18.42498 | 86° | 60km/h | 8356m | -13.3m/s | 0°C | 0% | 0hPa | 0V | 00:00:00 | 00:00:00 | 00:00:00 | |
| KRY50SP | 2026-08-30 15:28:56 | 52.62571 | 18.42397 | 86° | 62km/h | 8410m | -13.5m/s | 0°C | 0% | 0hPa | 0V | 00:00:00 | 00:00:00 | 00:00:00 | |
| SP3BTT-10 | 2026-08-30 15:28:55 | 52.62569 | 18.42372 | 87° | 68km/h | 8423m | -13.6m/s | 0°C | 0% | 0hPa | 0V | 00:00:00 | 00:00:00 | 00:00:00 | |
| KRY50SP-1 | 2026-08-30 15:28:54 | 52.62569 | 18.42346 | 87° | 62km/h | 8437m | -14.2m/s | 0°C | 0% | 0hPa | 0V | 00:00:00 | 00:00:00 | 00:00:00 | |
| KRY50SP | 2026-08-30 15:28:50 | 52.62564 | 18.42243 | 86° | 64km/h | 8492m | -13.8m/s | 0°C | 0% | 0hPa | 0V | 00:00:00 | 00:00:00 | 00:00:00 | |
| KRY50SP-1 | 2026-08-30 15:28:48 | 52.62561 | 18.42190 | 87° | 64km/h | 8519m | -13.3m/s | 0°C | 0% | 0hPa | 0V | 00:00:00 | 00:00:00 | 00:00:00 | |
| KRY50SP | 2026-08-30 15:28:44 | 52.62558 | 18.42083 | 88° | 66km/h | 8575m | -13.9m/s | 0°C | 0% | 0hPa | 0V | 00:00:00 | 00:00:00 | 00:00:00 | |
| KRY50SP-1 | 2026-08-30 15:28:42 | 52.62555 | 18.42028 | 86° | 68km/h | 8603m | -13.8m/s | 0°C | 0% | 0hPa | 0V | 00:00:00 | 00:00:00 | 00:00:00 | |
| KRY50SP | 2026-08-30 15:28:38 | 52.62548 | 18.41915 | 86° | 68km/h | 8658m | -14.0m/s | 0°C | 0% | 0hPa | 0V | 00:00:00 | 00:00:00 | 00:00:00 | |
| KRY50SP-1 | 2026-08-30 15:28:37 | 52.62547 | 18.41887 | 87° | 69km/h | 8672m | -14.2m/s | 0°C | 0% | 0hPa | 0V | 00:00:00 | 00:00:00 | 00:00:00 | |
| KRY50SP | 2026-08-30 15:28:33 | 52.62542 | 18.41775 | 89° | 66km/h | 8729m | -14.4m/s | 0°C | 0% | 0hPa | 0V | 00:00:00 | 00:00:00 | 00:00:00 | |
| KRY50SP-1 | 2026-08-30 15:28:31 | 52.62541 | 18.41719 | 87° | 68km/h | 8758m | -14.2m/s | 0°C | 0% | 0hPa | 0V | 00:00:00 | 00:00:00 | 00:00:00 | |
| KRY50SP | 2026-08-30 15:28:27 | 52.62535 | 18.41610 | 85° | 69km/h | 8815m | -13.6m/s | 0°C | 0% | 0hPa | 0V | 00:00:00 | 00:00:00 | 00:00:00 | |
| KRY50SP-1 | 2026-08-30 15:28:23 | 52.62527 | 18.41496 | 85° | 69km/h | 8872m | -13.9m/s | 0°C | 0% | 0hPa | 0V | 00:00:00 | 00:00:00 | 00:00:00 | |
| KRY50SP | 2026-08-30 15:28:21 | 52.62522 | 18.41438 | 81° | 69km/h | 8900m | -14.0m/s | 0°C | 0% | 0hPa | 0V | 00:00:00 | 00:00:00 | 00:00:00 | |
| KRY50SP-1 | 2026-08-30 15:28:17 | 52.62512 | 18.41323 | 83° | 71km/h | 8956m | -14.2m/s | 0°C | 0% | 0hPa | 0V | 00:00:00 | 00:00:00 | 00:00:00 | |
| KRY50SP | 2026-08-30 15:28:16 | 52.62510 | 18.41295 | 81° | 69km/h | 8971m | -14.1m/s | 0°C | 0% | 0hPa | 0V | 00:00:00 | 00:00:00 | 00:00:00 | |
| KRY50SP-1 | 2026-08-30 15:28:12 | 52.62500 | 18.41182 | 82° | 68km/h | 9026m | -13.7m/s | 0°C | 0% | 0hPa | 0V | 00:00:00 | 00:00:00 | 00:00:00 | |
| KRY50SP | 2026-08-30 15:28:11 | 52.62497 | 18.41154 | 83° | 68km/h | 9040m | -14.4m/s | 0°C | 0% | 0hPa | 0V | 00:00:00 | 00:00:00 | 00:00:00 | |
| SP3BTT-10 | 2026-08-30 15:28:09 | 52.62493 | 18.41098 | 83° | 73km/h | 9069m | -14.2m/s | 0°C | 0% | 0hPa | 0V | 00:00:00 | 00:00:00 | 00:00:00 | |
| KRY50SP-1 | 2026-08-30 15:28:07 | 52.62488 | 18.41042 | 82° | 66km/h | 9098m | -13.8m/s | 0°C | 0% | 0hPa | 0V | 00:00:00 | 00:00:00 | 00:00:00 | |
| KRY50SP | 2026-08-30 15:28:04 | 52.62481 | 18.40962 | 83° | 68km/h | 9140m | -14.3m/s | 0°C | 0% | 0hPa | 0V | 00:00:00 | 00:00:00 | 00:00:00 | |
| KRY50SP-1 | 2026-08-30 15:28:01 | 52.62474 | 18.40882 | 84° | 64km/h | 9184m | -14.1m/s | 0°C | 0% | 0hPa | 0V | 00:00:00 | 00:00:00 | 00:00:00 | |
| KRY50SP | 2026-08-30 15:27:58 | 52.62469 | 18.40801 | 85° | 66km/h | 9227m | -14.1m/s | 0°C | 0% | 0hPa | 0V | 00:00:00 | 00:00:00 | 00:00:00 | |
| KRY50SP-1 | 2026-08-30 15:27:55 | 52.62464 | 18.40720 | 87° | 69km/h | 9270m | -14.1m/s | 0°C | 0% | 0hPa | 0V | 00:00:00 | 00:00:00 | 00:00:00 | |
| KRY50SP | 2026-08-30 15:27:53 | 52.62461 | 18.40663 | 87° | 68km/h | 9299m | -14.5m/s | 0°C | 0% | 0hPa | 0V | 00:00:00 | 00:00:00 | 00:00:00 | |
| KRY50SP-1 | 2026-08-30 15:27:50 | 52.62459 | 18.40578 | 88° | 71km/h | 9342m | -14.9m/s | 0°C | 0% | 0hPa | 0V | 00:00:00 | 00:00:00 | 00:00:00 | |
| KRY50SP | 2026-08-30 15:27:47 | 52.62457 | 18.40491 | 91° | 69km/h | 9387m | -14.6m/s | 0°C | 0% | 0hPa | 0V | 00:00:00 | 00:00:00 | 00:00:00 | |
| KRY50SP | 2026-08-30 15:27:42 | 52.62456 | 18.40342 | 91° | 77km/h | 9461m | -14.4m/s | 0°C | 0% | 0hPa | 0V | 00:00:00 | 00:00:00 | 00:00:00 | |
| KRY50SP-1 | 2026-08-30 15:27:36 | 52.62453 | 18.40152 | 89° | 77km/h | 9547m | -14.3m/s | 0°C | 0% | 0hPa | 0V | 00:00:00 | 00:00:00 | 00:00:00 | |
| KRY50SP | 2026-08-30 15:27:30 | 52.62447 | 18.39964 | 88° | 73km/h | 9636m | -14.9m/s | 0°C | 0% | 0hPa | 0V | 00:00:00 | 00:00:00 | 00:00:00 | |
| SP3BTT-10 | 2026-08-30 15:27:27 | 52.62443 | 18.39868 | 86° | 75km/h | 9681m | -15.5m/s | 0°C | 0% | 0hPa | 0V | 00:00:00 | 00:00:00 | 00:00:00 | |
| KRY50SP | 2026-08-30 15:27:25 | 52.62440 | 18.39804 | 87° | 77km/h | 9711m | -14.8m/s | 0°C | 0% | 0hPa | 0V | 00:00:00 | 00:00:00 | 00:00:00 | |
| KRY50SP-1 | 2026-08-30 15:27:24 | 52.62438 | 18.39772 | 86° | 80km/h | 9726m | -15.2m/s | 0°C | 0% | 0hPa | 0V | 00:00:00 | 00:00:00 | 00:00:00 | |
| KRY50SP | 2026-08-30 15:27:20 | 52.62431 | 18.39644 | 87° | 77km/h | 9786m | -15.2m/s | 0°C | 0% | 0hPa | 0V | 00:00:00 | 00:00:00 | 00:00:00 | |
| KRY50SP-1 | 2026-08-30 15:27:19 | 52.62430 | 18.39612 | 87° | 78km/h | 9801m | -15.2m/s | 0°C | 0% | 0hPa | 0V | 00:00:00 | 00:00:00 | 00:00:00 | |
| KRY50SP | 2026-08-30 15:27:14 | 52.62420 | 18.39453 | 84° | 78km/h | 9876m | -15.2m/s | 0°C | 0% | 0hPa | 0V | 00:00:00 | 00:00:00 | 00:00:00 | |
| KRY50SP-1 | 2026-08-30 15:27:13 | 52.62418 | 18.39421 | 85° | 75km/h | 9892m | -15.4m/s | 0°C | 0% | 0hPa | 0V | 00:00:00 | 00:00:00 | 00:00:00 | |
| KRY50SP | 2026-08-30 15:27:08 | 52.62409 | 18.39264 | 87° | 75km/h | 9968m | -15.2m/s | 0°C | 0% | 0hPa | 0V | 00:00:00 | 00:00:00 | 00:00:00 | |
| SP3WXH-11 | 2026-08-30 15:27:05 | 52.62403 | 18.39169 | 83° | 77km/h | 10014m | -14.9m/s | 0°C | -1.0% | -1.0hPa | 0V | 00:00:00 | 00:00:00 | 00:00:00 | |
| KRY50SP | 2026-08-30 15:27:03 | 52.62399 | 18.39107 | 87° | 77km/h | 10044m | -15.4m/s | 0°C | 0% | 0hPa | 0V | 00:00:00 | 00:00:00 | 00:00:00 | |
| KRY50SP-1 | 2026-08-30 15:26:57 | 52.62389 | 18.38920 | 86° | 77km/h | 10136m | -15.1m/s | 0°C | 0% | 0hPa | 0V | 00:00:00 | 00:00:00 | 00:00:00 | |
| KRY50SP | 2026-08-30 15:26:52 | 52.62382 | 18.38766 | 88° | 75km/h | 10213m | -15.7m/s | 0°C | 0% | 0hPa | 0V | 00:00:00 | 00:00:00 | 00:00:00 | |
| KRY50SP-1 | 2026-08-30 15:26:51 | 52.62380 | 18.38735 | 86° | 73km/h | 10228m | -15.4m/s | 0°C | 0% | 0hPa | 0V | 00:00:00 | 00:00:00 | 00:00:00 | |
| KRY50SP | 2026-08-30 15:26:46 | 52.62372 | 18.38581 | 83° | 73km/h | 10307m | -15.1m/s | 0°C | 0% | 0hPa | 0V | 00:00:00 | 00:00:00 | 00:00:00 | |
| KRY50SP-1 | 2026-08-30 15:26:45 | 52.62369 | 18.38551 | 84° | 71km/h | 10322m | -15.1m/s | 0°C | 0% | 0hPa | 0V | 00:00:00 | 00:00:00 | 00:00:00 | |
| SP3BTT-10 | 2026-08-30 15:26:43 | 52.62364 | 18.38490 | 82° | 77km/h | 10354m | -15.2m/s | 0°C | 0% | 0hPa | 0V | 00:00:00 | 00:00:00 | 00:00:00 | |
| KRY50SP-1 | 2026-08-30 15:26:40 | 52.62355 | 18.38399 | 84° | 73km/h | 10401m | -15.1m/s | 0°C | 0% | 0hPa | 0V | 00:00:00 | 00:00:00 | 00:00:00 | |
| KRY50SP-1 | 2026-08-30 15:26:35 | 52.62343 | 18.38247 | 84° | 73km/h | 10477m | -14.9m/s | 0°C | 0% | 0hPa | 0V | 00:00:00 | 00:00:00 | 00:00:00 | |
| SP3WXH-11 | 2026-08-30 15:26:34 | 52.62341 | 18.38215 | 83° | 75km/h | 10492m | -15.1m/s | 0°C | -1.0% | -1.0hPa | 0V | 00:00:00 | 00:00:00 | 00:00:00 | |
| KRY50SP | 2026-08-30 15:26:29 | 52.62329 | 18.38056 | 84° | 80km/h | 10571m | -15.8m/s | 0°C | 0% | 0hPa | 0V | 00:00:00 | 00:00:00 | 00:00:00 | |
| KRY50SP | 2026-08-30 15:26:24 | 52.62317 | 18.37895 | 83° | 80km/h | 10650m | -15.4m/s | 0°C | 0% | 0hPa | 0V | 00:00:00 | 00:00:00 | 00:00:00 | |
| SP3WXH-11 | 2026-08-30 15:26:03 | 52.62263 | 18.37207 | 82° | 75km/h | 11001m | -15.5m/s | 0°C | -1.0% | -1.0hPa | 0V | 00:00:00 | 00:00:00 | 00:00:00 | |
| KRY50SP | 2026-08-30 15:26:00 | 52.62258 | 18.37143 | 85° | 80km/h | 11033m | -15.2m/s | 0°C | 0% | 0hPa | 0V | 00:00:00 | 00:00:00 | 00:00:00 | |
| KRY50SP-1 | 2026-08-30 15:25:57 | 52.62248 | 18.37048 | 82° | 75km/h | 11080m | -15.8m/s | 0°C | 0% | 0hPa | 0V | 00:00:00 | 00:00:00 | 00:00:00 | |
| KRY50SP | 2026-08-30 15:25:54 | 52.62238 | 18.36951 | 79° | 80km/h | 11128m | -15.8m/s | 0°C | 0% | 0hPa | 0V | 00:00:00 | 00:00:00 | 00:00:00 | |
| KRY50SP-1 | 2026-08-30 15:25:51 | 52.62226 | 18.36856 | 81° | 75km/h | 11177m | -15.5m/s | 0°C | 0% | 0hPa | 0V | 00:00:00 | 00:00:00 | 00:00:00 | |
| SP3BTT-10 | 2026-08-30 15:25:50 | 52.62223 | 18.36824 | 83° | 86km/h | 11193m | -16.2m/s | 0°C | 0% | 0hPa | 0V | 00:00:00 | 00:00:00 | 00:00:00 | |
| KRY50SP | 2026-08-30 15:25:49 | 52.62219 | 18.36792 | 80° | 78km/h | 11210m | -16.0m/s | 0°C | 0% | 0hPa | 0V | 00:00:00 | 00:00:00 | 00:00:00 | |
| KRY50SP-1 | 2026-08-30 15:25:45 | 52.62206 | 18.36668 | 83° | 77km/h | 11274m | -15.7m/s | 0°C | 0% | 0hPa | 0V | 00:00:00 | 00:00:00 | 00:00:00 | |
| KRY50SP | 2026-08-30 15:25:44 | 52.62202 | 18.36637 | 82° | 75km/h | 11290m | -15.4m/s | 0°C | 0% | 0hPa | 0V | 00:00:00 | 00:00:00 | 00:00:00 | |
| KRY50SP-1 | 2026-08-30 15:25:40 | 52.62189 | 18.36480 | 83° | 82km/h | 11370m | -15.8m/s | 0°C | 0% | 0hPa | 0V | 00:00:00 | 00:00:00 | 00:00:00 | |
| KRY50SP | 2026-08-30 15:25:39 | 52.62189 | 18.36480 | 83° | 82km/h | 11370m | -15.8m/s | 0°C | 0% | 0hPa | 0V | 00:00:00 | 00:00:00 | 00:00:00 | |
| KRY50SP-1 | 2026-08-30 15:25:34 | 52.62174 | 18.36310 | 82° | 86km/h | 11451m | -16.0m/s | 0°C | 0% | 0hPa | 0V | 00:00:00 | 00:00:00 | 00:00:00 | |
| KRY50SP | 2026-08-30 15:25:32 | 52.62167 | 18.36241 | 80° | 84km/h | 11483m | -15.8m/s | 0°C | 0% | 0hPa | 0V | 00:00:00 | 00:00:00 | 00:00:00 | |
| KRY50SP-1 | 2026-08-30 15:25:28 | 52.62153 | 18.36102 | 81° | 88km/h | 11548m | -16.4m/s | 0°C | 0% | 0hPa | 0V | 00:00:00 | 00:00:00 | 00:00:00 | |
| KRY50SP | 2026-08-30 15:25:26 | 52.62145 | 18.36030 | 81° | 88km/h | 11581m | -16.4m/s | 0°C | 0% | 0hPa | 0V | 00:00:00 | 00:00:00 | 00:00:00 | |
| KRY50SP-1 | 2026-08-30 15:25:22 | 52.62132 | 18.35884 | 82° | 88km/h | 11646m | -16.1m/s | 0°C | 0% | 0hPa | 0V | 00:00:00 | 00:00:00 | 00:00:00 | |
| KRY50SP | 2026-08-30 15:25:21 | 52.62128 | 18.35848 | 84° | 86km/h | 11663m | -15.8m/s | 0°C | 0% | 0hPa | 0V | 00:00:00 | 00:00:00 | 00:00:00 | |
| KRY50SP-1 | 2026-08-30 15:25:16 | 52.62122 | 18.35667 | 88° | 86km/h | 11746m | -16.1m/s | 0°C | 0% | 0hPa | 0V | 00:00:00 | 00:00:00 | 00:00:00 | |
| KRY50SP | 2026-08-30 15:25:15 | 52.62121 | 18.35630 | 89° | 86km/h | 11763m | -16.4m/s | 0°C | 0% | 0hPa | 0V | 00:00:00 | 00:00:00 | 00:00:00 | |
| SP3BTT-10 | 2026-08-30 15:25:12 | 52.62120 | 18.35524 | 88° | 75km/h | 11812m | -15.9m/s | 0°C | 0% | 0hPa | 0V | 00:00:00 | 00:00:00 | 00:00:00 | |
| KRY50SP | 2026-08-30 15:25:09 | 52.62117 | 18.35424 | 90° | 77km/h | 11861m | -16.3m/s | 0°C | 0% | 0hPa | 0V | 00:00:00 | 00:00:00 | 00:00:00 | |
| SP3WXH-11 | 2026-08-30 15:25:01 | 52.62115 | 18.35125 | 86° | 77km/h | 12009m | -16.1m/s | 0°C | -1.0% | -1.0hPa | 0V | 00:00:00 | 00:00:00 | 00:00:00 | |
| KRY50SP-1 | 2026-08-30 15:24:58 | 52.62113 | 18.35062 | 89° | 71km/h | 12042m | -16.4m/s | 0°C | 0% | 0hPa | 0V | 00:00:00 | 00:00:00 | 00:00:00 | |
| KRY50SP | 2026-08-30 15:24:55 | 52.62110 | 18.34971 | 87° | 73km/h | 12093m | -16.8m/s | 0°C | 0% | 0hPa | 0V | 00:00:00 | 00:00:00 | 00:00:00 | |
| KRY50SP-1 | 2026-08-30 15:24:53 | 52.62108 | 18.34911 | 88° | 71km/h | 12127m | -16.3m/s | 0°C | 0% | 0hPa | 0V | 00:00:00 | 00:00:00 | 00:00:00 | |
| KRY50SP | 2026-08-30 15:24:49 | 52.62107 | 18.34790 | 91° | 77km/h | 12193m | -16.8m/s | 0°C | 0% | 0hPa | 0V | 00:00:00 | 00:00:00 | 00:00:00 | |
| KRY50SP-1 | 2026-08-30 15:24:47 | 52.62106 | 18.34728 | 90° | 73km/h | 12226m | -16.1m/s | 0°C | 0% | 0hPa | 0V | 00:00:00 | 00:00:00 | 00:00:00 | |
| KRY50SP | 2026-08-30 15:24:42 | 52.62110 | 18.34575 | 93° | 71km/h | 12311m | -16.5m/s | 0°C | 0% | 0hPa | 0V | 00:00:00 | 00:00:00 | 00:00:00 | |
| KRY50SP | 2026-08-30 15:24:36 | 52.62122 | 18.34404 | 95° | 66km/h | 12412m | -16.2m/s | 0°C | 0% | 0hPa | 0V | 00:00:00 | 00:00:00 | 00:00:00 | |
| SP3BTT-10 | 2026-08-30 15:24:31 | 52.62125 | 18.34272 | 86° | 55km/h | 12496m | -16.8m/s | 0°C | 0% | 0hPa | 0V | 00:00:00 | 00:00:00 | 00:00:00 | |
| SP3WXH-11 | 2026-08-30 15:24:30 | 52.62122 | 18.34218 | 82° | 64km/h | 12529m | -16.4m/s | 0°C | -1.0% | -1.0hPa | 0V | 00:00:00 | 00:00:00 | 00:00:00 | |
| KRY50SP-1 | 2026-08-30 15:24:29 | 52.62121 | 18.34218 | 84° | 64km/h | 12530m | -16.4m/s | 0°C | 0% | 0hPa | 0V | 00:00:00 | 00:00:00 | 00:00:00 | |
| KRY50SP | 2026-08-30 15:24:22 | 52.62108 | 18.34036 | 84° | 55km/h | 12650m | -16.8m/s | 0°C | 0% | 0hPa | 0V | 00:00:00 | 00:00:00 | 00:00:00 | |
| KRY50SP | 2026-08-30 15:24:16 | 52.62094 | 18.33898 | 82° | 57km/h | 12751m | -17.0m/s | 0°C | 0% | 0hPa | 0V | 00:00:00 | 00:00:00 | 00:00:00 | |
| KRY50SP | 2026-08-30 15:24:11 | 52.62082 | 18.33769 | 80° | 64km/h | 12838m | -17.1m/s | 0°C | 0% | 0hPa | 0V | 00:00:00 | 00:00:00 | 00:00:00 | |
| KRY50SP-1 | 2026-08-30 15:24:05 | 52.62072 | 18.33625 | 81° | 57km/h | 12942m | -17.0m/s | 0°C | 0% | 0hPa | 0V | 00:00:00 | 00:00:00 | 00:00:00 | |
| SP3WXH-11 | 2026-08-30 15:23:59 | 52.62047 | 18.33469 | 66° | 44km/h | 13082m | -17.1m/s | 0°C | -1.0% | -1.0hPa | 0V | 00:00:00 | 00:00:00 | 00:00:00 | |
| KRY50SP-1 | 2026-08-30 15:23:57 | 52.62047 | 18.33469 | 67° | 44km/h | 13082m | -17.1m/s | 0°C | 0% | 0hPa | 0V | 00:00:00 | 00:00:00 | 00:00:00 | |
| KRY50SP | 2026-08-30 15:23:51 | 52.62025 | 18.33364 | 71° | 49km/h | 13188m | -17.5m/s | 0°C | 0% | 0hPa | 0V | 00:00:00 | 00:00:00 | 00:00:00 | |
| KRY50SP-1 | 2026-08-30 15:23:45 | 52.62001 | 18.33243 | 79° | 58km/h | 13293m | -17.4m/s | 0°C | 0% | 0hPa | 0V | 00:00:00 | 00:00:00 | 00:00:00 | |
| KRY50SP | 2026-08-30 15:23:41 | 52.61989 | 18.33147 | 83° | 58km/h | 13364m | -17.4m/s | 0°C | 0% | 0hPa | 0V | 00:00:00 | 00:00:00 | 00:00:00 | |
| SP3BTT-10 | 2026-08-30 15:23:38 | 52.61984 | 18.33071 | 86° | 62km/h | 13417m | -17.6m/s | 0°C | 0% | 0hPa | 0V | 00:00:00 | 00:00:00 | 00:00:00 | |
| KRY50SP-1 | 2026-08-30 15:23:37 | 52.61983 | 18.33046 | 84° | 62km/h | 13435m | -17.4m/s | 0°C | 0% | 0hPa | 0V | 00:00:00 | 00:00:00 | 00:00:00 | |
| KRY50SP | 2026-08-30 15:23:36 | 52.61981 | 18.33021 | 82° | 58km/h | 13453m | -17.6m/s | 0°C | 0% | 0hPa | 0V | 00:00:00 | 00:00:00 | 00:00:00 | |
| KRY50SP-1 | 2026-08-30 15:23:31 | 52.61970 | 18.32904 | 83° | 64km/h | 13544m | -18.1m/s | 0°C | 0% | 0hPa | 0V | 00:00:00 | 00:00:00 | 00:00:00 | |
| KRY50SP | 2026-08-30 15:23:29 | 52.61965 | 18.32853 | 81° | 62km/h | 13580m | -18.3m/s | 0°C | 0% | 0hPa | 0V | 00:00:00 | 00:00:00 | 00:00:00 | |
| SP3WXH-11 | 2026-08-30 15:23:28 | 52.61958 | 18.32804 | 76° | 57km/h | 13617m | -18.0m/s | 0°C | -1.0% | -1.0hPa | 0V | 00:00:00 | 00:00:00 | 00:00:00 | |
| KRY50SP-1 | 2026-08-30 15:23:21 | 52.61938 | 18.32663 | 74° | 58km/h | 13728m | -18.4m/s | 0°C | 0% | 0hPa | 0V | 00:00:00 | 00:00:00 | 00:00:00 | |
| KRY50SP | 2026-08-30 15:23:19 | 52.61931 | 18.32616 | 78° | 55km/h | 13766m | -18.2m/s | 0°C | 0% | 0hPa | 0V | 00:00:00 | 00:00:00 | 00:00:00 | |
| KRY50SP | 2026-08-30 15:23:09 | 52.61897 | 18.32357 | 85° | 64km/h | 13954m | -18.7m/s | 0°C | 0% | 0hPa | 0V | 00:00:00 | 00:00:00 | 00:00:00 | |
| KRY50SP | 2026-08-30 15:23:03 | 52.61892 | 18.32210 | 95° | 58km/h | 14066m | -18.4m/s | 0°C | 0% | 0hPa | 0V | 00:00:00 | 00:00:00 | 00:00:00 | |
| SP3WXH-11 | 2026-08-30 15:22:57 | 52.61889 | 18.31993 | 88° | 53km/h | 14234m | -18.4m/s | 0°C | -1.0% | -1.0hPa | 0V | 00:00:00 | 00:00:00 | 00:00:00 | |
| KRY50SP-1 | 2026-08-30 15:22:50 | 52.61886 | 18.31902 | 87° | 51km/h | 14311m | -19.5m/s | 0°C | 0% | 0hPa | 0V | 00:00:00 | 00:00:00 | 00:00:00 | |
| KRY50SP-1 | 2026-08-30 15:22:44 | 52.61886 | 18.31780 | 90° | 51km/h | 14428m | -19.3m/s | 0°C | 0% | 0hPa | 0V | 00:00:00 | 00:00:00 | 00:00:00 | |
| KRY50SP | 2026-08-30 15:22:43 | 52.61885 | 18.31760 | 87° | 49km/h | 14448m | -19.4m/s | 0°C | 0% | 0hPa | 0V | 00:00:00 | 00:00:00 | 00:00:00 | |
| KRY50SP-1 | 2026-08-30 15:22:39 | 52.61881 | 18.31683 | 88° | 46km/h | 14524m | -18.8m/s | 0°C | 0% | 0hPa | 0V | 00:00:00 | 00:00:00 | 00:00:00 | |
| KRY50SP | 2026-08-30 15:22:37 | 52.61880 | 18.31644 | 90° | 49km/h | 14563m | -18.8m/s | 0°C | 0% | 0hPa | 0V | 00:00:00 | 00:00:00 | 00:00:00 | |
| KRY50SP-1 | 2026-08-30 15:22:33 | 52.61873 | 18.31562 | 74° | 47km/h | 14641m | -19.2m/s | 0°C | 0% | 0hPa | 0V | 00:00:00 | 00:00:00 | 00:00:00 | |
| KRY50SP | 2026-08-30 15:22:30 | 52.61862 | 18.31510 | 72° | 38km/h | 14699m | -19.4m/s | 0°C | 0% | 0hPa | 0V | 00:00:00 | 00:00:00 | 00:00:00 | |
| SP3WXH-11 | 2026-08-30 15:22:26 | 52.61845 | 18.31433 | 66° | 42km/h | 14796m | -19.4m/s | 0°C | -1.0% | -1.0hPa | 0V | 00:00:00 | 00:00:00 | 00:00:00 | |
| KRY50SP | 2026-08-30 15:22:25 | 52.61845 | 18.31433 | 68° | 44km/h | 14796m | -19.4m/s | 0°C | 0% | 0hPa | 0V | 00:00:00 | 00:00:00 | 00:00:00 | |
| KRY50SP | 2026-08-30 15:22:19 | 52.61820 | 18.31332 | 77° | 44km/h | 14915m | -19.8m/s | 0°C | 0% | 0hPa | 0V | 00:00:00 | 00:00:00 | 00:00:00 | |
| KRY50SP-1 | 2026-08-30 15:22:13 | 52.61801 | 18.31212 | 68° | 51km/h | 15032m | -19.6m/s | 0°C | 0% | 0hPa | 0V | 00:00:00 | 00:00:00 | 00:00:00 | |
| SP3BTT-10 | 2026-08-30 15:22:12 | 52.61796 | 18.31192 | 64° | 42km/h | 15053m | -19.4m/s | 0°C | 0% | 0hPa | 0V | 00:00:00 | 00:00:00 | 00:00:00 | |
| KRY50SP-1 | 2026-08-30 15:22:08 | 52.61775 | 18.31121 | 66° | 46km/h | 15131m | -19.7m/s | 0°C | 0% | 0hPa | 0V | 00:00:00 | 00:00:00 | 00:00:00 | |
| KRY50SP | 2026-08-30 15:22:05 | 52.61760 | 18.31068 | 66° | 51km/h | 15191m | -19.8m/s | 0°C | 0% | 0hPa | 0V | 00:00:00 | 00:00:00 | 00:00:00 | |
| KRY50SP-1 | 2026-08-30 15:22:02 | 52.61742 | 18.31012 | 57° | 51km/h | 15253m | -20.1m/s | 0°C | 0% | 0hPa | 0V | 00:00:00 | 00:00:00 | 00:00:00 | |
| SP3WXH-11 | 2026-08-30 15:21:55 | 52.61668 | 18.30840 | 59° | 68km/h | 15435m | -20.2m/s | 0°C | -1.0% | -1.0hPa | 0V | 00:00:00 | 00:00:00 | 00:00:00 | |
| KRY50SP | 2026-08-30 15:21:53 | 52.61668 | 18.30840 | 60° | 69km/h | 15435m | -20.2m/s | 0°C | 0% | 0hPa | 0V | 00:00:00 | 00:00:00 | 00:00:00 | |
| KRY50SP-1 | 2026-08-30 15:21:49 | 52.61633 | 18.30745 | 61° | 64km/h | 15518m | -20.3m/s | 0°C | 0% | 0hPa | 0V | 00:00:00 | 00:00:00 | 00:00:00 | |
| KRY50SP-1 | 2026-08-30 15:21:40 | 52.61592 | 18.30551 | 84° | 53km/h | 15701m | -20.1m/s | 0°C | 0% | 0hPa | 0V | 00:00:00 | 00:00:00 | 00:00:00 | |
| KRY50SP | 2026-08-30 15:21:33 | 52.61584 | 18.30409 | 82° | 46km/h | 15846m | -20.6m/s | 0°C | 0% | 0hPa | 0V | 00:00:00 | 00:00:00 | 00:00:00 | |
| KRY50SP | 2026-08-30 15:21:25 | 52.61571 | 18.30276 | 88° | 35km/h | 16013m | -20.6m/s | 0°C | 0% | 0hPa | 0V | 00:00:00 | 00:00:00 | 00:00:00 | |
| SP3WXH-11 | 2026-08-30 15:21:24 | 52.61570 | 18.30216 | 95° | 38km/h | 16099m | -21.6m/s | 0°C | -1.0% | -1.0hPa | 0V | 00:00:00 | 00:00:00 | 00:00:00 | |
| KRY50SP-1 | 2026-08-30 15:21:21 | 52.61570 | 18.30216 | 97° | 38km/h | 16099m | -21.6m/s | 0°C | 0% | 0hPa | 0V | 00:00:00 | 00:00:00 | 00:00:00 | |
| KRY50SP | 2026-08-30 15:21:16 | 52.61578 | 18.30135 | 103° | 44km/h | 16205m | -20.3m/s | 0°C | 0% | 0hPa | 0V | 00:00:00 | 00:00:00 | 00:00:00 | |
| KRY50SP-1 | 2026-08-30 15:21:14 | 52.61583 | 18.30102 | 102° | 42km/h | 16247m | -21.0m/s | 0°C | 0% | 0hPa | 0V | 00:00:00 | 00:00:00 | 00:00:00 | |
| KRY50SP | 2026-08-30 15:21:10 | 52.61589 | 18.30039 | 92° | 35km/h | 16334m | -21.2m/s | 0°C | 0% | 0hPa | 0V | 00:00:00 | 00:00:00 | 00:00:00 | |
| KRY50SP-1 | 2026-08-30 15:21:09 | 52.61589 | 18.30026 | 89° | 31km/h | 16355m | -21.6m/s | 0°C | 0% | 0hPa | 0V | 00:00:00 | 00:00:00 | 00:00:00 | |
| KRY50SP | 2026-08-30 15:21:04 | 52.61587 | 18.29969 | 67° | 26km/h | 16467m | -21.1m/s | 0°C | 0% | 0hPa | 0V | 00:00:00 | 00:00:00 | 00:00:00 | |
| SP3WXH-11 | 2026-08-30 15:20:53 | 52.61538 | 18.29828 | 56° | 37km/h | 16752m | -21.7m/s | 0°C | -1.0% | -1.0hPa | 0V | 00:00:00 | 00:00:00 | 00:00:00 | |
| SP3BTT-10 | 2026-08-30 15:20:51 | 52.61538 | 18.29828 | 57° | 35km/h | 16752m | -21.7m/s | 0°C | 0% | 0hPa | 0V | 00:00:00 | 00:00:00 | 00:00:00 | |
| KRY50SP | 2026-08-30 15:20:32 | 52.61432 | 18.29626 | 34° | 33km/h | 17174m | -21.3m/s | 0°C | 0% | 0hPa | 0V | 00:00:00 | 00:00:00 | 00:00:00 | |
| KRY50SP-1 | 2026-08-30 15:20:28 | 52.61406 | 18.29598 | 39° | 29km/h | 17263m | -21.5m/s | 0°C | 0% | 0hPa | 0V | 00:00:00 | 00:00:00 | 00:00:00 | |
| KRY50SP | 2026-08-30 15:20:27 | 52.61400 | 18.29591 | 41° | 29km/h | 17285m | -22.2m/s | 0°C | 0% | 0hPa | 0V | 00:00:00 | 00:00:00 | 00:00:00 | |
| SP3WXH-11 | 2026-08-30 15:20:22 | 52.61365 | 18.29549 | 26° | 31km/h | 17421m | -21.1m/s | 0°C | -1.0% | -1.0hPa | 0V | 00:00:00 | 00:00:00 | 00:00:00 | |
| KRY50SP | 2026-08-30 15:20:21 | 52.61365 | 18.29549 | 28° | 31km/h | 17422m | -21.1m/s | 0°C | 0% | 0hPa | 0V | 00:00:00 | 00:00:00 | 00:00:00 | |
| KRY50SP | 2026-08-30 15:20:11 | 52.61299 | 18.29447 | 65° | 33km/h | 17650m | -21.9m/s | 0°C | 0% | 0hPa | 0V | 00:00:00 | 00:00:00 | 00:00:00 | |
| SP3BTT-10 | 2026-08-30 15:20:07 | 52.61286 | 18.29401 | 71° | 15km/h | 17740m | -22.7m/s | 0°C | 0% | 0hPa | 0V | 00:00:00 | 00:00:00 | 00:00:00 | |
| KRY50SP | 2026-08-30 15:20:05 | 52.61281 | 18.29380 | 65° | 24km/h | 17787m | -22.2m/s | 0°C | 0% | 0hPa | 0V | 00:00:00 | 00:00:00 | 00:00:00 | |
| SP3WXH-11 | 2026-08-30 15:19:51 | 52.61228 | 18.29262 | 73° | 31km/h | 18156m | -23.3m/s | 0°C | -1.0% | -1.0hPa | 0V | 00:00:00 | 00:00:00 | 00:00:00 | |
| KRY50SP-1 | 2026-08-30 15:19:49 | 52.61228 | 18.29262 | 75° | 33km/h | 18156m | -23.3m/s | 0°C | 0% | 0hPa | 0V | 00:00:00 | 00:00:00 | 00:00:00 | |
| KRY50SP-1 | 2026-08-30 15:19:31 | 52.61223 | 18.29121 | 126° | 5km/h | 18525m | 3.7m/s | 0°C | 0% | 0hPa | 0V | 00:00:00 | 00:00:00 | 00:00:00 | |
| KRY50SP | 2026-08-30 15:19:25 | 52.61226 | 18.29104 | 85° | 7km/h | 18505m | 2.9m/s | 0°C | 0% | 0hPa | 0V | 00:00:00 | 00:00:00 | 00:00:00 | |
| SP6BVK | 2026-08-30 15:19:21 | 52.61227 | 18.29087 | 95° | 9km/h | 18491m | 3.7m/s | 0°C | 0% | 0hPa | 0V | 00:00:00 | 00:00:00 | 00:00:00 | |
| SP3WXH-11 | 2026-08-30 15:19:20 | 52.61227 | 18.29073 | 94° | 15km/h | 18484m | 3.1m/s | 0°C | -1.0% | -1.0hPa | 0V | 00:00:00 | 00:00:00 | 00:00:00 | |
| SP3BTT-10 | 2026-08-30 15:19:17 | 52.61227 | 18.29065 | 80° | 20km/h | 18478m | 3.6m/s | 0°C | 0% | 0hPa | 0V | 00:00:00 | 00:00:00 | 00:00:00 | |
| KRY50SP | 2026-08-30 15:19:11 | 52.61230 | 18.29026 | 99° | 22km/h | 18458m | 2.4m/s | 0°C | 0% | 0hPa | 0V | 00:00:00 | 00:00:00 | 00:00:00 | |
| KRY50SP | 2026-08-30 15:19:05 | 52.61234 | 18.28991 | 86° | 5km/h | 18438m | 2.2m/s | 0°C | 0% | 0hPa | 0V | 00:00:00 | 00:00:00 | 00:00:00 | |
| SP6BVK | 2026-08-30 15:19:01 | 52.61236 | 18.28964 | 89° | 13km/h | 18425m | 2.8m/s | 0°C | 0% | 0hPa | 0V | 00:00:00 | 00:00:00 | 00:00:00 | |
| SP3WXH-11 | 2026-08-30 15:18:49 | 52.61251 | 18.28831 | 95° | 15km/h | 18371m | 2.8m/s | 0°C | -1.0% | -1.0hPa | 0V | 00:00:00 | 00:00:00 | 00:00:00 | |
| KRY50SP | 2026-08-30 15:18:45 | 52.61251 | 18.28831 | 97° | 15km/h | 18371m | 2.8m/s | 0°C | 0% | 0hPa | 0V | 00:00:00 | 00:00:00 | 00:00:00 | |
| KRY50SP-1 | 2026-08-30 15:18:41 | 52.61253 | 18.28778 | 101° | 26km/h | 18352m | 2.2m/s | 0°C | 0% | 0hPa | 0V | 00:00:00 | 00:00:00 | 00:00:00 | |
| KRY50SP | 2026-08-30 15:18:39 | 52.61253 | 18.28778 | 101° | 26km/h | 18352m | 2.2m/s | 0°C | 0% | 0hPa | 0V | 00:00:00 | 00:00:00 | 00:00:00 | |
| KRY50SP | 2026-08-30 15:18:33 | 52.61252 | 18.28725 | 86° | 22km/h | 18331m | 3.3m/s | 0°C | 0% | 0hPa | 0V | 00:00:00 | 00:00:00 | 00:00:00 | |
| KRY50SP | 2026-08-30 15:18:27 | 52.61254 | 18.28659 | 97° | 33km/h | 18315m | 2.4m/s | 0°C | 0% | 0hPa | 0V | 00:00:00 | 00:00:00 | 00:00:00 | |
| SP3BTT-10 | 2026-08-30 15:18:20 | 52.61247 | 18.28578 | 92° | 29km/h | 18293m | 3.1m/s | 0°C | 0% | 0hPa | 0V | 00:00:00 | 00:00:00 | 00:00:00 | |
| SP3WXH-11 | 2026-08-30 15:18:18 | 52.61234 | 18.28490 | 69° | 29km/h | 18270m | 2.8m/s | 0°C | -1.0% | -1.0hPa | 0V | 00:00:00 | 00:00:00 | 00:00:00 | |
| KRY50SP-1 | 2026-08-30 15:18:13 | 52.61234 | 18.28490 | 70° | 29km/h | 18271m | 2.8m/s | 0°C | 0% | 0hPa | 0V | 00:00:00 | 00:00:00 | 00:00:00 | |
| KRY50SP-1 | 2026-08-30 15:18:04 | 52.61219 | 18.28380 | 89° | 27km/h | 18242m | 3.1m/s | 0°C | 0% | 0hPa | 0V | 00:00:00 | 00:00:00 | 00:00:00 | |
| KRY50SP | 2026-08-30 15:18:02 | 52.61217 | 18.28358 | 58° | 27km/h | 18236m | 3.6m/s | 0°C | 0% | 0hPa | 0V | 00:00:00 | 00:00:00 | 00:00:00 | |
| SP3WXH-11 | 2026-08-30 15:17:47 | 52.61175 | 18.28191 | 37° | 26km/h | 18186m | 3.3m/s | 0°C | -1.0% | -1.0hPa | 0V | 00:00:00 | 00:00:00 | 00:00:00 | |
| KRY50SP | 2026-08-30 15:17:46 | 52.61175 | 18.28190 | 38° | 26km/h | 18187m | 3.3m/s | 0°C | 0% | 0hPa | 0V | 00:00:00 | 00:00:00 | 00:00:00 | |
| SP3BTT-10 | 2026-08-30 15:17:45 | 52.61170 | 18.28183 | 54° | 22km/h | 18183m | 3.5m/s | 0°C | 0% | 0hPa | 0V | 00:00:00 | 00:00:00 | 00:00:00 | |
| KRY50SP | 2026-08-30 15:17:41 | 52.61157 | 18.28145 | 58° | 22km/h | 18171m | 4.0m/s | 0°C | 0% | 0hPa | 0V | 00:00:00 | 00:00:00 | 00:00:00 | |
| SP6BVK | 2026-08-30 15:17:38 | 52.61148 | 18.28117 | 35° | 27km/h | 18163m | 3.6m/s | 0°C | 0% | 0hPa | 0V | 00:00:00 | 00:00:00 | 00:00:00 | |
| KRY50SP | 2026-08-30 15:17:33 | 52.61128 | 18.28079 | 30° | 24km/h | 18144m | 2.6m/s | 0°C | 0% | 0hPa | 0V | 00:00:00 | 00:00:00 | 00:00:00 | |
| KRY50SP-1 | 2026-08-30 15:17:25 | 52.61094 | 18.28027 | 31° | 24km/h | 18117m | 3.0m/s | 0°C | 0% | 0hPa | 0V | 00:00:00 | 00:00:00 | 00:00:00 | |
| KRY50SP-1 | 2026-08-30 15:17:20 | 52.61074 | 18.28002 | 21° | 18km/h | 18102m | 4.7m/s | 0°C | 0% | 0hPa | 0V | 00:00:00 | 00:00:00 | 00:00:00 | |
| SP3WXH-11 | 2026-08-30 15:17:16 | 52.61051 | 18.27989 | 16° | 22km/h | 18082m | 3.6m/s | 0°C | -1.0% | -1.0hPa | 0V | 00:00:00 | 00:00:00 | 00:00:00 | |
| KRY50SP-1 | 2026-08-30 15:17:14 | 52.61051 | 18.27990 | 18° | 24km/h | 18082m | 3.7m/s | 0°C | 0% | 0hPa | 0V | 00:00:00 | 00:00:00 | 00:00:00 | |
| SP6BVK | 2026-08-30 15:17:13 | 52.61045 | 18.27986 | 22° | 27km/h | 18079m | 2.6m/s | 0°C | 0% | 0hPa | 0V | 00:00:00 | 00:00:00 | 00:00:00 | |
| KRY50SP-1 | 2026-08-30 15:17:09 | 52.61030 | 18.27972 | 33° | 22km/h | 18067m | 2.4m/s | 0°C | 0% | 0hPa | 0V | 00:00:00 | 00:00:00 | 00:00:00 | |
| KRY50SP | 2026-08-30 15:17:03 | 52.61010 | 18.27942 | 50° | 11km/h | 18049m | 2.6m/s | 0°C | 0% | 0hPa | 0V | 00:00:00 | 00:00:00 | 00:00:00 | |
| SP3WXH-11 | 2026-08-30 15:16:45 | 52.60945 | 18.27813 | 42° | 29km/h | 17983m | 3.2m/s | 0°C | -1.0% | -1.0hPa | 0V | 00:00:00 | 00:00:00 | 00:00:00 | |
| KRY50SP | 2026-08-30 15:16:38 | 52.60934 | 18.27779 | 51° | 31km/h | 17971m | 3.6m/s | 0°C | 0% | 0hPa | 0V | 00:00:00 | 00:00:00 | 00:00:00 | |
| SP6BVK | 2026-08-30 15:16:30 | 52.60910 | 18.27707 | 69° | 31km/h | 17944m | 2.9m/s | 0°C | 0% | 0hPa | 0V | 00:00:00 | 00:00:00 | 00:00:00 | |
| KRY50SP | 2026-08-30 15:16:26 | 52.60900 | 18.27669 | 69° | 35km/h | 17932m | 3.5m/s | 0°C | 0% | 0hPa | 0V | 00:00:00 | 00:00:00 | 00:00:00 | |
| SP3BTT-10 | 2026-08-30 15:16:21 | 52.60888 | 18.27620 | 67° | 27km/h | 17914m | 3.7m/s | 0°C | 0% | 0hPa | 0V | 00:00:00 | 00:00:00 | 00:00:00 | |
| KRY50SP-1 | 2026-08-30 15:16:16 | 52.60875 | 18.27573 | 68° | 13km/h | 17899m | 3.0m/s | 0°C | 0% | 0hPa | 0V | 00:00:00 | 00:00:00 | 00:00:00 | |
| SP3WXH-11 | 2026-08-30 15:16:14 | 52.60856 | 18.27517 | 60° | 35km/h | 17881m | 2.7m/s | 0°C | -1.0% | -1.0hPa | 0V | 00:00:00 | 00:00:00 | 00:00:00 | |
| KRY50SP | 2026-08-30 15:16:10 | 52.60855 | 18.27517 | 62° | 37km/h | 17881m | 2.7m/s | 0°C | 0% | 0hPa | 0V | 00:00:00 | 00:00:00 | 00:00:00 | |
| KRY50SP-1 | 2026-08-30 15:16:00 | 52.60821 | 18.27413 | 45° | 29km/h | 17850m | 3.2m/s | 0°C | 0% | 0hPa | 0V | 00:00:00 | 00:00:00 | 00:00:00 | |
| KRY50SP | 2026-08-30 15:15:57 | 52.60811 | 18.27377 | 69° | 37km/h | 17841m | 3.2m/s | 0°C | 0% | 0hPa | 0V | 00:00:00 | 00:00:00 | 00:00:00 | |
| KRY50SP | 2026-08-30 15:15:52 | 52.60789 | 18.27320 | 45° | 27km/h | 17823m | 3.4m/s | 0°C | 0% | 0hPa | 0V | 00:00:00 | 00:00:00 | 00:00:00 | |
| KRY50SP | 2026-08-30 15:15:44 | 52.60761 | 18.27232 | 39° | 29km/h | 17805m | 2.5m/s | 0°C | 0% | 0hPa | 0V | 00:00:00 | 00:00:00 | 00:00:00 | |
| SP3WXH-11 | 2026-08-30 15:15:43 | 52.60751 | 18.27195 | 63° | 20km/h | 17799m | 2.8m/s | 0°C | -1.0% | -1.0hPa | 0V | 00:00:00 | 00:00:00 | 00:00:00 | |
| KRY50SP | 2026-08-30 15:15:39 | 52.60742 | 18.27181 | 71° | 31km/h | 17795m | 5.2m/s | 0°C | 0% | 0hPa | 0V | 00:00:00 | 00:00:00 | 00:00:00 | |
| KRY50SP | 2026-08-30 15:15:32 | 52.60712 | 18.27094 | 53° | 37km/h | 17757m | 10.8m/s | 0°C | 0% | 0hPa | 0V | 00:00:00 | 00:00:00 | 00:00:00 | |
| SP3BTT-10 | 2026-08-30 15:15:27 | 52.60691 | 18.27040 | 38° | 37km/h | 17737m | 2.6m/s | 0°C | 0% | 0hPa | 0V | 00:00:00 | 00:00:00 | 00:00:00 | |
| KRY50SP | 2026-08-30 15:15:25 | 52.60683 | 18.27015 | 74° | 37km/h | 17731m | 2.0m/s | 0°C | 0% | 0hPa | 0V | 00:00:00 | 00:00:00 | 00:00:00 | |
| SP6BVK | 2026-08-30 15:15:22 | 52.60669 | 18.26984 | 75° | 35km/h | 17722m | 3.6m/s | 0°C | 0% | 0hPa | 0V | 00:00:00 | 00:00:00 | 00:00:00 | |
| KRY50SP | 2026-08-30 15:15:18 | 52.60650 | 18.26939 | 72° | 33km/h | 17708m | 2.9m/s | 0°C | 0% | 0hPa | 0V | 00:00:00 | 00:00:00 | 00:00:00 | |
| KRY50SP-1 | 2026-08-30 15:15:14 | 52.60627 | 18.26882 | 56° | 33km/h | 17692m | 4.4m/s | 0°C | 0% | 0hPa | 0V | 00:00:00 | 00:00:00 | 00:00:00 | |
| KRY50SP | 2026-08-30 15:15:13 | 52.60627 | 18.26882 | 56° | 33km/h | 17692m | 4.4m/s | 0°C | 0% | 0hPa | 0V | 00:00:00 | 00:00:00 | 00:00:00 | |
| SP3WXH-11 | 2026-08-30 15:15:12 | 52.60611 | 18.26846 | 80° | 29km/h | 17682m | 3.4m/s | 0°C | -1.0% | -1.0hPa | 0V | 00:00:00 | 00:00:00 | 00:00:00 | |
| KRY50SP | 2026-08-30 15:15:07 | 52.60596 | 18.26810 | 61° | 29km/h | 17670m | 3.3m/s | 0°C | 0% | 0hPa | 0V | 00:00:00 | 00:00:00 | 00:00:00 | |
| KRY50SP | 2026-08-30 15:15:02 | 52.60566 | 18.26741 | 47° | 38km/h | 17652m | 4.2m/s | 0°C | 0% | 0hPa | 0V | 00:00:00 | 00:00:00 | 00:00:00 | |
| SP6BVK | 2026-08-30 15:15:01 | 52.60566 | 18.26741 | 47° | 38km/h | 17652m | 4.2m/s | 0°C | 0% | 0hPa | 0V | 00:00:00 | 00:00:00 | 00:00:00 | |
| KRY50SP | 2026-08-30 15:14:53 | 52.60523 | 18.26652 | 53° | 35km/h | 17624m | 3.8m/s | 0°C | 0% | 0hPa | 0V | 00:00:00 | 00:00:00 | 00:00:00 | |
| KRY50SP-1 | 2026-08-30 15:14:45 | 52.60473 | 18.26560 | 43° | 44km/h | 17595m | 3.7m/s | 0°C | 0% | 0hPa | 0V | 00:00:00 | 00:00:00 | 00:00:00 | |
| SP3BTT-10 | 2026-08-30 15:14:42 | 52.60455 | 18.26526 | 58° | 37km/h | 17585m | 2.9m/s | 0°C | 0% | 0hPa | 0V | 00:00:00 | 00:00:00 | 00:00:00 | |
| SP3WXH-11 | 2026-08-30 15:14:41 | 52.60435 | 18.26495 | 56° | 24km/h | 17576m | 3.8m/s | 0°C | -1.0% | -1.0hPa | 0V | 00:00:00 | 00:00:00 | 00:00:00 | |
| KRY50SP-1 | 2026-08-30 15:14:39 | 52.60435 | 18.26495 | 58° | 24km/h | 17577m | 3.8m/s | 0°C | 0% | 0hPa | 0V | 00:00:00 | 00:00:00 | 00:00:00 | |
| SP6BVK | 2026-08-30 15:14:37 | 52.60423 | 18.26474 | 41° | 46km/h | 17569m | 3.1m/s | 0°C | 0% | 0hPa | 0V | 00:00:00 | 00:00:00 | 00:00:00 | |
| KRY50SP | 2026-08-30 15:14:34 | 52.60406 | 18.26442 | 44° | 38km/h | 17559m | 4.3m/s | 0°C | 0% | 0hPa | 0V | 00:00:00 | 00:00:00 | 00:00:00 | |
| KRY50SP | 2026-08-30 15:14:27 | 52.60361 | 18.26369 | 43° | 22km/h | 17534m | 3.3m/s | 0°C | 0% | 0hPa | 0V | 00:00:00 | 00:00:00 | 00:00:00 | |
| KRY50SP-1 | 2026-08-30 15:14:21 | 52.60321 | 18.26314 | 39° | 44km/h | 17511m | 2.5m/s | 0°C | 0% | 0hPa | 0V | 00:00:00 | 00:00:00 | 00:00:00 | |
| SP6BVK | 2026-08-30 15:14:14 | 52.60275 | 18.26256 | 35° | 38km/h | 17487m | 3.0m/s | 0°C | 0% | 0hPa | 0V | 00:00:00 | 00:00:00 | 00:00:00 | |
| SP3WXH-11 | 2026-08-30 15:14:10 | 52.60224 | 18.26191 | 57° | 27km/h | 17464m | 2.5m/s | 0°C | -1.0% | -1.0hPa | 0V | 00:00:00 | 00:00:00 | 00:00:00 | |
| KRY50SP | 2026-08-30 15:14:04 | 52.60203 | 18.26164 | 44° | 31km/h | 17455m | 3.8m/s | 0°C | 0% | 0hPa | 0V | 00:00:00 | 00:00:00 | 00:00:00 | |
| SP3BTT-10 | 2026-08-30 15:13:58 | 52.60163 | 18.26113 | 35° | 33km/h | 17436m | 4.3m/s | 0°C | 0% | 0hPa | 0V | 00:00:00 | 00:00:00 | 00:00:00 | |
| KRY50SP | 2026-08-30 15:13:57 | 52.60155 | 18.26106 | 26° | 40km/h | 17433m | 2.3m/s | 0°C | 0% | 0hPa | 0V | 00:00:00 | 00:00:00 | 00:00:00 | |
| SP6BVK | 2026-08-30 15:13:54 | 52.60136 | 18.26082 | 29° | 33km/h | 17424m | 3.8m/s | 0°C | 0% | 0hPa | 0V | 00:00:00 | 00:00:00 | 00:00:00 | |
| KRY50SP | 2026-08-30 15:13:50 | 52.60107 | 18.26049 | 30° | 35km/h | 17408m | 4.2m/s | 0°C | 0% | 0hPa | 0V | 00:00:00 | 00:00:00 | 00:00:00 | |
| KRY50SP | 2026-08-30 15:13:44 | 52.60065 | 18.26003 | 44° | 26km/h | 17388m | 2.5m/s | 0°C | 0% | 0hPa | 0V | 00:00:00 | 00:00:00 | 00:00:00 | |
| SP3WXH-11 | 2026-08-30 15:13:39 | 52.60026 | 18.25954 | 32° | 33km/h | 17369m | 3.8m/s | 0°C | -1.0% | -1.0hPa | 0V | 00:00:00 | 00:00:00 | 00:00:00 | |
| KRY50SP | 2026-08-30 15:13:38 | 52.60026 | 18.25954 | 34° | 33km/h | 17369m | 3.8m/s | 0°C | 0% | 0hPa | 0V | 00:00:00 | 00:00:00 | 00:00:00 | |
| SP6BVK | 2026-08-30 15:13:33 | 52.59991 | 18.25921 | 19° | 38km/h | 17352m | 3.1m/s | 0°C | 0% | 0hPa | 0V | 00:00:00 | 00:00:00 | 00:00:00 | |
| KRY50SP | 2026-08-30 15:13:31 | 52.59978 | 18.25910 | 45° | 26km/h | 17346m | 3.4m/s | 0°C | 0% | 0hPa | 0V | 00:00:00 | 00:00:00 | 00:00:00 | |
| KRY50SP-1 | 2026-08-30 15:13:27 | 52.59951 | 18.25882 | 35° | 20km/h | 17333m | 3.9m/s | 0°C | 0% | 0hPa | 0V | 00:00:00 | 00:00:00 | 00:00:00 | |
| KRY50SP | 2026-08-30 15:13:25 | 52.59938 | 18.25869 | 28° | 42km/h | 17326m | 3.8m/s | 0°C | 0% | 0hPa | 0V | 00:00:00 | 00:00:00 | 00:00:00 | |
| KRY50SP-1 | 2026-08-30 15:13:21 | 52.59912 | 18.25846 | 28° | 38km/h | 17312m | 2.6m/s | 0°C | 0% | 0hPa | 0V | 00:00:00 | 00:00:00 | 00:00:00 | |
| KRY50SP | 2026-08-30 15:13:20 | 52.59904 | 18.25839 | 28° | 31km/h | 17309m | 3.8m/s | 0°C | 0% | 0hPa | 0V | 00:00:00 | 00:00:00 | 00:00:00 | |
| KRY50SP | 2026-08-30 15:13:15 | 52.59873 | 18.25812 | 29° | 20km/h | 17292m | 3.0m/s | 0°C | 0% | 0hPa | 0V | 00:00:00 | 00:00:00 | 00:00:00 | |
| SP3BTT-10 | 2026-08-30 15:13:13 | 52.59860 | 18.25799 | 31° | 33km/h | 17286m | 3.4m/s | 0°C | 0% | 0hPa | 0V | 00:00:00 | 00:00:00 | 00:00:00 | |
| KRY50SP | 2026-08-30 15:13:09 | 52.59834 | 18.25779 | 30° | 38km/h | 17271m | 3.0m/s | 0°C | 0% | 0hPa | 0V | 00:00:00 | 00:00:00 | 00:00:00 | |
| SP3WXH-11 | 2026-08-30 15:13:08 | 52.59816 | 18.25764 | 17° | 33km/h | 17261m | 5.0m/s | 0°C | -1.0% | -1.0hPa | 0V | 00:00:00 | 00:00:00 | 00:00:00 | |
| KRY50SP-1 | 2026-08-30 15:13:03 | 52.59797 | 18.25753 | 15° | 18km/h | 17250m | 2.9m/s | 0°C | 0% | 0hPa | 0V | 00:00:00 | 00:00:00 | 00:00:00 | |
| KRY50SP | 2026-08-30 15:12:57 | 52.59756 | 18.25726 | 35° | 37km/h | 17229m | 4.2m/s | 0°C | 0% | 0hPa | 0V | 00:00:00 | 00:00:00 | 00:00:00 | |
| KRY50SP | 2026-08-30 15:12:50 | 52.59713 | 18.25674 | 48° | 22km/h | 17202m | 2.1m/s | 0°C | 0% | 0hPa | 0V | 00:00:00 | 00:00:00 | 00:00:00 | |
| KRY50SP-1 | 2026-08-30 15:12:43 | 52.59669 | 18.25618 | 44° | 33km/h | 17176m | 3.5m/s | 0°C | 0% | 0hPa | 0V | 00:00:00 | 00:00:00 | 00:00:00 | |
| KRY50SP | 2026-08-30 15:12:41 | 52.59660 | 18.25599 | 33° | 33km/h | 17169m | 5.0m/s | 0°C | 0% | 0hPa | 0V | 00:00:00 | 00:00:00 | 00:00:00 | |
| SP3WXH-11 | 2026-08-30 15:12:37 | 52.59629 | 18.25562 | 34° | 29km/h | 17151m | 2.9m/s | 0°C | -1.0% | -1.0hPa | 0V | 00:00:00 | 00:00:00 | 00:00:00 | |
| KRY50SP | 2026-08-30 15:12:35 | 52.59623 | 18.25553 | 49° | 29km/h | 17148m | 3.0m/s | 0°C | 0% | 0hPa | 0V | 00:00:00 | 00:00:00 | 00:00:00 | |
| KRY50SP-1 | 2026-08-30 15:12:31 | 52.59598 | 18.25516 | 61° | 26km/h | 17135m | 3.9m/s | 0°C | 0% | 0hPa | 0V | 00:00:00 | 00:00:00 | 00:00:00 | |
| SP6BVK | 2026-08-30 15:12:29 | 52.59586 | 18.25497 | 37° | 42km/h | 17127m | 2.4m/s | 0°C | 0% | 0hPa | 0V | 00:00:00 | 00:00:00 | 00:00:00 | |
| KRY50SP-1 | 2026-08-30 15:12:24 | 52.59558 | 18.25453 | 32° | 37km/h | 17114m | 2.2m/s | 0°C | 0% | 0hPa | 0V | 00:00:00 | 00:00:00 | 00:00:00 | |
| KRY50SP | 2026-08-30 15:12:22 | 52.59547 | 18.25431 | 59° | 35km/h | 17108m | 2.4m/s | 0°C | 0% | 0hPa | 0V | 00:00:00 | 00:00:00 | 00:00:00 | |
| SP3BTT-10 | 2026-08-30 15:12:20 | 52.59537 | 18.25412 | 35° | 37km/h | 17102m | 2.7m/s | 0°C | 0% | 0hPa | 0V | 00:00:00 | 00:00:00 | 00:00:00 | |
| KRY50SP-1 | 2026-08-30 15:12:19 | 52.59532 | 18.25405 | 41° | 27km/h | 17099m | 2.3m/s | 0°C | 0% | 0hPa | 0V | 00:00:00 | 00:00:00 | 00:00:00 | |
| KRY50SP | 2026-08-30 15:12:17 | 52.59521 | 18.25382 | 54° | 33km/h | 17092m | 2.8m/s | 0°C | 0% | 0hPa | 0V | 00:00:00 | 00:00:00 | 00:00:00 | |
| KRY50SP-1 | 2026-08-30 15:12:12 | 52.59494 | 18.25334 | 39° | 29km/h | 17075m | 2.4m/s | 0°C | 0% | 0hPa | 0V | 00:00:00 | 00:00:00 | 00:00:00 | |
| SP6BVK | 2026-08-30 15:12:08 | 52.59473 | 18.25287 | 32° | 27km/h | 17064m | 2.3m/s | 0°C | 0% | 0hPa | 0V | 00:00:00 | 00:00:00 | 00:00:00 | |
| SP3WXH-11 | 2026-08-30 15:12:06 | 52.59458 | 18.25252 | 43° | 31km/h | 17054m | 4.1m/s | 0°C | -1.0% | -1.0hPa | 0V | 00:00:00 | 00:00:00 | 00:00:00 | |
| KRY50SP-1 | 2026-08-30 15:12:00 | 52.59429 | 18.25192 | 47° | 35km/h | 17039m | 2.5m/s | 0°C | 0% | 0hPa | 0V | 00:00:00 | 00:00:00 | 00:00:00 | |
| KRY50SP-1 | 2026-08-30 15:11:55 | 52.59403 | 18.25131 | 63° | 38km/h | 17024m | 4.0m/s | 0°C | 0% | 0hPa | 0V | 00:00:00 | 00:00:00 | 00:00:00 | |
| KRY50SP | 2026-08-30 15:11:50 | 52.59378 | 18.25063 | 63° | 37km/h | 17008m | 2.7m/s | 0°C | 0% | 0hPa | 0V | 00:00:00 | 00:00:00 | 00:00:00 | |
| SP6BVK | 2026-08-30 15:11:47 | 52.59362 | 18.25024 | 75° | 37km/h | 16999m | 1.9m/s | 0°C | 0% | 0hPa | 0V | 00:00:00 | 00:00:00 | 00:00:00 | |
| KRY50SP | 2026-08-30 15:11:43 | 52.59341 | 18.24969 | 79° | 44km/h | 16987m | 2.4m/s | 0°C | 0% | 0hPa | 0V | 00:00:00 | 00:00:00 | 00:00:00 | |
| SP3BTT-10 | 2026-08-30 15:11:42 | 52.59337 | 18.24952 | 58° | 40km/h | 16983m | 4.1m/s | 0°C | 0% | 0hPa | 0V | 00:00:00 | 00:00:00 | 00:00:00 | |
| KRY50SP-1 | 2026-08-30 15:11:37 | 52.59310 | 18.24874 | 57° | 46km/h | 16967m | 2.0m/s | 0°C | 0% | 0hPa | 0V | 00:00:00 | 00:00:00 | 00:00:00 | |
| SP3WXH-11 | 2026-08-30 15:11:35 | 52.59297 | 18.24827 | 51° | 47km/h | 16958m | 3.6m/s | 0°C | -1.0% | -1.0hPa | 0V | 00:00:00 | 00:00:00 | 00:00:00 | |
| KRY50SP | 2026-08-30 15:11:31 | 52.59283 | 18.24781 | 65° | 38km/h | 16949m | 3.1m/s | 0°C | 0% | 0hPa | 0V | 00:00:00 | 00:00:00 | 00:00:00 | |
| KRY50SP | 2026-08-30 15:11:26 | 52.59256 | 18.24702 | 50° | 49km/h | 16934m | 2.1m/s | 0°C | 0% | 0hPa | 0V | 00:00:00 | 00:00:00 | 00:00:00 | |
| KRY50SP | 2026-08-30 15:11:14 | 52.59192 | 18.24520 | 53° | 42km/h | 16899m | 2.5m/s | 0°C | 0% | 0hPa | 0V | 00:00:00 | 00:00:00 | 00:00:00 | |
| KRY50SP-1 | 2026-08-30 15:11:09 | 52.59167 | 18.24450 | 72° | 33km/h | 16883m | 3.0m/s | 0°C | 0% | 0hPa | 0V | 00:00:00 | 00:00:00 | 00:00:00 | |
| SP3BTT-10 | 2026-08-30 15:11:05 | 52.59147 | 18.24392 | 66° | 35km/h | 16873m | 3.1m/s | 0°C | 0% | 0hPa | 0V | 00:00:00 | 00:00:00 | 00:00:00 | |
| KRY50SP | 2026-08-30 15:11:03 | 52.59139 | 18.24364 | 61° | 49km/h | 16867m | 3.3m/s | 0°C | 0% | 0hPa | 0V | 00:00:00 | 00:00:00 | 00:00:00 | |
| KRY50SP-1 | 2026-08-30 15:11:01 | 52.59128 | 18.24334 | 69° | 35km/h | 16861m | 3.0m/s | 0°C | 0% | 0hPa | 0V | 00:00:00 | 00:00:00 | 00:00:00 | |
| KRY50SP | 2026-08-30 15:10:57 | 52.59108 | 18.24276 | 67° | 27km/h | 16848m | 3.2m/s | 0°C | 0% | 0hPa | 0V | 00:00:00 | 00:00:00 | 00:00:00 | |
| KRY50SP-1 | 2026-08-30 15:10:53 | 52.59088 | 18.24217 | 66° | 33km/h | 16833m | 2.3m/s | 0°C | 0% | 0hPa | 0V | 00:00:00 | 00:00:00 | 00:00:00 | |
| KRY50SP | 2026-08-30 15:10:49 | 52.59067 | 18.24158 | 64° | 33km/h | 16820m | 2.0m/s | 0°C | 0% | 0hPa | 0V | 00:00:00 | 00:00:00 | 00:00:00 | |
| KRY50SP | 2026-08-30 15:10:44 | 52.59041 | 18.24080 | 60° | 49km/h | 16804m | 2.9m/s | 0°C | 0% | 0hPa | 0V | 00:00:00 | 00:00:00 | 00:00:00 | |
| KRY50SP-1 | 2026-08-30 15:10:39 | 52.59016 | 18.24001 | 62° | 53km/h | 16790m | 3.4m/s | 0°C | 0% | 0hPa | 0V | 00:00:00 | 00:00:00 | 00:00:00 | |
| SP6BVK | 2026-08-30 15:10:37 | 52.59005 | 18.23968 | 66° | 35km/h | 16783m | 3.0m/s | 0°C | 0% | 0hPa | 0V | 00:00:00 | 00:00:00 | 00:00:00 | |
| KRY50SP | 2026-08-30 15:10:32 | 52.58978 | 18.23894 | 64° | 33km/h | 16767m | 3.3m/s | 0°C | 0% | 0hPa | 0V | 00:00:00 | 00:00:00 | 00:00:00 | |
| KRY50SP | 2026-08-30 15:10:26 | 52.58945 | 18.23805 | 56° | 44km/h | 16744m | 2.6m/s | 0°C | 0% | 0hPa | 0V | 00:00:00 | 00:00:00 | 00:00:00 | |
| KRY50SP | 2026-08-30 15:10:21 | 52.58922 | 18.23737 | 76° | 27km/h | 16730m | 3.3m/s | 0°C | 0% | 0hPa | 0V | 00:00:00 | 00:00:00 | 00:00:00 | |
| SP3BTT-10 | 2026-08-30 15:10:15 | 52.58891 | 18.23661 | 59° | 31km/h | 16707m | 2.0m/s | 0°C | 0% | 0hPa | 0V | 00:00:00 | 00:00:00 | 00:00:00 | |
| KRY50SP | 2026-08-30 15:10:09 | 52.58865 | 18.23590 | 62° | 29km/h | 16687m | 2.5m/s | 0°C | 0% | 0hPa | 0V | 00:00:00 | 00:00:00 | 00:00:00 | |
| KRY50SP-1 | 2026-08-30 15:10:01 | 52.58834 | 18.23496 | 65° | 27km/h | 16665m | 2.8m/s | 0°C | 0% | 0hPa | 0V | 00:00:00 | 00:00:00 | 00:00:00 | |
| SP6BVK | 2026-08-30 15:09:54 | 52.58803 | 18.23421 | 79° | 35km/h | 16642m | 1.7m/s | 0°C | 0% | 0hPa | 0V | 00:00:00 | 00:00:00 | 00:00:00 | |
| KRY50SP-1 | 2026-08-30 15:09:53 | 52.58801 | 18.23408 | 67° | 29km/h | 16640m | 1.9m/s | 0°C | 0% | 0hPa | 0V | 00:00:00 | 00:00:00 | 00:00:00 | |
| KRY50SP | 2026-08-30 15:09:46 | 52.58773 | 18.23341 | 72° | 33km/h | 16615m | 3.3m/s | 0°C | 0% | 0hPa | 0V | 00:00:00 | 00:00:00 | 00:00:00 | |
| KRY50SP-1 | 2026-08-30 15:09:45 | 52.58770 | 18.23329 | 62° | 35km/h | 16611m | 3.4m/s | 0°C | 0% | 0hPa | 0V | 00:00:00 | 00:00:00 | 00:00:00 | |
| KRY50SP-1 | 2026-08-30 15:09:40 | 52.58751 | 18.23276 | 55° | 35km/h | 16597m | 3.1m/s | 0°C | 0% | 0hPa | 0V | 00:00:00 | 00:00:00 | 00:00:00 | |
| SP6BVK | 2026-08-30 15:09:34 | 52.58730 | 18.23216 | 66° | 20km/h | 16576m | 2.4m/s | 0°C | 0% | 0hPa | 0V | 00:00:00 | 00:00:00 | 00:00:00 | |
| SP3BTT-10 | 2026-08-30 15:09:30 | 52.58719 | 18.23175 | 56° | 27km/h | 16563m | 1.3m/s | 0°C | 0% | 0hPa | 0V | 00:00:00 | 00:00:00 | 00:00:00 | |
| KRY50SP | 2026-08-30 15:09:26 | 52.58710 | 18.23132 | 66° | 27km/h | 16550m | 3.5m/s | 0°C | 0% | 0hPa | 0V | 00:00:00 | 00:00:00 | 00:00:00 | |
| KRY50SP-1 | 2026-08-30 15:09:19 | 52.58699 | 18.23056 | 62° | 20km/h | 16529m | 3.0m/s | 0°C | 0% | 0hPa | 0V | 00:00:00 | 00:00:00 | 00:00:00 | |
| KRY50SP | 2026-08-30 15:09:13 | 52.58693 | 18.22993 | 97° | 37km/h | 16510m | 2.1m/s | 0°C | 0% | 0hPa | 0V | 00:00:00 | 00:00:00 | 00:00:00 | |
| SP6BVK | 2026-08-30 15:09:11 | 52.58690 | 18.22973 | 56° | 22km/h | 16503m | 2.0m/s | 0°C | 0% | 0hPa | 0V | 00:00:00 | 00:00:00 | 00:00:00 | |
| KRY50SP | 2026-08-30 15:09:07 | 52.58684 | 18.22934 | 65° | 20km/h | 16489m | 3.0m/s | 0°C | 0% | 0hPa | 0V | 00:00:00 | 00:00:00 | 00:00:00 | |
| KRY50SP-1 | 2026-08-30 15:09:06 | 52.58684 | 18.22924 | 96° | 33km/h | 16485m | 3.7m/s | 0°C | 0% | 0hPa | 0V | 00:00:00 | 00:00:00 | 00:00:00 | |
| KRY50SP | 2026-08-30 15:09:01 | 52.58678 | 18.22874 | 65° | 22km/h | 16467m | 3.8m/s | 0°C | 0% | 0hPa | 0V | 00:00:00 | 00:00:00 | 00:00:00 | |
| SP3WXH-11 | 2026-08-30 15:08:59 | 52.58676 | 18.22854 | 96° | 29km/h | 16461m | 3.4m/s | 0°C | -1.0% | -1.0hPa | 0V | 00:00:00 | 00:00:00 | 00:00:00 | |
| KRY50SP | 2026-08-30 15:08:55 | 52.58675 | 18.22814 | 91° | 27km/h | 16448m | 5.4m/s | 0°C | 0% | 0hPa | 0V | 00:00:00 | 00:00:00 | 00:00:00 | |
| KRY50SP-1 | 2026-08-30 15:08:54 | 52.58675 | 18.22801 | 94° | 35km/h | 16444m | 2.1m/s | 0°C | 0% | 0hPa | 0V | 00:00:00 | 00:00:00 | 00:00:00 | |
| KRY50SP | 2026-08-30 15:08:49 | 52.58673 | 18.22746 | 74° | 22km/h | 16428m | 3.9m/s | 0°C | 0% | 0hPa | 0V | 00:00:00 | 00:00:00 | 00:00:00 | |
| SP3BTT-10 | 2026-08-30 15:08:44 | 52.58670 | 18.22691 | 77° | 40km/h | 16412m | 2.4m/s | 0°C | 0% | 0hPa | 0V | 00:00:00 | 00:00:00 | 00:00:00 | |
| KRY50SP | 2026-08-30 15:08:40 | 52.58667 | 18.22644 | 78° | 20km/h | 16400m | 2.6m/s | 0°C | 0% | 0hPa | 0V | 00:00:00 | 00:00:00 | 00:00:00 | |
| KRY50SP | 2026-08-30 15:08:33 | 52.58662 | 18.22553 | 89° | 22km/h | 16374m | 3.4m/s | 0°C | 0% | 0hPa | 0V | 00:00:00 | 00:00:00 | 00:00:00 | |
| SP3WXH-11 | 2026-08-30 15:08:28 | 52.58660 | 18.22458 | 90° | 38km/h | 16350m | 3.0m/s | 0°C | -1.0% | -1.0hPa | 0V | 00:00:00 | 00:00:00 | 00:00:00 | |
| SP6BVK | 2026-08-30 15:08:26 | 52.58659 | 18.22458 | 92° | 40km/h | 16350m | 3.0m/s | 0°C | 0% | 0hPa | 0V | 00:00:00 | 00:00:00 | 00:00:00 | |
| KRY50SP | 2026-08-30 15:08:19 | 52.58656 | 18.22356 | 98° | 42km/h | 16330m | 3.6m/s | 0°C | 0% | 0hPa | 0V | 00:00:00 | 00:00:00 | 00:00:00 | |
| KRY50SP-1 | 2026-08-30 15:08:09 | 52.58659 | 18.22197 | 76° | 33km/h | 16298m | 2.3m/s | 0°C | 0% | 0hPa | 0V | 00:00:00 | 00:00:00 | 00:00:00 | |
| SP3WXH-11 | 2026-08-30 15:07:57 | 52.58664 | 18.22000 | 90° | 37km/h | 16258m | 3.0m/s | 0°C | -1.0% | -1.0hPa | 0V | 00:00:00 | 00:00:00 | 00:00:00 | |
| KRY50SP | 2026-08-30 15:07:55 | 52.58667 | 18.21963 | 99° | 44km/h | 16253m | 3.5m/s | 0°C | 0% | 0hPa | 0V | 00:00:00 | 00:00:00 | 00:00:00 | |
| KRY50SP | 2026-08-30 15:07:49 | 52.58669 | 18.21863 | 98° | 44km/h | 16234m | 4.4m/s | 0°C | 0% | 0hPa | 0V | 00:00:00 | 00:00:00 | 00:00:00 | |
| SP6BVK | 2026-08-30 15:07:41 | 52.58672 | 18.21717 | 87° | 40km/h | 16208m | 3.1m/s | 0°C | 0% | 0hPa | 0V | 00:00:00 | 00:00:00 | 00:00:00 | |
| KRY50SP-1 | 2026-08-30 15:07:33 | 52.58674 | 18.21570 | 94° | 44km/h | 16183m | 3.9m/s | 0°C | 0% | 0hPa | 0V | 00:00:00 | 00:00:00 | 00:00:00 | |
| SP3WXH-11 | 2026-08-30 15:07:26 | 52.58673 | 18.21427 | 96° | 46km/h | 16160m | 2.4m/s | 0°C | -1.0% | -1.0hPa | 0V | 00:00:00 | 00:00:00 | 00:00:00 | |
| KRY50SP | 2026-08-30 15:07:25 | 52.58672 | 18.21427 | 98° | 47km/h | 16160m | 2.4m/s | 0°C | 0% | 0hPa | 0V | 00:00:00 | 00:00:00 | 00:00:00 | |
| SP6BVK | 2026-08-30 15:07:21 | 52.58672 | 18.21359 | 97° | 47km/h | 16148m | 4.6m/s | 0°C | 0% | 0hPa | 0V | 00:00:00 | 00:00:00 | 00:00:00 | |
| KRY50SP | 2026-08-30 15:07:18 | 52.58669 | 18.21308 | 87° | 38km/h | 16138m | 4.0m/s | 0°C | 0% | 0hPa | 0V | 00:00:00 | 00:00:00 | 00:00:00 | |
| KRY50SP-1 | 2026-08-30 15:07:11 | 52.58666 | 18.21188 | 80° | 31km/h | 16119m | 2.1m/s | 0°C | 0% | 0hPa | 0V | 00:00:00 | 00:00:00 | 00:00:00 | |
| SP3BTT-10 | 2026-08-30 15:07:10 | 52.58665 | 18.21172 | 89° | 44km/h | 16116m | 4.3m/s | 0°C | 0% | 0hPa | 0V | 00:00:00 | 00:00:00 | 00:00:00 | |
| KRY50SP | 2026-08-30 15:07:09 | 52.58664 | 18.21152 | 88° | 47km/h | 16113m | 2.2m/s | 0°C | 0% | 0hPa | 0V | 00:00:00 | 00:00:00 | 00:00:00 | |
| KRY50SP-1 | 2026-08-30 15:07:06 | 52.58661 | 18.21102 | 90° | 49km/h | 16105m | 3.3m/s | 0°C | 0% | 0hPa | 0V | 00:00:00 | 00:00:00 | 00:00:00 | |
| KRY50SP | 2026-08-30 15:07:03 | 52.58656 | 18.21051 | 78° | 40km/h | 16094m | 3.2m/s | 0°C | 0% | 0hPa | 0V | 00:00:00 | 00:00:00 | 00:00:00 | |
| KRY50SP-1 | 2026-08-30 15:07:01 | 52.58655 | 18.21011 | 85° | 46km/h | 16088m | 3.5m/s | 0°C | 0% | 0hPa | 0V | 00:00:00 | 00:00:00 | 00:00:00 | |
| SP3WXH-11 | 2026-08-30 15:06:55 | 52.58644 | 18.20891 | 83° | 53km/h | 16068m | 1.6m/s | 0°C | -1.0% | -1.0hPa | 0V | 00:00:00 | 00:00:00 | 00:00:00 | |
| KRY50SP-1 | 2026-08-30 15:06:54 | 52.58644 | 18.20891 | 84° | 55km/h | 16068m | 1.6m/s | 0°C | 0% | 0hPa | 0V | 00:00:00 | 00:00:00 | 00:00:00 | |
| KRY50SP | 2026-08-30 15:06:51 | 52.58641 | 18.20839 | 80° | 51km/h | 16060m | 3.6m/s | 0°C | 0% | 0hPa | 0V | 00:00:00 | 00:00:00 | 00:00:00 | |
| KRY50SP-1 | 2026-08-30 15:06:49 | 52.58639 | 18.20804 | 90° | 33km/h | 16054m | 3.0m/s | 0°C | 0% | 0hPa | 0V | 00:00:00 | 00:00:00 | 00:00:00 | |
| KRY50SP | 2026-08-30 15:06:44 | 52.58634 | 18.20720 | 82° | 47km/h | 16040m | 3.7m/s | 0°C | 0% | 0hPa | 0V | 00:00:00 | 00:00:00 | 00:00:00 | |
| KRY50SP-1 | 2026-08-30 15:06:38 | 52.58628 | 18.20618 | 94° | 33km/h | 16023m | 2.9m/s | 0°C | 0% | 0hPa | 0V | 00:00:00 | 00:00:00 | 00:00:00 | |
| KRY50SP | 2026-08-30 15:06:37 | 52.58628 | 18.20603 | 89° | 38km/h | 16020m | 3.5m/s | 0°C | 0% | 0hPa | 0V | 00:00:00 | 00:00:00 | 00:00:00 | |
| SP6BVK | 2026-08-30 15:06:35 | 52.58624 | 18.20567 | 85° | 44km/h | 16014m | 2.5m/s | 0°C | 0% | 0hPa | 0V | 00:00:00 | 00:00:00 | 00:00:00 | |
| KRY50SP-1 | 2026-08-30 15:06:33 | 52.58625 | 18.20534 | 84° | 38km/h | 16008m | 3.8m/s | 0°C | 0% | 0hPa | 0V | 00:00:00 | 00:00:00 | 00:00:00 | |
| SP3BTT-10 | 2026-08-30 15:06:31 | 52.58620 | 18.20499 | 87° | 42km/h | 16002m | 4.0m/s | 0°C | 0% | 0hPa | 0V | 00:00:00 | 00:00:00 | 00:00:00 | |
| KRY50SP | 2026-08-30 15:06:26 | 52.58619 | 18.20417 | 96° | 37km/h | 15986m | 2.6m/s | 0°C | 0% | 0hPa | 0V | 00:00:00 | 00:00:00 | 00:00:00 | |
| SP3WXH-11 | 2026-08-30 15:06:24 | 52.58614 | 18.20316 | 95° | 31km/h | 15970m | 4.2m/s | 0°C | -1.0% | -1.0hPa | 0V | 00:00:00 | 00:00:00 | 00:00:00 | |
| KRY50SP | 2026-08-30 15:06:20 | 52.58614 | 18.20316 | 97° | 31km/h | 15970m | 4.2m/s | 0°C | 0% | 0hPa | 0V | 00:00:00 | 00:00:00 | 00:00:00 | |
| KRY50SP-1 | 2026-08-30 15:06:17 | 52.58610 | 18.20266 | 80° | 40km/h | 15961m | 3.3m/s | 0°C | 0% | 0hPa | 0V | 00:00:00 | 00:00:00 | 00:00:00 | |
| SP6BVK | 2026-08-30 15:06:15 | 52.58610 | 18.20234 | 83° | 44km/h | 15956m | 3.7m/s | 0°C | 0% | 0hPa | 0V | 00:00:00 | 00:00:00 | 00:00:00 | |
| KRY50SP | 2026-08-30 15:06:13 | 52.58607 | 18.20196 | 104° | 46km/h | 15951m | 3.5m/s | 0°C | 0% | 0hPa | 0V | 00:00:00 | 00:00:00 | 00:00:00 | |
| KRY50SP-1 | 2026-08-30 15:06:11 | 52.58606 | 18.20162 | 70° | 42km/h | 15945m | 2.2m/s | 0°C | 0% | 0hPa | 0V | 00:00:00 | 00:00:00 | 00:00:00 | |
| KRY50SP | 2026-08-30 15:06:07 | 52.58601 | 18.20097 | 78° | 40km/h | 15935m | 2.4m/s | 0°C | 0% | 0hPa | 0V | 00:00:00 | 00:00:00 | 00:00:00 | |
| KRY50SP-1 | 2026-08-30 15:06:05 | 52.58602 | 18.20061 | 89° | 46km/h | 15929m | 3.2m/s | 0°C | 0% | 0hPa | 0V | 00:00:00 | 00:00:00 | 00:00:00 | |
| KRY50SP | 2026-08-30 15:06:00 | 52.58597 | 18.19975 | 75° | 42km/h | 15913m | 2.6m/s | 0°C | 0% | 0hPa | 0V | 00:00:00 | 00:00:00 | 00:00:00 | |
| SP3WXH-11 | 2026-08-30 15:05:53 | 52.58588 | 18.19829 | 77° | 44km/h | 15891m | 3.3m/s | 0°C | -1.0% | -1.0hPa | 0V | 00:00:00 | 00:00:00 | 00:00:00 | |
| KRY50SP | 2026-08-30 15:05:52 | 52.58588 | 18.19829 | 79° | 44km/h | 15892m | 3.3m/s | 0°C | 0% | 0hPa | 0V | 00:00:00 | 00:00:00 | 00:00:00 | |
| KRY50SP | 2026-08-30 15:05:44 | 52.58576 | 18.19684 | 96° | 44km/h | 15868m | 3.8m/s | 0°C | 0% | 0hPa | 0V | 00:00:00 | 00:00:00 | 00:00:00 | |
| KRY50SP-1 | 2026-08-30 15:05:41 | 52.58570 | 18.19632 | 75° | 40km/h | 15859m | 3.3m/s | 0°C | 0% | 0hPa | 0V | 00:00:00 | 00:00:00 | 00:00:00 | |
| KRY50SP | 2026-08-30 15:05:38 | 52.58566 | 18.19580 | 62° | 46km/h | 15851m | 3.5m/s | 0°C | 0% | 0hPa | 0V | 00:00:00 | 00:00:00 | 00:00:00 | |
| KRY50SP-1 | 2026-08-30 15:05:33 | 52.58555 | 18.19490 | 90° | 46km/h | 15836m | 3.5m/s | 0°C | 0% | 0hPa | 0V | 00:00:00 | 00:00:00 | 00:00:00 | |
| KRY50SP | 2026-08-30 15:05:29 | 52.58549 | 18.19417 | 96° | 51km/h | 15823m | 3.4m/s | 0°C | 0% | 0hPa | 0V | 00:00:00 | 00:00:00 | 00:00:00 | |
| KRY50SP-1 | 2026-08-30 15:05:25 | 52.58543 | 18.19336 | 93° | 55km/h | 15810m | 1.7m/s | 0°C | 0% | 0hPa | 0V | 00:00:00 | 00:00:00 | 00:00:00 | |
| KRY50SP | 2026-08-30 15:05:22 | 52.58536 | 18.19273 | 91° | 53km/h | 15801m | 3.1m/s | 0°C | 0% | 0hPa | 0V | 00:00:00 | 00:00:00 | 00:00:00 | |
| KRY50SP-1 | 2026-08-30 15:05:18 | 52.58527 | 18.19187 | 92° | 51km/h | 15789m | 3.2m/s | 0°C | 0% | 0hPa | 0V | 00:00:00 | 00:00:00 | 00:00:00 | |
| KRY50SP | 2026-08-30 15:05:17 | 52.58527 | 18.19165 | 88° | 55km/h | 15786m | 2.6m/s | 0°C | 0% | 0hPa | 0V | 00:00:00 | 00:00:00 | 00:00:00 | |
| KRY50SP-1 | 2026-08-30 15:05:13 | 52.58516 | 18.19078 | 79° | 53km/h | 15773m | 4.0m/s | 0°C | 0% | 0hPa | 0V | 00:00:00 | 00:00:00 | 00:00:00 | |
| SP3BTT-10 | 2026-08-30 15:05:09 | 52.58505 | 18.18992 | 77° | 57km/h | 15760m | 3.8m/s | 0°C | 0% | 0hPa | 0V | 00:00:00 | 00:00:00 | 00:00:00 | |
| KRY50SP-1 | 2026-08-30 15:05:06 | 52.58496 | 18.18925 | 88° | 53km/h | 15750m | 3.1m/s | 0°C | 0% | 0hPa | 0V | 00:00:00 | 00:00:00 | 00:00:00 | |
| SP6BVK | 2026-08-30 15:05:05 | 52.58493 | 18.18903 | 73° | 55km/h | 15747m | 4.4m/s | 0°C | 0% | 0hPa | 0V | 00:00:00 | 00:00:00 | 00:00:00 | |
| KRY50SP | 2026-08-30 15:05:01 | 52.58481 | 18.18814 | 81° | 55km/h | 15734m | 3.2m/s | 0°C | 0% | 0hPa | 0V | 00:00:00 | 00:00:00 | 00:00:00 | |
| SP3WXH-11 | 2026-08-30 15:04:51 | 52.58409 | 18.18445 | 59° | 51km/h | 15680m | 3.4m/s | 0°C | -1.0% | -1.0hPa | 0V | 00:00:00 | 00:00:00 | 00:00:00 | |
| SP6BVK | 2026-08-30 15:04:45 | 52.58409 | 18.18445 | 61° | 53km/h | 15681m | 3.4m/s | 0°C | 0% | 0hPa | 0V | 00:00:00 | 00:00:00 | 00:00:00 | |
| KRY50SP | 2026-08-30 15:04:41 | 52.58387 | 18.18353 | 62° | 53km/h | 15666m | 2.9m/s | 0°C | 0% | 0hPa | 0V | 00:00:00 | 00:00:00 | 00:00:00 | |
| KRY50SP-1 | 2026-08-30 15:04:37 | 52.58359 | 18.18241 | 69° | 58km/h | 15649m | 4.7m/s | 0°C | 0% | 0hPa | 0V | 00:00:00 | 00:00:00 | 00:00:00 | |
| KRY50SP | 2026-08-30 15:04:36 | 52.58359 | 18.18241 | 69° | 58km/h | 15649m | 4.7m/s | 0°C | 0% | 0hPa | 0V | 00:00:00 | 00:00:00 | 00:00:00 | |
| KRY50SP | 2026-08-30 15:04:29 | 52.58317 | 18.18088 | 64° | 57km/h | 15626m | 3.5m/s | 0°C | 0% | 0hPa | 0V | 00:00:00 | 00:00:00 | 00:00:00 | |
| SP6BVK | 2026-08-30 15:04:25 | 52.58293 | 18.18003 | 64° | 53km/h | 15614m | 2.8m/s | 0°C | 0% | 0hPa | 0V | 00:00:00 | 00:00:00 | 00:00:00 | |
| KRY50SP | 2026-08-30 15:04:21 | 52.58268 | 18.17914 | 64° | 53km/h | 15601m | 3.0m/s | 0°C | 0% | 0hPa | 0V | 00:00:00 | 00:00:00 | 00:00:00 | |
| SP3WXH-11 | 2026-08-30 15:04:20 | 52.58241 | 18.17825 | 61° | 62km/h | 15587m | 4.0m/s | 0°C | -1.0% | -1.0hPa | 0V | 00:00:00 | 00:00:00 | 00:00:00 | |
| SP3BTT-10 | 2026-08-30 15:04:13 | 52.58212 | 18.17737 | 61° | 66km/h | 15574m | 3.6m/s | 0°C | 0% | 0hPa | 0V | 00:00:00 | 00:00:00 | 00:00:00 | |
| KRY50SP | 2026-08-30 15:04:07 | 52.58166 | 18.17603 | 51° | 55km/h | 15556m | 3.5m/s | 0°C | 0% | 0hPa | 0V | 00:00:00 | 00:00:00 | 00:00:00 | |
| SP6BVK | 2026-08-30 15:04:04 | 52.58140 | 18.17536 | 59° | 64km/h | 15547m | 3.8m/s | 0°C | 0% | 0hPa | 0V | 00:00:00 | 00:00:00 | 00:00:00 | |
| KRY50SP | 2026-08-30 15:04:00 | 52.58104 | 18.17449 | 57° | 68km/h | 15534m | 3.2m/s | 0°C | 0% | 0hPa | 0V | 00:00:00 | 00:00:00 | 00:00:00 | |
| SP3WXH-11 | 2026-08-30 15:03:49 | 52.57966 | 18.17150 | 53° | 68km/h | 15489m | 4.4m/s | 0°C | -1.0% | -1.0hPa | 0V | 00:00:00 | 00:00:00 | 00:00:00 | |
| SP3BTT-10 | 2026-08-30 15:03:41 | 52.57913 | 18.17045 | 57° | 57km/h | 15473m | 2.1m/s | 0°C | 0% | 0hPa | 0V | 00:00:00 | 00:00:00 | 00:00:00 | |
| KRY50SP | 2026-08-30 15:03:33 | 52.57832 | 18.16886 | 48° | 58km/h | 15448m | 4.1m/s | 0°C | 0% | 0hPa | 0V | 00:00:00 | 00:00:00 | 00:00:00 | |
| KRY50SP | 2026-08-30 15:03:27 | 52.57772 | 18.16774 | 58° | 69km/h | 15429m | 1.5m/s | 0°C | 0% | 0hPa | 0V | 00:00:00 | 00:00:00 | 00:00:00 | |
| KRY50SP-1 | 2026-08-30 15:03:21 | 52.57713 | 18.16667 | 53° | 68km/h | 15409m | 3.8m/s | 0°C | 0% | 0hPa | 0V | 00:00:00 | 00:00:00 | 00:00:00 | |
| SP3WXH-11 | 2026-08-30 15:03:18 | 52.57676 | 18.16599 | 50° | 62km/h | 15396m | 2.8m/s | 0°C | -1.0% | -1.0hPa | 0V | 00:00:00 | 00:00:00 | 00:00:00 | |
| SP6BVK | 2026-08-30 15:03:17 | 52.57676 | 18.16599 | 52° | 64km/h | 15396m | 2.8m/s | 0°C | 0% | 0hPa | 0V | 00:00:00 | 00:00:00 | 00:00:00 | |
| KRY50SP | 2026-08-30 15:03:13 | 52.57638 | 18.16532 | 53° | 60km/h | 15383m | 3.4m/s | 0°C | 0% | 0hPa | 0V | 00:00:00 | 00:00:00 | 00:00:00 | |
| KRY50SP-1 | 2026-08-30 15:03:07 | 52.57586 | 18.16435 | 37° | 46km/h | 15365m | 1.8m/s | 0°C | 0% | 0hPa | 0V | 00:00:00 | 00:00:00 | 00:00:00 | |
| KRY50SP | 2026-08-30 15:03:06 | 52.57577 | 18.16421 | 49° | 51km/h | 15363m | 3.2m/s | 0°C | 0% | 0hPa | 0V | 00:00:00 | 00:00:00 | 00:00:00 | |
| KRY50SP | 2026-08-30 15:03:01 | 52.57534 | 18.16342 | 53° | 53km/h | 15348m | 2.2m/s | 0°C | 0% | 0hPa | 0V | 00:00:00 | 00:00:00 | 00:00:00 | |
| SP3WXH-11 | 2026-08-30 15:02:47 | 52.57404 | 18.16103 | 53° | 47km/h | 15299m | 3.0m/s | 0°C | -1.0% | -1.0hPa | 0V | 00:00:00 | 00:00:00 | 00:00:00 | |
| SP3BTT-10 | 2026-08-30 15:02:44 | 52.57396 | 18.16089 | 40° | 44km/h | 15296m | 3.1m/s | 0°C | 0% | 0hPa | 0V | 00:00:00 | 00:00:00 | 00:00:00 | |
| KRY50SP | 2026-08-30 15:02:42 | 52.57379 | 18.16061 | 56° | 49km/h | 15290m | 3.1m/s | 0°C | 0% | 0hPa | 0V | 00:00:00 | 00:00:00 | 00:00:00 | |
| SP6BVK | 2026-08-30 15:02:31 | 52.57301 | 18.15899 | 42° | 40km/h | 15257m | 2.6m/s | 0°C | 0% | 0hPa | 0V | 00:00:00 | 00:00:00 | 00:00:00 | |
| KRY50SP | 2026-08-30 15:02:30 | 52.57293 | 18.15886 | 53° | 46km/h | 15254m | 3.1m/s | 0°C | 0% | 0hPa | 0V | 00:00:00 | 00:00:00 | 00:00:00 | |
| KRY50SP | 2026-08-30 15:02:24 | 52.57253 | 18.15794 | 51° | 42km/h | 15239m | 3.7m/s | 0°C | 0% | 0hPa | 0V | 00:00:00 | 00:00:00 | 00:00:00 | |
| KRY50SP | 2026-08-30 15:02:19 | 52.57219 | 18.15721 | 50° | 40km/h | 15223m | 2.6m/s | 0°C | 0% | 0hPa | 0V | 00:00:00 | 00:00:00 | 00:00:00 | |
| SP3WXH-11 | 2026-08-30 15:02:16 | 52.57185 | 18.15627 | 61° | 47km/h | 15203m | 2.6m/s | 0°C | -1.0% | -1.0hPa | 0V | 00:00:00 | 00:00:00 | 00:00:00 | |
| KRY50SP | 2026-08-30 15:02:10 | 52.57169 | 18.15585 | 65° | 49km/h | 15196m | 3.1m/s | 0°C | 0% | 0hPa | 0V | 00:00:00 | 00:00:00 | 00:00:00 | |
| KRY50SP | 2026-08-30 15:02:05 | 52.57142 | 18.15506 | 60° | 46km/h | 15182m | 3.4m/s | 0°C | 0% | 0hPa | 0V | 00:00:00 | 00:00:00 | 00:00:00 | |
| KRY50SP-1 | 2026-08-30 15:02:04 | 52.57138 | 18.15491 | 66° | 31km/h | 15179m | 2.8m/s | 0°C | 0% | 0hPa | 0V | 00:00:00 | 00:00:00 | 00:00:00 | |
| SP3WXH-11 | 2026-08-30 15:01:45 | 52.57042 | 18.15155 | 75° | 44km/h | 15117m | 2.9m/s | 0°C | -1.0% | -1.0hPa | 0V | 00:00:00 | 00:00:00 | 00:00:00 | |
| KRY50SP-1 | 2026-08-30 15:01:41 | 52.57030 | 18.15100 | 62° | 47km/h | 15108m | 2.5m/s | 0°C | 0% | 0hPa | 0V | 00:00:00 | 00:00:00 | 00:00:00 | |
| KRY50SP | 2026-08-30 15:01:35 | 52.57008 | 18.14986 | 78° | 49km/h | 15090m | 3.1m/s | 0°C | 0% | 0hPa | 0V | 00:00:00 | 00:00:00 | 00:00:00 | |
| KRY50SP-1 | 2026-08-30 15:01:33 | 52.56997 | 18.14951 | 72° | 47km/h | 15084m | 3.5m/s | 0°C | 0% | 0hPa | 0V | 00:00:00 | 00:00:00 | 00:00:00 | |
| KRY50SP | 2026-08-30 15:01:29 | 52.56982 | 18.14874 | 79° | 46km/h | 15072m | 3.9m/s | 0°C | 0% | 0hPa | 0V | 00:00:00 | 00:00:00 | 00:00:00 | |
| KRY50SP | 2026-08-30 15:01:21 | 52.56955 | 18.14718 | 88° | 51km/h | 15047m | 2.7m/s | 0°C | 0% | 0hPa | 0V | 00:00:00 | 00:00:00 | 00:00:00 | |
| SP6BVK | 2026-08-30 15:01:17 | 52.56943 | 18.14640 | 88° | 53km/h | 15033m | 2.3m/s | 0°C | 0% | 0hPa | 0V | 00:00:00 | 00:00:00 | 00:00:00 | |
| SP3WXH-11 | 2026-08-30 15:01:14 | 52.56932 | 18.14558 | 79° | 53km/h | 15019m | 3.9m/s | 0°C | -1.0% | -1.0hPa | 0V | 00:00:00 | 00:00:00 | 00:00:00 | |
| SP3BTT-10 | 2026-08-30 15:01:09 | 52.56921 | 18.14474 | 80° | 46km/h | 15005m | 3.9m/s | 0°C | 0% | 0hPa | 0V | 00:00:00 | 00:00:00 | 00:00:00 | |
| KRY50SP-1 | 2026-08-30 15:01:04 | 52.56908 | 18.14370 | 74° | 49km/h | 14988m | 3.2m/s | 0°C | 0% | 0hPa | 0V | 00:00:00 | 00:00:00 | 00:00:00 | |
| KRY50SP | 2026-08-30 15:01:02 | 52.56901 | 18.14329 | 89° | 58km/h | 14982m | 3.7m/s | 0°C | 0% | 0hPa | 0V | 00:00:00 | 00:00:00 | 00:00:00 | |
| KRY50SP-1 | 2026-08-30 15:00:58 | 52.56891 | 18.14247 | 86° | 57km/h | 14968m | 3.2m/s | 0°C | 0% | 0hPa | 0V | 00:00:00 | 00:00:00 | 00:00:00 | |
| SP6BVK | 2026-08-30 15:00:55 | 52.56883 | 18.14191 | 77° | 46km/h | 14957m | 4.0m/s | 0°C | 0% | 0hPa | 0V | 00:00:00 | 00:00:00 | 00:00:00 | |
| KRY50SP-1 | 2026-08-30 15:00:53 | 52.56879 | 18.14148 | 73° | 49km/h | 14951m | 3.6m/s | 0°C | 0% | 0hPa | 0V | 00:00:00 | 00:00:00 | 00:00:00 | |
| KRY50SP | 2026-08-30 15:00:50 | 52.56868 | 18.14091 | 85° | 51km/h | 14941m | 2.5m/s | 0°C | 0% | 0hPa | 0V | 00:00:00 | 00:00:00 | 00:00:00 | |
| KRY50SP-1 | 2026-08-30 15:00:46 | 52.56856 | 18.14019 | 81° | 47km/h | 14926m | 3.3m/s | 0°C | 0% | 0hPa | 0V | 00:00:00 | 00:00:00 | 00:00:00 | |
| SP3WXH-11 | 2026-08-30 15:00:43 | 52.56837 | 18.13932 | 64° | 44km/h | 14907m | 3.2m/s | 0°C | -1.0% | -1.0hPa | 0V | 00:00:00 | 00:00:00 | 00:00:00 | |
| KRY50SP | 2026-08-30 15:00:41 | 52.56837 | 18.13932 | 66° | 46km/h | 14907m | 3.2m/s | 0°C | 0% | 0hPa | 0V | 00:00:00 | 00:00:00 | 00:00:00 | |
| KRY50SP-1 | 2026-08-30 15:00:39 | 52.56832 | 18.13897 | 78° | 44km/h | 14901m | 3.5m/s | 0°C | 0% | 0hPa | 0V | 00:00:00 | 00:00:00 | 00:00:00 | |
| KRY50SP | 2026-08-30 15:00:36 | 52.56820 | 18.13844 | 84° | 42km/h | 14890m | 3.2m/s | 0°C | 0% | 0hPa | 0V | 00:00:00 | 00:00:00 | 00:00:00 | |
| SP6BVK | 2026-08-30 15:00:34 | 52.56813 | 18.13810 | 62° | 47km/h | 14882m | 3.4m/s | 0°C | 0% | 0hPa | 0V | 00:00:00 | 00:00:00 | 00:00:00 | |
| KRY50SP-1 | 2026-08-30 15:00:33 | 52.56808 | 18.13793 | 68° | 38km/h | 14879m | 3.9m/s | 0°C | 0% | 0hPa | 0V | 00:00:00 | 00:00:00 | 00:00:00 | |
| KRY50SP | 2026-08-30 15:00:30 | 52.56800 | 18.13745 | 64° | 49km/h | 14869m | 1.9m/s | 0°C | 0% | 0hPa | 0V | 00:00:00 | 00:00:00 | 00:00:00 | |
| SP3BTT-10 | 2026-08-30 15:00:26 | 52.56786 | 18.13684 | 65° | 35km/h | 14855m | 2.8m/s | 0°C | 0% | 0hPa | 0V | 00:00:00 | 00:00:00 | 00:00:00 | |
| KRY50SP-1 | 2026-08-30 15:00:25 | 52.56782 | 18.13671 | 72° | 31km/h | 14852m | 3.1m/s | 0°C | 0% | 0hPa | 0V | 00:00:00 | 00:00:00 | 00:00:00 | |
| KRY50SP-1 | 2026-08-30 15:00:19 | 52.56768 | 18.13582 | 67° | 47km/h | 14833m | 3.2m/s | 0°C | 0% | 0hPa | 0V | 00:00:00 | 00:00:00 | 00:00:00 | |
| SP6BVK | 2026-08-30 15:00:13 | 52.56749 | 18.13500 | 81° | 26km/h | 14812m | 2.3m/s | 0°C | 0% | 0hPa | 0V | 00:00:00 | 00:00:00 | 00:00:00 | |
| SP3WXH-11 | 2026-08-30 15:00:12 | 52.56735 | 18.13416 | 76° | 35km/h | 14792m | 3.6m/s | 0°C | -1.0% | -1.0hPa | 0V | 00:00:00 | 00:00:00 | 00:00:00 | |
| KRY50SP | 2026-08-30 15:00:07 | 52.56734 | 18.13416 | 78° | 37km/h | 14793m | 3.6m/s | 0°C | 0% | 0hPa | 0V | 00:00:00 | 00:00:00 | 00:00:00 | |
| KRY50SP | 2026-08-30 15:00:01 | 52.56722 | 18.13338 | 72° | 37km/h | 14773m | 4.2m/s | 0°C | 0% | 0hPa | 0V | 00:00:00 | 00:00:00 | 00:00:00 | |
| KRY50SP | 2026-08-30 14:59:54 | 52.56706 | 18.13247 | 78° | 27km/h | 14754m | 2.4m/s | 0°C | 0% | 0hPa | 0V | 00:00:00 | 00:00:00 | 00:00:00 | |
| KRY50SP | 2026-08-30 14:59:49 | 52.56692 | 18.13180 | 72° | 46km/h | 14739m | 2.0m/s | 0°C | 0% | 0hPa | 0V | 00:00:00 | 00:00:00 | 00:00:00 | |
| KRY50SP-1 | 2026-08-30 14:59:42 | 52.56675 | 18.13083 | 81° | 46km/h | 14719m | 1.7m/s | 0°C | 0% | 0hPa | 0V | 00:00:00 | 00:00:00 | 00:00:00 | |
| SP3WXH-11 | 2026-08-30 14:59:41 | 52.56671 | 18.13053 | 67° | 26km/h | 14714m | 2.0m/s | 0°C | -1.0% | -1.0hPa | 0V | 00:00:00 | 00:00:00 | 00:00:00 | |
| KRY50SP | 2026-08-30 14:59:40 | 52.56671 | 18.13053 | 69° | 26km/h | 14715m | 2.0m/s | 0°C | 0% | 0hPa | 0V | 00:00:00 | 00:00:00 | 00:00:00 | |
| KRY50SP-1 | 2026-08-30 14:59:36 | 52.56662 | 18.12995 | 74° | 27km/h | 14704m | 1.5m/s | 0°C | 0% | 0hPa | 0V | 00:00:00 | 00:00:00 | 00:00:00 | |
| SP3BTT-10 | 2026-08-30 14:59:34 | 52.56658 | 18.12962 | 84° | 46km/h | 14699m | 1.6m/s | 0°C | 0% | 0hPa | 0V | 00:00:00 | 00:00:00 | 00:00:00 | |
| SP6BVK | 2026-08-30 14:59:29 | 52.56651 | 18.12881 | 80° | 33km/h | 14686m | 2.8m/s | 0°C | 0% | 0hPa | 0V | 00:00:00 | 00:00:00 | 00:00:00 | |
| KRY50SP | 2026-08-30 14:59:23 | 52.56644 | 18.12786 | 93° | 47km/h | 14672m | 2.3m/s | 0°C | 0% | 0hPa | 0V | 00:00:00 | 00:00:00 | 00:00:00 | |
| KRY50SP-1 | 2026-08-30 14:59:17 | 52.56635 | 18.12679 | 70° | 38km/h | 14658m | 0.9m/s | 0°C | 0% | 0hPa | 0V | 00:00:00 | 00:00:00 | 00:00:00 | |
| SP3WXH-11 | 2026-08-30 14:59:10 | 52.56624 | 18.12535 | 84° | 47km/h | 14637m | 3.8m/s | 0°C | -1.0% | -1.0hPa | 0V | 00:00:00 | 00:00:00 | 00:00:00 | |
| KRY50SP | 2026-08-30 14:59:09 | 52.56624 | 18.12534 | 85° | 47km/h | 14637m | 3.8m/s | 0°C | 0% | 0hPa | 0V | 00:00:00 | 00:00:00 | 00:00:00 | |
| SP6BVK | 2026-08-30 14:59:08 | 52.56624 | 18.12514 | 93° | 51km/h | 14635m | 1.7m/s | 0°C | 0% | 0hPa | 0V | 00:00:00 | 00:00:00 | 00:00:00 | |
| KRY50SP-1 | 2026-08-30 14:59:04 | 52.56619 | 18.12435 | 91° | 51km/h | 14625m | 2.1m/s | 0°C | 0% | 0hPa | 0V | 00:00:00 | 00:00:00 | 00:00:00 | |
| KRY50SP | 2026-08-30 14:59:03 | 52.56618 | 18.12415 | 73° | 47km/h | 14622m | 3.3m/s | 0°C | 0% | 0hPa | 0V | 00:00:00 | 00:00:00 | 00:00:00 | |
| KRY50SP | 2026-08-30 14:58:57 | 52.56613 | 18.12300 | 95° | 49km/h | 14606m | 2.1m/s | 0°C | 0% | 0hPa | 0V | 00:00:00 | 00:00:00 | 00:00:00 | |
| SP3BTT-10 | 2026-08-30 14:58:50 | 52.56610 | 18.12163 | 99° | 46km/h | 14588m | 3.3m/s | 0°C | 0% | 0hPa | 0V | 00:00:00 | 00:00:00 | 00:00:00 | |
| KRY50SP | 2026-08-30 14:58:49 | 52.56612 | 18.12143 | 97° | 49km/h | 14586m | 2.0m/s | 0°C | 0% | 0hPa | 0V | 00:00:00 | 00:00:00 | 00:00:00 | |
| SP6BVK | 2026-08-30 14:58:48 | 52.56611 | 18.12124 | 81° | 42km/h | 14583m | 2.4m/s | 0°C | 0% | 0hPa | 0V | 00:00:00 | 00:00:00 | 00:00:00 | |
| KRY50SP | 2026-08-30 14:58:44 | 52.56614 | 18.12050 | 79° | 42km/h | 14575m | 2.8m/s | 0°C | 0% | 0hPa | 0V | 00:00:00 | 00:00:00 | 00:00:00 | |
| SP3WXH-11 | 2026-08-30 14:58:39 | 52.56614 | 18.11935 | 94° | 46km/h | 14559m | 2.4m/s | 0°C | -1.0% | -1.0hPa | 0V | 00:00:00 | 00:00:00 | 00:00:00 | |
| KRY50SP | 2026-08-30 14:58:37 | 52.56614 | 18.11916 | 85° | 44km/h | 14556m | 2.9m/s | 0°C | 0% | 0hPa | 0V | 00:00:00 | 00:00:00 | 00:00:00 | |
| KRY50SP | 2026-08-30 14:58:32 | 52.56611 | 18.11827 | 84° | 44km/h | 14543m | 3.1m/s | 0°C | 0% | 0hPa | 0V | 00:00:00 | 00:00:00 | 00:00:00 | |
| KRY50SP | 2026-08-30 14:58:26 | 52.56607 | 18.11712 | 79° | 42km/h | 14528m | 3.2m/s | 0°C | 0% | 0hPa | 0V | 00:00:00 | 00:00:00 | 00:00:00 | |
| KRY50SP | 2026-08-30 14:58:20 | 52.56599 | 18.11603 | 97° | 49km/h | 14512m | 2.6m/s | 0°C | 0% | 0hPa | 0V | 00:00:00 | 00:00:00 | 00:00:00 | |
| KRY50SP | 2026-08-30 14:58:14 | 52.56593 | 18.11494 | 69° | 44km/h | 14495m | 2.0m/s | 0°C | 0% | 0hPa | 0V | 00:00:00 | 00:00:00 | 00:00:00 | |
| SP3BTT-10 | 2026-08-30 14:58:12 | 52.56592 | 18.11457 | 98° | 42km/h | 14489m | 1.9m/s | 0°C | 0% | 0hPa | 0V | 00:00:00 | 00:00:00 | 00:00:00 | |
| SP3WXH-11 | 2026-08-30 14:58:08 | 52.56589 | 18.11367 | 73° | 40km/h | 14473m | 4.0m/s | 0°C | -1.0% | -1.0hPa | 0V | 00:00:00 | 00:00:00 | 00:00:00 | |
| SP3WXH-11 | 2026-08-30 14:57:37 | 52.56569 | 18.10662 | 75° | 37km/h | 14367m | 1.8m/s | 0°C | -1.0% | -1.0hPa | 0V | 00:00:00 | 00:00:00 | 00:00:00 | |
| SP3WXH-11 | 2026-08-30 14:57:06 | 52.56547 | 18.10133 | 73° | 40km/h | 14289m | 2.4m/s | 0°C | -1.0% | -1.0hPa | 0V | 00:00:00 | 00:00:00 | 00:00:00 | |
| SP3BTT-10 | 2026-08-30 14:56:45 | 52.56518 | 18.09746 | 83° | 55km/h | 14229m | 3.9m/s | 0°C | 0% | 0hPa | 0V | 00:00:00 | 00:00:00 | 00:00:00 | |
| SP3WXH-11 | 2026-08-30 14:56:35 | 52.56498 | 18.09507 | 73° | 44km/h | 14191m | 3.5m/s | 0°C | -1.0% | -1.0hPa | 0V | 00:00:00 | 00:00:00 | 00:00:00 | |
| SP3BTT-10 | 2026-08-30 14:56:01 | 52.56435 | 18.08826 | 81° | 58km/h | 14094m | 3.4m/s | 0°C | 0% | 0hPa | 0V | 00:00:00 | 00:00:00 | 00:00:00 | |
| SP3BTT-10 | 2026-08-30 14:55:05 | 52.56363 | 18.07490 | 89° | 60km/h | 13933m | 3.0m/s | 0°C | 0% | 0hPa | 0V | 00:00:00 | 00:00:00 | 00:00:00 | |
| SP3BTT-10 | 2026-08-30 14:54:29 | 52.56219 | 18.06627 | 78° | 57km/h | 13834m | 4.1m/s | 0°C | 0% | 0hPa | 0V | 00:00:00 | 00:00:00 | 00:00:00 | |
| SP3BTT-10 | 2026-08-30 14:53:49 | 52.56063 | 18.05774 | 70° | 55km/h | 13722m | 2.0m/s | 0°C | 0% | 0hPa | 0V | 00:00:00 | 00:00:00 | 00:00:00 | |
| SP3BTT-10 | 2026-08-30 14:52:58 | 52.55832 | 18.04685 | 71° | 55km/h | 13575m | 3.1m/s | 0°C | 0% | 0hPa | 0V | 00:00:00 | 00:00:00 | 00:00:00 | |
| SP3WXH-11 | 2026-08-30 14:45:43 | 52.55122 | 17.93229 | 94° | 82km/h | 12206m | 5.7m/s | 0°C | -1.0% | -1.0hPa | 0V | 00:00:00 | 00:00:00 | 00:00:00 | |
| SP3WXH-11 | 2026-08-30 14:43:39 | 52.55028 | 17.88686 | 83° | 95km/h | 11830m | 3.3m/s | 0°C | -1.0% | -1.0hPa | 0V | 00:00:00 | 00:00:00 | 00:00:00 | |
| SP3WXH-11 | 2026-08-30 14:43:08 | 52.54992 | 17.88183 | 83° | 75km/h | 11798m | 3.0m/s | 0°C | -1.0% | -1.0hPa | 0V | 00:00:00 | 00:00:00 | 00:00:00 | |
| SP3BTT-10 | 2026-08-30 14:42:47 | 52.54918 | 17.87482 | 92° | 80km/h | 11744m | 3.2m/s | 0°C | 0% | 0hPa | 0V | 00:00:00 | 00:00:00 | 00:00:00 | |
| SP3WXH-11 | 2026-08-30 14:42:37 | 52.54878 | 17.87059 | 74° | 89km/h | 11707m | 4.1m/s | 0°C | -1.0% | -1.0hPa | 0V | 00:00:00 | 00:00:00 | 00:00:00 | |
| SP3WXH-11 | 2026-08-30 14:42:06 | 52.54767 | 17.85733 | 84° | 75km/h | 11572m | 5.3m/s | 0°C | -1.0% | -1.0hPa | 0V | 00:00:00 | 00:00:00 | 00:00:00 | |
| SP3WXH-11 | 2026-08-30 14:41:35 | 52.54698 | 17.84692 | 88° | 82km/h | 11450m | 2.4m/s | 0°C | -1.0% | -1.0hPa | 0V | 00:00:00 | 00:00:00 | 00:00:00 | |
| SP3WXH-11 | 2026-08-30 14:41:04 | 52.54627 | 17.84044 | 81° | 75km/h | 11368m | 3.0m/s | 0°C | -1.0% | -1.0hPa | 0V | 00:00:00 | 00:00:00 | 00:00:00 | |
| KRY50SP | 2026-08-30 14:41:01 | 52.54627 | 17.84044 | 83° | 75km/h | 11368m | 3.0m/s | 0°C | 0% | 0hPa | 0V | 00:00:00 | 00:00:00 | 00:00:00 | |
| KRY50SP | 2026-08-30 14:40:56 | 52.54611 | 17.83900 | 80° | 86km/h | 11352m | 2.4m/s | 0°C | 0% | 0hPa | 0V | 00:00:00 | 00:00:00 | 00:00:00 | |
| KRY50SP | 2026-08-30 14:40:44 | 52.54571 | 17.83554 | 76° | 58km/h | 11308m | 5.0m/s | 0°C | 0% | 0hPa | 0V | 00:00:00 | 00:00:00 | 00:00:00 | |
| SP3WXH-11 | 2026-08-30 14:40:33 | 52.54512 | 17.83021 | 92° | 58km/h | 11240m | 3.0m/s | 0°C | -1.0% | -1.0hPa | 0V | 00:00:00 | 00:00:00 | 00:00:00 | |
| KRY50SP | 2026-08-30 14:40:20 | 52.54497 | 17.82880 | 86° | 66km/h | 11220m | 4.9m/s | 0°C | 0% | 0hPa | 0V | 00:00:00 | 00:00:00 | 00:00:00 | |
| SP3WXH-11 | 2026-08-30 14:40:02 | 52.54444 | 17.82306 | 77° | 73km/h | 11151m | 4.5m/s | 0°C | -1.0% | -1.0hPa | 0V | 00:00:00 | 00:00:00 | 00:00:00 | |
| KRY50SP | 2026-08-30 14:40:00 | 52.54443 | 17.82306 | 79° | 73km/h | 11151m | 4.5m/s | 0°C | 0% | 0hPa | 0V | 00:00:00 | 00:00:00 | 00:00:00 | |
| KRY50SP-1 | 2026-08-30 14:39:40 | 52.54389 | 17.81705 | 84° | 73km/h | 11083m | 3.5m/s | 0°C | 0% | 0hPa | 0V | 00:00:00 | 00:00:00 | 00:00:00 | |
| KRY50SP-1 | 2026-08-30 14:39:34 | 52.54375 | 17.81522 | 76° | 86km/h | 11065m | 2.5m/s | 0°C | 0% | 0hPa | 0V | 00:00:00 | 00:00:00 | 00:00:00 | |
| KRY50SP | 2026-08-30 14:39:32 | 52.54370 | 17.81462 | 87° | 73km/h | 11056m | 3.3m/s | 0°C | 0% | 0hPa | 0V | 00:00:00 | 00:00:00 | 00:00:00 | |
| SP3WXH-11 | 2026-08-30 14:39:31 | 52.54366 | 17.81401 | 95° | 69km/h | 11051m | 3.8m/s | 0°C | -1.0% | -1.0hPa | 0V | 00:00:00 | 00:00:00 | 00:00:00 | |
| KRY50SP-1 | 2026-08-30 14:39:28 | 52.54361 | 17.81339 | 81° | 73km/h | 11042m | 3.0m/s | 0°C | 0% | 0hPa | 0V | 00:00:00 | 00:00:00 | 00:00:00 | |
| KRY50SP | 2026-08-30 14:39:27 | 52.54360 | 17.81309 | 94° | 75km/h | 11040m | 1.7m/s | 0°C | 0% | 0hPa | 0V | 00:00:00 | 00:00:00 | 00:00:00 | |
| SP3BTT-10 | 2026-08-30 14:39:22 | 52.54347 | 17.81161 | 91° | 75km/h | 11026m | 4.7m/s | 0°C | 0% | 0hPa | 0V | 00:00:00 | 00:00:00 | 00:00:00 | |
| KRY50SP | 2026-08-30 14:39:20 | 52.54342 | 17.81100 | 78° | 73km/h | 11019m | 1.7m/s | 0°C | 0% | 0hPa | 0V | 00:00:00 | 00:00:00 | 00:00:00 | |
| KRY50SP-1 | 2026-08-30 14:39:17 | 52.54336 | 17.81006 | 82° | 82km/h | 11009m | 3.8m/s | 0°C | 0% | 0hPa | 0V | 00:00:00 | 00:00:00 | 00:00:00 | |
| SP6BVK | 2026-08-30 14:39:16 | 52.54334 | 17.80973 | 89° | 73km/h | 11006m | 2.2m/s | 0°C | 0% | 0hPa | 0V | 00:00:00 | 00:00:00 | 00:00:00 | |
| KRY50SP | 2026-08-30 14:39:15 | 52.54331 | 17.80943 | 74° | 75km/h | 11004m | 1.9m/s | 0°C | 0% | 0hPa | 0V | 00:00:00 | 00:00:00 | 00:00:00 | |
| KRY50SP | 2026-08-30 14:39:09 | 52.54319 | 17.80759 | 85° | 73km/h | 10984m | 4.1m/s | 0°C | 0% | 0hPa | 0V | 00:00:00 | 00:00:00 | 00:00:00 | |
| KRY50SP-1 | 2026-08-30 14:39:06 | 52.54314 | 17.80665 | 83° | 62km/h | 10976m | 4.9m/s | 0°C | 0% | 0hPa | 0V | 00:00:00 | 00:00:00 | 00:00:00 | |
| KRY50SP | 2026-08-30 14:39:04 | 52.54310 | 17.80605 | 83° | 78km/h | 10969m | 3.2m/s | 0°C | 0% | 0hPa | 0V | 00:00:00 | 00:00:00 | 00:00:00 | |
| SP3WXH-11 | 2026-08-30 14:39:00 | 52.54298 | 17.80448 | 84° | 89km/h | 10953m | 2.1m/s | 0°C | -1.0% | -1.0hPa | 0V | 00:00:00 | 00:00:00 | 00:00:00 | |
| KRY50SP-1 | 2026-08-30 14:38:59 | 52.54298 | 17.80449 | 86° | 91km/h | 10953m | 2.1m/s | 0°C | 0% | 0hPa | 0V | 00:00:00 | 00:00:00 | 00:00:00 | |
| KRY50SP | 2026-08-30 14:38:55 | 52.54290 | 17.80328 | 84° | 60km/h | 10942m | 1.8m/s | 0°C | 0% | 0hPa | 0V | 00:00:00 | 00:00:00 | 00:00:00 | |
| KRY50SP-1 | 2026-08-30 14:38:53 | 52.54285 | 17.80264 | 86° | 77km/h | 10934m | 4.7m/s | 0°C | 0% | 0hPa | 0V | 00:00:00 | 00:00:00 | 00:00:00 | |
| KRY50SP | 2026-08-30 14:38:50 | 52.54279 | 17.80169 | 83° | 64km/h | 10926m | 4.9m/s | 0°C | 0% | 0hPa | 0V | 00:00:00 | 00:00:00 | 00:00:00 | |
| KRY50SP | 2026-08-30 14:38:45 | 52.54269 | 17.80017 | 82° | 75km/h | 10909m | 3.6m/s | 0°C | 0% | 0hPa | 0V | 00:00:00 | 00:00:00 | 00:00:00 | |
| KRY50SP-1 | 2026-08-30 14:38:39 | 52.54257 | 17.79827 | 92° | 69km/h | 10894m | 4.3m/s | 0°C | 0% | 0hPa | 0V | 00:00:00 | 00:00:00 | 00:00:00 | |
| SP3BTT-10 | 2026-08-30 14:38:35 | 52.54251 | 17.79701 | 77° | 77km/h | 10881m | 4.4m/s | 0°C | 0% | 0hPa | 0V | 00:00:00 | 00:00:00 | 00:00:00 | |
| KRY50SP | 2026-08-30 14:38:32 | 52.54244 | 17.79606 | 78° | 82km/h | 10871m | 1.0m/s | 0°C | 0% | 0hPa | 0V | 00:00:00 | 00:00:00 | 00:00:00 | |
| SP3WXH-11 | 2026-08-30 14:38:29 | 52.54239 | 17.79480 | 93° | 73km/h | 10859m | 1.0m/s | 0°C | -1.0% | -1.0hPa | 0V | 00:00:00 | 00:00:00 | 00:00:00 | |
| KRY50SP | 2026-08-30 14:38:25 | 52.54234 | 17.79386 | 88° | 73km/h | 10848m | 2.8m/s | 0°C | 0% | 0hPa | 0V | 00:00:00 | 00:00:00 | 00:00:00 | |
| KRY50SP | 2026-08-30 14:38:19 | 52.54223 | 17.79198 | 79° | 88km/h | 10830m | 3.2m/s | 0°C | 0% | 0hPa | 0V | 00:00:00 | 00:00:00 | 00:00:00 | |
| KRY50SP-1 | 2026-08-30 14:38:16 | 52.54217 | 17.79101 | 84° | 89km/h | 10821m | 1.3m/s | 0°C | 0% | 0hPa | 0V | 00:00:00 | 00:00:00 | 00:00:00 | |
| KRY50SP | 2026-08-30 14:38:13 | 52.54212 | 17.79009 | 88° | 80km/h | 10810m | 2.3m/s | 0°C | 0% | 0hPa | 0V | 00:00:00 | 00:00:00 | 00:00:00 | |
| KRY50SP-1 | 2026-08-30 14:38:10 | 52.54208 | 17.78914 | 86° | 77km/h | 10800m | 4.0m/s | 0°C | 0% | 0hPa | 0V | 00:00:00 | 00:00:00 | 00:00:00 | |
| KRY50SP | 2026-08-30 14:38:08 | 52.54203 | 17.78851 | 89° | 91km/h | 10796m | 0.9m/s | 0°C | 0% | 0hPa | 0V | 00:00:00 | 00:00:00 | 00:00:00 | |
| KRY50SP-1 | 2026-08-30 14:38:04 | 52.54197 | 17.78727 | 92° | 60km/h | 10784m | 1.1m/s | 0°C | 0% | 0hPa | 0V | 00:00:00 | 00:00:00 | 00:00:00 | |
| SP6BVK | 2026-08-30 14:38:00 | 52.54192 | 17.78601 | 79° | 89km/h | 10773m | 1.9m/s | 0°C | 0% | 0hPa | 0V | 00:00:00 | 00:00:00 | 00:00:00 | |
| SP3WXH-11 | 2026-08-30 14:37:58 | 52.54186 | 17.78506 | 79° | 78km/h | 10763m | 1.8m/s | 0°C | -1.0% | -1.0hPa | 0V | 00:00:00 | 00:00:00 | 00:00:00 | |
| KRY50SP | 2026-08-30 14:37:56 | 52.54185 | 17.78476 | 100° | 68km/h | 10762m | 1.9m/s | 0°C | 0% | 0hPa | 0V | 00:00:00 | 00:00:00 | 00:00:00 | |
| SP3BTT-10 | 2026-08-30 14:37:55 | 52.54185 | 17.78446 | 80° | 75km/h | 10758m | 5.7m/s | 0°C | 0% | 0hPa | 0V | 00:00:00 | 00:00:00 | 00:00:00 | |
| KRY50SP-1 | 2026-08-30 14:37:53 | 52.54182 | 17.78384 | 93° | 68km/h | 10751m | 1.5m/s | 0°C | 0% | 0hPa | 0V | 00:00:00 | 00:00:00 | 00:00:00 | |
| KRY50SP | 2026-08-30 14:37:50 | 52.54179 | 17.78291 | 86° | 69km/h | 10741m | 2.6m/s | 0°C | 0% | 0hPa | 0V | 00:00:00 | 00:00:00 | 00:00:00 | |
| KRY50SP-1 | 2026-08-30 14:37:47 | 52.54176 | 17.78201 | 87° | 78km/h | 10733m | 4.3m/s | 0°C | 0% | 0hPa | 0V | 00:00:00 | 00:00:00 | 00:00:00 | |
| KRY50SP | 2026-08-30 14:37:42 | 52.54170 | 17.78047 | 91° | 75km/h | 10718m | 2.6m/s | 0°C | 0% | 0hPa | 0V | 00:00:00 | 00:00:00 | 00:00:00 | |
| KRY50SP-1 | 2026-08-30 14:37:41 | 52.54168 | 17.78015 | 78° | 82km/h | 10716m | 1.1m/s | 0°C | 0% | 0hPa | 0V | 00:00:00 | 00:00:00 | 00:00:00 | |
| KRY50SP-1 | 2026-08-30 14:37:37 | 52.54165 | 17.77864 | 79° | 78km/h | 10701m | 3.4m/s | 0°C | 0% | 0hPa | 0V | 00:00:00 | 00:00:00 | 00:00:00 | |
| KRY50SP | 2026-08-30 14:37:36 | 52.54165 | 17.77864 | 79° | 78km/h | 10701m | 3.4m/s | 0°C | 0% | 0hPa | 0V | 00:00:00 | 00:00:00 | 00:00:00 | |
| SP6BVK | 2026-08-30 14:37:34 | 52.54163 | 17.77802 | 90° | 73km/h | 10693m | 3.0m/s | 0°C | 0% | 0hPa | 0V | 00:00:00 | 00:00:00 | 00:00:00 | |
| KRY50SP | 2026-08-30 14:37:30 | 52.54159 | 17.77679 | 86° | 75km/h | 10681m | 3.0m/s | 0°C | 0% | 0hPa | 0V | 00:00:00 | 00:00:00 | 00:00:00 | |
| SP3WXH-11 | 2026-08-30 14:37:27 | 52.54153 | 17.77527 | 75° | 77km/h | 10667m | 0.9m/s | 0°C | -1.0% | -1.0hPa | 0V | 00:00:00 | 00:00:00 | 00:00:00 | |
| KRY50SP-1 | 2026-08-30 14:37:25 | 52.54153 | 17.77526 | 76° | 77km/h | 10667m | 0.9m/s | 0°C | 0% | 0hPa | 0V | 00:00:00 | 00:00:00 | 00:00:00 | |
| KRY50SP | 2026-08-30 14:37:24 | 52.54151 | 17.77497 | 95° | 69km/h | 10665m | 5.0m/s | 0°C | 0% | 0hPa | 0V | 00:00:00 | 00:00:00 | 00:00:00 | |
| KRY50SP | 2026-08-30 14:37:19 | 52.54145 | 17.77345 | 88° | 69km/h | 10647m | 4.4m/s | 0°C | 0% | 0hPa | 0V | 00:00:00 | 00:00:00 | 00:00:00 | |
| KRY50SP-1 | 2026-08-30 14:37:14 | 52.54139 | 17.77196 | 85° | 68km/h | 10631m | 2.5m/s | 0°C | 0% | 0hPa | 0V | 00:00:00 | 00:00:00 | 00:00:00 | |
| KRY50SP | 2026-08-30 14:37:13 | 52.54138 | 17.77165 | 92° | 84km/h | 10630m | 0.5m/s | 0°C | 0% | 0hPa | 0V | 00:00:00 | 00:00:00 | 00:00:00 | |
| SP3BTT-10 | 2026-08-30 14:37:09 | 52.54132 | 17.77046 | 81° | 77km/h | 10617m | 1.6m/s | 0°C | 0% | 0hPa | 0V | 00:00:00 | 00:00:00 | 00:00:00 | |
| KRY50SP | 2026-08-30 14:37:08 | 52.54131 | 17.77016 | 93° | 84km/h | 10615m | 2.6m/s | 0°C | 0% | 0hPa | 0V | 00:00:00 | 00:00:00 | 00:00:00 | |
| SP6BVK | 2026-08-30 14:37:05 | 52.54128 | 17.76922 | 85° | 86km/h | 10606m | 1.7m/s | 0°C | 0% | 0hPa | 0V | 00:00:00 | 00:00:00 | 00:00:00 | |
| KRY50SP | 2026-08-30 14:37:02 | 52.54123 | 17.76832 | 82° | 73km/h | 10594m | 3.0m/s | 0°C | 0% | 0hPa | 0V | 00:00:00 | 00:00:00 | 00:00:00 | |
| KRY50SP-1 | 2026-08-30 14:37:01 | 52.54121 | 17.76803 | 93° | 69km/h | 10592m | 0.5m/s | 0°C | 0% | 0hPa | 0V | 00:00:00 | 00:00:00 | 00:00:00 | |
| SP3WXH-11 | 2026-08-30 14:36:56 | 52.54111 | 17.76617 | 77° | 75km/h | 10574m | 5.6m/s | 0°C | -1.0% | -1.0hPa | 0V | 00:00:00 | 00:00:00 | 00:00:00 | |
| KRY50SP | 2026-08-30 14:36:51 | 52.54103 | 17.76495 | 90° | 78km/h | 10561m | 4.4m/s | 0°C | 0% | 0hPa | 0V | 00:00:00 | 00:00:00 | 00:00:00 | |
| KRY50SP-1 | 2026-08-30 14:36:50 | 52.54102 | 17.76462 | 88° | 78km/h | 10557m | 3.0m/s | 0°C | 0% | 0hPa | 0V | 00:00:00 | 00:00:00 | 00:00:00 | |
| KRY50SP | 2026-08-30 14:36:45 | 52.54094 | 17.76307 | 92° | 84km/h | 10542m | 0.9m/s | 0°C | 0% | 0hPa | 0V | 00:00:00 | 00:00:00 | 00:00:00 | |
| KRY50SP-1 | 2026-08-30 14:36:40 | 52.54086 | 17.76156 | 91° | 88km/h | 10528m | 3.2m/s | 0°C | 0% | 0hPa | 0V | 00:00:00 | 00:00:00 | 00:00:00 | |
| KRY50SP | 2026-08-30 14:36:39 | 52.54085 | 17.76124 | 85° | 69km/h | 10524m | 4.4m/s | 0°C | 0% | 0hPa | 0V | 00:00:00 | 00:00:00 | 00:00:00 | |
| KRY50SP | 2026-08-30 14:36:33 | 52.54074 | 17.75942 | 84° | 66km/h | 10505m | 0.9m/s | 0°C | 0% | 0hPa | 0V | 00:00:00 | 00:00:00 | 00:00:00 | |
| KRY50SP-1 | 2026-08-30 14:36:30 | 52.54071 | 17.75846 | 83° | 75km/h | 10495m | 3.0m/s | 0°C | 0% | 0hPa | 0V | 00:00:00 | 00:00:00 | 00:00:00 | |
| KRY50SP | 2026-08-30 14:36:27 | 52.54066 | 17.75753 | 88° | 84km/h | 10488m | 4.6m/s | 0°C | 0% | 0hPa | 0V | 00:00:00 | 00:00:00 | 00:00:00 | |
| SP3WXH-11 | 2026-08-30 14:36:25 | 52.54061 | 17.75656 | 83° | 91km/h | 10479m | 1.2m/s | 0°C | -1.0% | -1.0hPa | 0V | 00:00:00 | 00:00:00 | 00:00:00 | |
| SP6BVK | 2026-08-30 14:36:24 | 52.54061 | 17.75656 | 84° | 93km/h | 10479m | 1.2m/s | 0°C | 0% | 0hPa | 0V | 00:00:00 | 00:00:00 | 00:00:00 | |
| KRY50SP-1 | 2026-08-30 14:36:22 | 52.54057 | 17.75593 | 85° | 73km/h | 10470m | 3.3m/s | 0°C | 0% | 0hPa | 0V | 00:00:00 | 00:00:00 | 00:00:00 | |
| KRY50SP | 2026-08-30 14:36:20 | 52.54054 | 17.75530 | 95° | 62km/h | 10466m | 4.0m/s | 0°C | 0% | 0hPa | 0V | 00:00:00 | 00:00:00 | 00:00:00 | |
| SP3BTT-10 | 2026-08-30 14:36:19 | 52.54053 | 17.75501 | 82° | 75km/h | 10461m | 4.9m/s | 0°C | 0% | 0hPa | 0V | 00:00:00 | 00:00:00 | 00:00:00 | |
| KRY50SP | 2026-08-30 14:36:15 | 52.54044 | 17.75372 | 89° | 75km/h | 10448m | 5.2m/s | 0°C | 0% | 0hPa | 0V | 00:00:00 | 00:00:00 | 00:00:00 | |
| KRY50SP | 2026-08-30 14:36:10 | 52.54034 | 17.75217 | 85° | 78km/h | 10431m | 2.3m/s | 0°C | 0% | 0hPa | 0V | 00:00:00 | 00:00:00 | 00:00:00 | |
| KRY50SP | 2026-08-30 14:36:01 | 52.54020 | 17.74940 | 88° | 66km/h | 10404m | 0.7m/s | 0°C | 0% | 0hPa | 0V | 00:00:00 | 00:00:00 | 00:00:00 | |
| SP3WXH-11 | 2026-08-30 14:35:54 | 52.54006 | 17.74664 | 77° | 86km/h | 10378m | 0.8m/s | 0°C | -1.0% | -1.0hPa | 0V | 00:00:00 | 00:00:00 | 00:00:00 | |
| KRY50SP | 2026-08-30 14:35:48 | 52.53998 | 17.74543 | 98° | 71km/h | 10366m | 3.0m/s | 0°C | 0% | 0hPa | 0V | 00:00:00 | 00:00:00 | 00:00:00 | |
| KRY50SP | 2026-08-30 14:35:43 | 52.53989 | 17.74393 | 93° | 75km/h | 10349m | 5.2m/s | 0°C | 0% | 0hPa | 0V | 00:00:00 | 00:00:00 | 00:00:00 | |
| SP6BVK | 2026-08-30 14:35:38 | 52.53983 | 17.74240 | 86° | 69km/h | 10333m | 2.9m/s | 0°C | 0% | 0hPa | 0V | 00:00:00 | 00:00:00 | 00:00:00 | |
| SP3BTT-10 | 2026-08-30 14:35:34 | 52.53977 | 17.74117 | 86° | 75km/h | 10323m | 1.5m/s | 0°C | 0% | 0hPa | 0V | 00:00:00 | 00:00:00 | 00:00:00 | |
| KRY50SP | 2026-08-30 14:35:32 | 52.53973 | 17.74058 | 84° | 89km/h | 10318m | 4.7m/s | 0°C | 0% | 0hPa | 0V | 00:00:00 | 00:00:00 | 00:00:00 | |
| KRY50SP | 2026-08-30 14:35:26 | 52.53962 | 17.73870 | 81° | 77km/h | 10297m | 2.0m/s | 0°C | 0% | 0hPa | 0V | 00:00:00 | 00:00:00 | 00:00:00 | |
| SP3WXH-11 | 2026-08-30 14:35:23 | 52.53954 | 17.73747 | 86° | 71km/h | 10285m | 2.5m/s | 0°C | -1.0% | -1.0hPa | 0V | 00:00:00 | 00:00:00 | 00:00:00 | |
| KRY50SP | 2026-08-30 14:35:21 | 52.53951 | 17.73714 | 82° | 84km/h | 10283m | 1.1m/s | 0°C | 0% | 0hPa | 0V | 00:00:00 | 00:00:00 | 00:00:00 | |
| SP6BVK | 2026-08-30 14:35:17 | 52.53944 | 17.73593 | 91° | 66km/h | 10269m | 1.8m/s | 0°C | 0% | 0hPa | 0V | 00:00:00 | 00:00:00 | 00:00:00 | |
| KRY50SP | 2026-08-30 14:35:15 | 52.53940 | 17.73531 | 93° | 66km/h | 10264m | 4.9m/s | 0°C | 0% | 0hPa | 0V | 00:00:00 | 00:00:00 | 00:00:00 | |
| KRY50SP | 2026-08-30 14:35:10 | 52.53931 | 17.73379 | 85° | 73km/h | 10247m | 4.2m/s | 0°C | 0% | 0hPa | 0V | 00:00:00 | 00:00:00 | 00:00:00 | |
| KRY50SP | 2026-08-30 14:35:04 | 52.53922 | 17.73197 | 97° | 75km/h | 10229m | 2.6m/s | 0°C | 0% | 0hPa | 0V | 00:00:00 | 00:00:00 | 00:00:00 | |
| SP3WXH-11 | 2026-08-30 14:34:52 | 52.53899 | 17.72795 | 93° | 82km/h | 10190m | 4.0m/s | 0°C | -1.0% | -1.0hPa | 0V | 00:00:00 | 00:00:00 | 00:00:00 | |
| SP3BTT-10 | 2026-08-30 14:34:49 | 52.53895 | 17.72732 | 83° | 77km/h | 10182m | 1.8m/s | 0°C | 0% | 0hPa | 0V | 00:00:00 | 00:00:00 | 00:00:00 | |
| KRY50SP | 2026-08-30 14:34:40 | 52.53880 | 17.72454 | 97° | 69km/h | 10157m | 3.1m/s | 0°C | 0% | 0hPa | 0V | 00:00:00 | 00:00:00 | 00:00:00 | |
| KRY50SP | 2026-08-30 14:34:35 | 52.53871 | 17.72298 | 91° | 73km/h | 10141m | 5.4m/s | 0°C | 0% | 0hPa | 0V | 00:00:00 | 00:00:00 | 00:00:00 | |
| SP6BVK | 2026-08-30 14:34:33 | 52.53868 | 17.72235 | 79° | 73km/h | 10134m | 1.1m/s | 0°C | 0% | 0hPa | 0V | 00:00:00 | 00:00:00 | 00:00:00 | |
| KRY50SP-1 | 2026-08-30 14:34:29 | 52.53863 | 17.72106 | 89° | 84km/h | 10122m | 1.0m/s | 0°C | 0% | 0hPa | 0V | 00:00:00 | 00:00:00 | 00:00:00 | |
| KRY50SP | 2026-08-30 14:34:24 | 52.53853 | 17.71951 | 88° | 93km/h | 10106m | 3.1m/s | 0°C | 0% | 0hPa | 0V | 00:00:00 | 00:00:00 | 00:00:00 | |
| KRY50SP-1 | 2026-08-30 14:34:23 | 52.53851 | 17.71917 | 82° | 71km/h | 10103m | 4.8m/s | 0°C | 0% | 0hPa | 0V | 00:00:00 | 00:00:00 | 00:00:00 | |
| SP3WXH-11 | 2026-08-30 14:34:21 | 52.53845 | 17.71824 | 89° | 62km/h | 10093m | 1.5m/s | 0°C | -1.0% | -1.0hPa | 0V | 00:00:00 | 00:00:00 | 00:00:00 | |
| KRY50SP | 2026-08-30 14:34:19 | 52.53844 | 17.71793 | 85° | 88km/h | 10090m | 4.6m/s | 0°C | 0% | 0hPa | 0V | 00:00:00 | 00:00:00 | 00:00:00 | |
| KRY50SP-1 | 2026-08-30 14:34:18 | 52.53842 | 17.71760 | 83° | 75km/h | 10086m | 3.4m/s | 0°C | 0% | 0hPa | 0V | 00:00:00 | 00:00:00 | 00:00:00 | |
| KRY50SP | 2026-08-30 14:34:14 | 52.53834 | 17.71632 | 86° | 78km/h | 10075m | 4.4m/s | 0°C | 0% | 0hPa | 0V | 00:00:00 | 00:00:00 | 00:00:00 | |
| KRY50SP-1 | 2026-08-30 14:34:12 | 52.53831 | 17.71569 | 95° | 66km/h | 10070m | 1.2m/s | 0°C | 0% | 0hPa | 0V | 00:00:00 | 00:00:00 | 00:00:00 | |
| SP6BVK | 2026-08-30 14:34:09 | 52.53825 | 17.71472 | 88° | 71km/h | 10059m | 2.0m/s | 0°C | 0% | 0hPa | 0V | 00:00:00 | 00:00:00 | 00:00:00 | |
| KRY50SP | 2026-08-30 14:34:08 | 52.53822 | 17.71438 | 79° | 91km/h | 10056m | 3.5m/s | 0°C | 0% | 0hPa | 0V | 00:00:00 | 00:00:00 | 00:00:00 | |
| KRY50SP-1 | 2026-08-30 14:34:05 | 52.53815 | 17.71341 | 81° | 84km/h | 10046m | 1.7m/s | 0°C | 0% | 0hPa | 0V | 00:00:00 | 00:00:00 | 00:00:00 | |
| SP3BTT-10 | 2026-08-30 14:34:04 | 52.53814 | 17.71310 | 92° | 80km/h | 10044m | 2.0m/s | 0°C | 0% | 0hPa | 0V | 00:00:00 | 00:00:00 | 00:00:00 | |
| KRY50SP | 2026-08-30 14:34:03 | 52.53812 | 17.71278 | 81° | 86km/h | 10040m | 4.8m/s | 0°C | 0% | 0hPa | 0V | 00:00:00 | 00:00:00 | 00:00:00 | |
| KRY50SP-1 | 2026-08-30 14:34:00 | 52.53804 | 17.71180 | 74° | 86km/h | 10031m | 1.2m/s | 0°C | 0% | 0hPa | 0V | 00:00:00 | 00:00:00 | 00:00:00 | |
| SP3WXH-11 | 2026-08-30 14:33:50 | 52.53781 | 17.70819 | 79° | 78km/h | 9993m | 2.3m/s | 0°C | -1.0% | -1.0hPa | 0V | 00:00:00 | 00:00:00 | 00:00:00 | |
| SP6BVK | 2026-08-30 14:33:48 | 52.53780 | 17.70785 | 92° | 88km/h | 9992m | 1.1m/s | 0°C | 0% | 0hPa | 0V | 00:00:00 | 00:00:00 | 00:00:00 | |
| KRY50SP | 2026-08-30 14:33:45 | 52.53773 | 17.70686 | 88° | 78km/h | 9981m | 2.5m/s | 0°C | 0% | 0hPa | 0V | 00:00:00 | 00:00:00 | 00:00:00 | |
| KRY50SP-1 | 2026-08-30 14:33:43 | 52.53768 | 17.70621 | 95° | 82km/h | 9977m | 3.2m/s | 0°C | 0% | 0hPa | 0V | 00:00:00 | 00:00:00 | 00:00:00 | |
| KRY50SP | 2026-08-30 14:33:40 | 52.53762 | 17.70521 | 92° | 88km/h | 9966m | 1.6m/s | 0°C | 0% | 0hPa | 0V | 00:00:00 | 00:00:00 | 00:00:00 | |
| KRY50SP-1 | 2026-08-30 14:33:38 | 52.53756 | 17.70456 | 88° | 82km/h | 9959m | 4.8m/s | 0°C | 0% | 0hPa | 0V | 00:00:00 | 00:00:00 | 00:00:00 | |
| KRY50SP | 2026-08-30 14:33:35 | 52.53749 | 17.70356 | 92° | 91km/h | 9952m | 3.2m/s | 0°C | 0% | 0hPa | 0V | 00:00:00 | 00:00:00 | 00:00:00 | |
| KRY50SP-1 | 2026-08-30 14:33:32 | 52.53744 | 17.70254 | 90° | 88km/h | 9941m | 0.9m/s | 0°C | 0% | 0hPa | 0V | 00:00:00 | 00:00:00 | 00:00:00 | |
| KRY50SP | 2026-08-30 14:33:29 | 52.53736 | 17.70156 | 84° | 86km/h | 9930m | 3.0m/s | 0°C | 0% | 0hPa | 0V | 00:00:00 | 00:00:00 | 00:00:00 | |
| SP6BVK | 2026-08-30 14:33:28 | 52.53733 | 17.70124 | 80° | 75km/h | 9928m | 1.4m/s | 0°C | 0% | 0hPa | 0V | 00:00:00 | 00:00:00 | 00:00:00 | |
| KRY50SP-1 | 2026-08-30 14:33:27 | 52.53731 | 17.70090 | 91° | 93km/h | 9926m | 2.5m/s | 0°C | 0% | 0hPa | 0V | 00:00:00 | 00:00:00 | 00:00:00 | |
| KRY50SP | 2026-08-30 14:33:23 | 52.53720 | 17.69957 | 81° | 68km/h | 9912m | 2.3m/s | 0°C | 0% | 0hPa | 0V | 00:00:00 | 00:00:00 | 00:00:00 | |
| KRY50SP-1 | 2026-08-30 14:33:21 | 52.53716 | 17.69888 | 84° | 82km/h | 9905m | 4.0m/s | 0°C | 0% | 0hPa | 0V | 00:00:00 | 00:00:00 | 00:00:00 | |
| SP3WXH-11 | 2026-08-30 14:33:19 | 52.53707 | 17.69787 | 83° | 68km/h | 9897m | 5.1m/s | 0°C | -1.0% | -1.0hPa | 0V | 00:00:00 | 00:00:00 | 00:00:00 | |
| SP3BTT-10 | 2026-08-30 14:33:18 | 52.53707 | 17.69787 | 84° | 84km/h | 9897m | 5.0m/s | 0°C | 0% | 0hPa | 0V | 00:00:00 | 00:00:00 | 00:00:00 | |
| KRY50SP | 2026-08-30 14:33:17 | 52.53705 | 17.69757 | 86° | 80km/h | 9892m | 4.3m/s | 0°C | 0% | 0hPa | 0V | 00:00:00 | 00:00:00 | 00:00:00 | |
| KRY50SP-1 | 2026-08-30 14:33:15 | 52.53700 | 17.69691 | 92° | 71km/h | 9887m | 0.8m/s | 0°C | 0% | 0hPa | 0V | 00:00:00 | 00:00:00 | 00:00:00 | |
| KRY50SP | 2026-08-30 14:33:11 | 52.53688 | 17.69556 | 73° | 88km/h | 9875m | 2.2m/s | 0°C | 0% | 0hPa | 0V | 00:00:00 | 00:00:00 | 00:00:00 | |
| KRY50SP-1 | 2026-08-30 14:33:10 | 52.53684 | 17.69523 | 91° | 75km/h | 9871m | 5.1m/s | 0°C | 0% | 0hPa | 0V | 00:00:00 | 00:00:00 | 00:00:00 | |
| SP6BVK | 2026-08-30 14:33:07 | 52.53677 | 17.69422 | 93° | 82km/h | 9861m | 1.7m/s | 0°C | 0% | 0hPa | 0V | 00:00:00 | 00:00:00 | 00:00:00 | |
| KRY50SP | 2026-08-30 14:33:05 | 52.53671 | 17.69356 | 85° | 78km/h | 9854m | 4.3m/s | 0°C | 0% | 0hPa | 0V | 00:00:00 | 00:00:00 | 00:00:00 | |
| KRY50SP | 2026-08-30 14:32:59 | 52.53653 | 17.69155 | 90° | 88km/h | 9835m | 1.5m/s | 0°C | 0% | 0hPa | 0V | 00:00:00 | 00:00:00 | 00:00:00 | |
| KRY50SP-1 | 2026-08-30 14:32:54 | 52.53637 | 17.68989 | 92° | 95km/h | 9819m | 3.4m/s | 0°C | 0% | 0hPa | 0V | 00:00:00 | 00:00:00 | 00:00:00 | |
| KRY50SP | 2026-08-30 14:32:47 | 52.53618 | 17.68755 | 87° | 68km/h | 9796m | 2.7m/s | 0°C | 0% | 0hPa | 0V | 00:00:00 | 00:00:00 | 00:00:00 | |
| KRY50SP-1 | 2026-08-30 14:32:46 | 52.53616 | 17.68722 | 82° | 95km/h | 9792m | 3.8m/s | 0°C | 0% | 0hPa | 0V | 00:00:00 | 00:00:00 | 00:00:00 | |
| SP6BVK | 2026-08-30 14:32:44 | 52.53610 | 17.68654 | 86° | 78km/h | 9784m | 2.0m/s | 0°C | 0% | 0hPa | 0V | 00:00:00 | 00:00:00 | 00:00:00 | |
| KRY50SP | 2026-08-30 14:32:41 | 52.53602 | 17.68553 | 83° | 84km/h | 9775m | 4.8m/s | 0°C | 0% | 0hPa | 0V | 00:00:00 | 00:00:00 | 00:00:00 | |
| KRY50SP-1 | 2026-08-30 14:32:35 | 52.53585 | 17.68351 | 78° | 84km/h | 9755m | 1.4m/s | 0°C | 0% | 0hPa | 0V | 00:00:00 | 00:00:00 | 00:00:00 | |
| SP3BTT-10 | 2026-08-30 14:32:34 | 52.53583 | 17.68317 | 94° | 78km/h | 9753m | 3.0m/s | 0°C | 0% | 0hPa | 0V | 00:00:00 | 00:00:00 | 00:00:00 | |
| KRY50SP-1 | 2026-08-30 14:32:29 | 52.53571 | 17.68151 | 90° | 82km/h | 9735m | 4.8m/s | 0°C | 0% | 0hPa | 0V | 00:00:00 | 00:00:00 | 00:00:00 | |
| KRY50SP | 2026-08-30 14:32:28 | 52.53570 | 17.68117 | 86° | 82km/h | 9731m | 3.8m/s | 0°C | 0% | 0hPa | 0V | 00:00:00 | 00:00:00 | 00:00:00 | |
| SP6BVK | 2026-08-30 14:32:23 | 52.53561 | 17.67949 | 91° | 77km/h | 9714m | 1.8m/s | 0°C | 0% | 0hPa | 0V | 00:00:00 | 00:00:00 | 00:00:00 | |
| KRY50SP-1 | 2026-08-30 14:32:17 | 52.53553 | 17.67752 | 83° | 84km/h | 9695m | 5.8m/s | 0°C | 0% | 0hPa | 0V | 00:00:00 | 00:00:00 | 00:00:00 | |
| KRY50SP | 2026-08-30 14:32:16 | 52.53551 | 17.67718 | 89° | 80km/h | 9691m | 2.8m/s | 0°C | 0% | 0hPa | 0V | 00:00:00 | 00:00:00 | 00:00:00 | |
| KRY50SP | 2026-08-30 14:32:11 | 52.53544 | 17.67552 | 84° | 93km/h | 9676m | 1.8m/s | 0°C | 0% | 0hPa | 0V | 00:00:00 | 00:00:00 | 00:00:00 | |
| KRY50SP-1 | 2026-08-30 14:32:06 | 52.53538 | 17.67390 | 81° | 91km/h | 9659m | 3.8m/s | 0°C | 0% | 0hPa | 0V | 00:00:00 | 00:00:00 | 00:00:00 | |
| KRY50SP | 2026-08-30 14:32:05 | 52.53535 | 17.67357 | 89° | 73km/h | 9655m | 4.8m/s | 0°C | 0% | 0hPa | 0V | 00:00:00 | 00:00:00 | 00:00:00 | |
| KRY50SP | 2026-08-30 14:32:00 | 52.53530 | 17.67196 | 85° | 73km/h | 9637m | 3.4m/s | 0°C | 0% | 0hPa | 0V | 00:00:00 | 00:00:00 | 00:00:00 | |
| SP3WXH-11 | 2026-08-30 14:31:45 | 52.53508 | 17.66722 | 84° | 68km/h | 9587m | 5.8m/s | 0°C | -1.0% | -1.0hPa | 0V | 00:00:00 | 00:00:00 | 00:00:00 | |
| KRY50SP | 2026-08-30 14:31:44 | 52.53505 | 17.66690 | 84° | 82km/h | 9583m | 2.9m/s | 0°C | 0% | 0hPa | 0V | 00:00:00 | 00:00:00 | 00:00:00 | |
| SP6BVK | 2026-08-30 14:31:39 | 52.53498 | 17.66533 | 81° | 80km/h | 9568m | 0.7m/s | 0°C | 0% | 0hPa | 0V | 00:00:00 | 00:00:00 | 00:00:00 | |
| KRY50SP-1 | 2026-08-30 14:31:38 | 52.53497 | 17.66503 | 100° | 66km/h | 9566m | 3.6m/s | 0°C | 0% | 0hPa | 0V | 00:00:00 | 00:00:00 | 00:00:00 | |
| KRY50SP-1 | 2026-08-30 14:31:33 | 52.53491 | 17.66351 | 94° | 71km/h | 9547m | 5.7m/s | 0°C | 0% | 0hPa | 0V | 00:00:00 | 00:00:00 | 00:00:00 | |
| KRY50SP | 2026-08-30 14:31:27 | 52.53485 | 17.66172 | 94° | 77km/h | 9525m | 1.9m/s | 0°C | 0% | 0hPa | 0V | 00:00:00 | 00:00:00 | 00:00:00 | |
| KRY50SP | 2026-08-30 14:31:20 | 52.53478 | 17.65963 | 85° | 69km/h | 9501m | 2.2m/s | 0°C | 0% | 0hPa | 0V | 00:00:00 | 00:00:00 | 00:00:00 | |
| KRY50SP-1 | 2026-08-30 14:31:19 | 52.53479 | 17.65932 | 97° | 78km/h | 9498m | 2.5m/s | 0°C | 0% | 0hPa | 0V | 00:00:00 | 00:00:00 | 00:00:00 | |
| KRY50SP-1 | 2026-08-30 14:31:14 | 52.53474 | 17.65784 | 101° | 73km/h | 9481m | 3.2m/s | 0°C | 0% | 0hPa | 0V | 00:00:00 | 00:00:00 | 00:00:00 | |
| SP6BVK | 2026-08-30 14:31:12 | 52.53473 | 17.65725 | 87° | 71km/h | 9472m | 3.5m/s | 0°C | 0% | 0hPa | 0V | 00:00:00 | 00:00:00 | 00:00:00 | |
| KRY50SP | 2026-08-30 14:31:09 | 52.53468 | 17.65639 | 98° | 68km/h | 9463m | 3.6m/s | 0°C | 0% | 0hPa | 0V | 00:00:00 | 00:00:00 | 00:00:00 | |
| KRY50SP-1 | 2026-08-30 14:31:07 | 52.53468 | 17.65582 | 83° | 68km/h | 9455m | 1.6m/s | 0°C | 0% | 0hPa | 0V | 00:00:00 | 00:00:00 | 00:00:00 | |
| SP3BTT-10 | 2026-08-30 14:31:03 | 52.53462 | 17.65468 | 89° | 66km/h | 9441m | 2.1m/s | 0°C | 0% | 0hPa | 0V | 00:00:00 | 00:00:00 | 00:00:00 | |
| KRY50SP-1 | 2026-08-30 14:31:01 | 52.53457 | 17.65413 | 96° | 75km/h | 9436m | 5.2m/s | 0°C | 0% | 0hPa | 0V | 00:00:00 | 00:00:00 | 00:00:00 | |
| SP3WXH-11 | 2026-08-30 14:30:43 | 52.53430 | 17.64881 | 88° | 75km/h | 9367m | 1.8m/s | 0°C | -1.0% | -1.0hPa | 0V | 00:00:00 | 00:00:00 | 00:00:00 | |
| KRY50SP | 2026-08-30 14:30:39 | 52.53424 | 17.64802 | 85° | 68km/h | 9355m | 3.6m/s | 0°C | 0% | 0hPa | 0V | 00:00:00 | 00:00:00 | 00:00:00 | |
| KRY50SP | 2026-08-30 14:30:34 | 52.53417 | 17.64669 | 86° | 71km/h | 9337m | 1.5m/s | 0°C | 0% | 0hPa | 0V | 00:00:00 | 00:00:00 | 00:00:00 | |
| KRY50SP-1 | 2026-08-30 14:30:33 | 52.53415 | 17.64644 | 83° | 49km/h | 9335m | 2.0m/s | 0°C | 0% | 0hPa | 0V | 00:00:00 | 00:00:00 | 00:00:00 | |
| SP6BVK | 2026-08-30 14:30:30 | 52.53410 | 17.64565 | 86° | 60km/h | 9323m | 2.1m/s | 0°C | 0% | 0hPa | 0V | 00:00:00 | 00:00:00 | 00:00:00 | |
| KRY50SP | 2026-08-30 14:30:28 | 52.53405 | 17.64510 | 90° | 49km/h | 9318m | 5.3m/s | 0°C | 0% | 0hPa | 0V | 00:00:00 | 00:00:00 | 00:00:00 | |
| KRY50SP-1 | 2026-08-30 14:30:27 | 52.53405 | 17.64486 | 87° | 64km/h | 9313m | 4.9m/s | 0°C | 0% | 0hPa | 0V | 00:00:00 | 00:00:00 | 00:00:00 | |
| KRY50SP-1 | 2026-08-30 14:30:22 | 52.53395 | 17.64352 | 88° | 66km/h | 9296m | 2.3m/s | 0°C | 0% | 0hPa | 0V | 00:00:00 | 00:00:00 | 00:00:00 | |
| SP3BTT-10 | 2026-08-30 14:30:18 | 52.53385 | 17.64246 | 78° | 62km/h | 9282m | 1.9m/s | 0°C | 0% | 0hPa | 0V | 00:00:00 | 00:00:00 | 00:00:00 | |
| KRY50SP-1 | 2026-08-30 14:30:17 | 52.53384 | 17.64220 | 96° | 62km/h | 9280m | 1.3m/s | 0°C | 0% | 0hPa | 0V | 00:00:00 | 00:00:00 | 00:00:00 | |
| SP6BVK | 2026-08-30 14:30:09 | 52.53365 | 17.64010 | 94° | 66km/h | 9252m | 1.1m/s | 0°C | 0% | 0hPa | 0V | 00:00:00 | 00:00:00 | 00:00:00 | |
| KRY50SP | 2026-08-30 14:30:06 | 52.53357 | 17.63934 | 83° | 64km/h | 9241m | 3.1m/s | 0°C | 0% | 0hPa | 0V | 00:00:00 | 00:00:00 | 00:00:00 | |
| KRY50SP | 2026-08-30 14:30:01 | 52.53344 | 17.63806 | 81° | 71km/h | 9226m | 1.1m/s | 0°C | 0% | 0hPa | 0V | 00:00:00 | 00:00:00 | 00:00:00 | |
| KRY50SP-1 | 2026-08-30 14:29:56 | 52.53330 | 17.63680 | 79° | 75km/h | 9210m | 1.3m/s | 0°C | 0% | 0hPa | 0V | 00:00:00 | 00:00:00 | 00:00:00 | |
| KRY50SP | 2026-08-30 14:29:50 | 52.53314 | 17.63528 | 81° | 60km/h | 9189m | 4.1m/s | 0°C | 0% | 0hPa | 0V | 00:00:00 | 00:00:00 | 00:00:00 | |
| SP6BVK | 2026-08-30 14:29:48 | 52.53308 | 17.63477 | 77° | 71km/h | 9182m | 1.9m/s | 0°C | 0% | 0hPa | 0V | 00:00:00 | 00:00:00 | 00:00:00 | |
| KRY50SP-1 | 2026-08-30 14:29:45 | 52.53300 | 17.63401 | 81° | 64km/h | 9172m | 3.7m/s | 0°C | 0% | 0hPa | 0V | 00:00:00 | 00:00:00 | 00:00:00 | |
| KRY50SP | 2026-08-30 14:29:44 | 52.53298 | 17.63377 | 84° | 53km/h | 9169m | 0.6m/s | 0°C | 0% | 0hPa | 0V | 00:00:00 | 00:00:00 | 00:00:00 | |
| SP3WXH-11 | 2026-08-30 14:29:41 | 52.53287 | 17.63274 | 85° | 69km/h | 9157m | 1.6m/s | 0°C | -1.0% | -1.0hPa | 0V | 00:00:00 | 00:00:00 | 00:00:00 | |
| KRY50SP | 2026-08-30 14:29:39 | 52.53284 | 17.63249 | 70° | 51km/h | 9154m | 2.7m/s | 0°C | 0% | 0hPa | 0V | 00:00:00 | 00:00:00 | 00:00:00 | |
| SP3BTT-10 | 2026-08-30 14:29:33 | 52.53266 | 17.63095 | 79° | 68km/h | 9133m | 3.5m/s | 0°C | 0% | 0hPa | 0V | 00:00:00 | 00:00:00 | 00:00:00 | |
| SP6BVK | 2026-08-30 14:29:28 | 52.53251 | 17.62969 | 76° | 58km/h | 9116m | 2.4m/s | 0°C | 0% | 0hPa | 0V | 00:00:00 | 00:00:00 | 00:00:00 | |
| KRY50SP-1 | 2026-08-30 14:29:25 | 52.53242 | 17.62892 | 86° | 64km/h | 9106m | 4.9m/s | 0°C | 0% | 0hPa | 0V | 00:00:00 | 00:00:00 | 00:00:00 | |
| KRY50SP | 2026-08-30 14:29:22 | 52.53234 | 17.62814 | 85° | 77km/h | 9096m | 2.5m/s | 0°C | 0% | 0hPa | 0V | 00:00:00 | 00:00:00 | 00:00:00 | |
| KRY50SP-1 | 2026-08-30 14:29:19 | 52.53225 | 17.62736 | 84° | 69km/h | 9085m | 1.6m/s | 0°C | 0% | 0hPa | 0V | 00:00:00 | 00:00:00 | 00:00:00 | |
| KRY50SP | 2026-08-30 14:29:17 | 52.53219 | 17.62687 | 83° | 75km/h | 9079m | 6.0m/s | 0°C | 0% | 0hPa | 0V | 00:00:00 | 00:00:00 | 00:00:00 | |
| KRY50SP-1 | 2026-08-30 14:29:14 | 52.53210 | 17.62607 | 81° | 75km/h | 9070m | 1.8m/s | 0°C | 0% | 0hPa | 0V | 00:00:00 | 00:00:00 | 00:00:00 | |
| KRY50SP | 2026-08-30 14:29:11 | 52.53201 | 17.62530 | 77° | 68km/h | 9058m | 3.0m/s | 0°C | 0% | 0hPa | 0V | 00:00:00 | 00:00:00 | 00:00:00 | |
| SP3WXH-11 | 2026-08-30 14:29:10 | 52.53195 | 17.62478 | 77° | 77km/h | 9053m | 2.0m/s | 0°C | -1.0% | -1.0hPa | 0V | 00:00:00 | 00:00:00 | 00:00:00 | |
| KRY50SP-1 | 2026-08-30 14:29:07 | 52.53190 | 17.62426 | 86° | 66km/h | 9045m | 3.8m/s | 0°C | 0% | 0hPa | 0V | 00:00:00 | 00:00:00 | 00:00:00 | |
| KRY50SP | 2026-08-30 14:29:04 | 52.53182 | 17.62347 | 74° | 75km/h | 9038m | 5.1m/s | 0°C | 0% | 0hPa | 0V | 00:00:00 | 00:00:00 | 00:00:00 | |
| KRY50SP-1 | 2026-08-30 14:29:01 | 52.53172 | 17.62268 | 71° | 71km/h | 9027m | 1.7m/s | 0°C | 0% | 0hPa | 0V | 00:00:00 | 00:00:00 | 00:00:00 | |
| KRY50SP-1 | 2026-08-30 14:28:55 | 52.53156 | 17.62109 | 88° | 66km/h | 9008m | 4.6m/s | 0°C | 0% | 0hPa | 0V | 00:00:00 | 00:00:00 | 00:00:00 | |
| KRY50SP | 2026-08-30 14:28:53 | 52.53151 | 17.62055 | 76° | 62km/h | 9001m | 1.9m/s | 0°C | 0% | 0hPa | 0V | 00:00:00 | 00:00:00 | 00:00:00 | |
| KRY50SP-1 | 2026-08-30 14:28:50 | 52.53142 | 17.61976 | 84° | 64km/h | 8990m | 4.4m/s | 0°C | 0% | 0hPa | 0V | 00:00:00 | 00:00:00 | 00:00:00 | |
| SP3BTT-10 | 2026-08-30 14:28:48 | 52.53137 | 17.61923 | 74° | 68km/h | 8985m | 1.4m/s | 0°C | 0% | 0hPa | 0V | 00:00:00 | 00:00:00 | 00:00:00 | |
| KRY50SP | 2026-08-30 14:28:47 | 52.53135 | 17.61894 | 89° | 80km/h | 8982m | 4.2m/s | 0°C | 0% | 0hPa | 0V | 00:00:00 | 00:00:00 | 00:00:00 | |
| KRY50SP-1 | 2026-08-30 14:28:45 | 52.53130 | 17.61838 | 78° | 64km/h | 8973m | 2.8m/s | 0°C | 0% | 0hPa | 0V | 00:00:00 | 00:00:00 | 00:00:00 | |
| KRY50SP | 2026-08-30 14:28:42 | 52.53123 | 17.61758 | 89° | 73km/h | 8965m | 5.3m/s | 0°C | 0% | 0hPa | 0V | 00:00:00 | 00:00:00 | 00:00:00 | |
| KRY50SP-1 | 2026-08-30 14:28:39 | 52.53115 | 17.61672 | 85° | 82km/h | 8956m | 1.9m/s | 0°C | 0% | 0hPa | 0V | 00:00:00 | 00:00:00 | 00:00:00 | |
| KRY50SP | 2026-08-30 14:28:36 | 52.53106 | 17.61589 | 82° | 73km/h | 8945m | 2.4m/s | 0°C | 0% | 0hPa | 0V | 00:00:00 | 00:00:00 | 00:00:00 | |
| KRY50SP-1 | 2026-08-30 14:28:34 | 52.53100 | 17.61533 | 83° | 84km/h | 8940m | 3.9m/s | 0°C | 0% | 0hPa | 0V | 00:00:00 | 00:00:00 | 00:00:00 | |
| KRY50SP | 2026-08-30 14:28:30 | 52.53089 | 17.61420 | 81° | 53km/h | 8927m | 2.7m/s | 0°C | 0% | 0hPa | 0V | 00:00:00 | 00:00:00 | 00:00:00 | |
| KRY50SP-1 | 2026-08-30 14:28:28 | 52.53082 | 17.61364 | 81° | 69km/h | 8919m | 3.9m/s | 0°C | 0% | 0hPa | 0V | 00:00:00 | 00:00:00 | 00:00:00 | |
| KRY50SP | 2026-08-30 14:28:24 | 52.53070 | 17.61255 | 81° | 68km/h | 8906m | 3.3m/s | 0°C | 0% | 0hPa | 0V | 00:00:00 | 00:00:00 | 00:00:00 | |
| KRY50SP-1 | 2026-08-30 14:28:23 | 52.53067 | 17.61226 | 77° | 73km/h | 8904m | 1.2m/s | 0°C | 0% | 0hPa | 0V | 00:00:00 | 00:00:00 | 00:00:00 | |
| KRY50SP | 2026-08-30 14:28:18 | 52.53053 | 17.61092 | 72° | 69km/h | 8889m | 1.3m/s | 0°C | 0% | 0hPa | 0V | 00:00:00 | 00:00:00 | 00:00:00 | |
| KRY50SP-1 | 2026-08-30 14:28:11 | 52.53034 | 17.60899 | 80° | 69km/h | 8866m | 3.8m/s | 0°C | 0% | 0hPa | 0V | 00:00:00 | 00:00:00 | 00:00:00 | |
| KRY50SP | 2026-08-30 14:28:06 | 52.53019 | 17.60759 | 84° | 71km/h | 8851m | 1.4m/s | 0°C | 0% | 0hPa | 0V | 00:00:00 | 00:00:00 | 00:00:00 | |
| SP3BTT-10 | 2026-08-30 14:28:04 | 52.53012 | 17.60707 | 90° | 64km/h | 8846m | 3.5m/s | 0°C | 0% | 0hPa | 0V | 00:00:00 | 00:00:00 | 00:00:00 | |
| KRY50SP | 2026-08-30 14:28:00 | 52.53001 | 17.60597 | 74° | 55km/h | 8834m | 2.9m/s | 0°C | 0% | 0hPa | 0V | 00:00:00 | 00:00:00 | 00:00:00 | |
| KRY50SP-1 | 2026-08-30 14:27:59 | 52.52997 | 17.60571 | 85° | 75km/h | 8830m | 5.5m/s | 0°C | 0% | 0hPa | 0V | 00:00:00 | 00:00:00 | 00:00:00 | |
| SP6BVK | 2026-08-30 14:27:57 | 52.52992 | 17.60515 | 82° | 60km/h | 8823m | 1.6m/s | 0°C | 0% | 0hPa | 0V | 00:00:00 | 00:00:00 | 00:00:00 | |
| KRY50SP-1 | 2026-08-30 14:27:54 | 52.52983 | 17.60432 | 81° | 68km/h | 8812m | 4.7m/s | 0°C | 0% | 0hPa | 0V | 00:00:00 | 00:00:00 | 00:00:00 | |
| KRY50SP-1 | 2026-08-30 14:27:47 | 52.52962 | 17.60240 | 83° | 53km/h | 8793m | 3.2m/s | 0°C | 0% | 0hPa | 0V | 00:00:00 | 00:00:00 | 00:00:00 | |
| KRY50SP | 2026-08-30 14:27:46 | 52.52960 | 17.60214 | 81° | 71km/h | 8789m | 4.5m/s | 0°C | 0% | 0hPa | 0V | 00:00:00 | 00:00:00 | 00:00:00 | |
| KRY50SP | 2026-08-30 14:27:41 | 52.52946 | 17.60077 | 80° | 69km/h | 8773m | 4.8m/s | 0°C | 0% | 0hPa | 0V | 00:00:00 | 00:00:00 | 00:00:00 | |
| SP3WXH-11 | 2026-08-30 14:27:37 | 52.52928 | 17.59911 | 77° | 75km/h | 8754m | 1.8m/s | 0°C | -1.0% | -1.0hPa | 0V | 00:00:00 | 00:00:00 | 00:00:00 | |
| KRY50SP-1 | 2026-08-30 14:27:35 | 52.52928 | 17.59911 | 79° | 77km/h | 8755m | 1.8m/s | 0°C | 0% | 0hPa | 0V | 00:00:00 | 00:00:00 | 00:00:00 | |
| KRY50SP | 2026-08-30 14:27:34 | 52.52926 | 17.59884 | 89° | 55km/h | 8753m | 2.5m/s | 0°C | 0% | 0hPa | 0V | 00:00:00 | 00:00:00 | 00:00:00 | |
| KRY50SP | 2026-08-30 14:27:29 | 52.52911 | 17.59746 | 83° | 57km/h | 8737m | 5.6m/s | 0°C | 0% | 0hPa | 0V | 00:00:00 | 00:00:00 | 00:00:00 | |
| SP3BTT-10 | 2026-08-30 14:27:27 | 52.52906 | 17.59692 | 82° | 71km/h | 8729m | 1.2m/s | 0°C | 0% | 0hPa | 0V | 00:00:00 | 00:00:00 | 00:00:00 | |
| KRY50SP-1 | 2026-08-30 14:27:23 | 52.52896 | 17.59582 | 79° | 64km/h | 8717m | 2.7m/s | 0°C | 0% | 0hPa | 0V | 00:00:00 | 00:00:00 | 00:00:00 | |
| KRY50SP | 2026-08-30 14:27:17 | 52.52882 | 17.59415 | 98° | 73km/h | 8700m | 2.8m/s | 0°C | 0% | 0hPa | 0V | 00:00:00 | 00:00:00 | 00:00:00 | |
| KRY50SP-1 | 2026-08-30 14:27:15 | 52.52878 | 17.59359 | 81° | 71km/h | 8692m | 2.8m/s | 0°C | 0% | 0hPa | 0V | 00:00:00 | 00:00:00 | 00:00:00 | |
| KRY50SP | 2026-08-30 14:27:11 | 52.52870 | 17.59246 | 84° | 68km/h | 8680m | 4.1m/s | 0°C | 0% | 0hPa | 0V | 00:00:00 | 00:00:00 | 00:00:00 | |
| SP6BVK | 2026-08-30 14:27:06 | 52.52860 | 17.59105 | 89° | 68km/h | 8665m | 2.6m/s | 0°C | 0% | 0hPa | 0V | 00:00:00 | 00:00:00 | 00:00:00 | |
| KRY50SP | 2026-08-30 14:26:59 | 52.52845 | 17.58906 | 88° | 68km/h | 8644m | 4.7m/s | 0°C | 0% | 0hPa | 0V | 00:00:00 | 00:00:00 | 00:00:00 | |
| KRY50SP-1 | 2026-08-30 14:26:54 | 52.52835 | 17.58764 | 83° | 68km/h | 8629m | 3.6m/s | 0°C | 0% | 0hPa | 0V | 00:00:00 | 00:00:00 | 00:00:00 | |
| KRY50SP | 2026-08-30 14:26:53 | 52.52834 | 17.58735 | 89° | 75km/h | 8626m | 1.1m/s | 0°C | 0% | 0hPa | 0V | 00:00:00 | 00:00:00 | 00:00:00 | |
| KRY50SP | 2026-08-30 14:26:48 | 52.52822 | 17.58590 | 88° | 82km/h | 8612m | 1.4m/s | 0°C | 0% | 0hPa | 0V | 00:00:00 | 00:00:00 | 00:00:00 | |
| SP6BVK | 2026-08-30 14:26:45 | 52.52815 | 17.58504 | 84° | 75km/h | 8602m | 2.9m/s | 0°C | 0% | 0hPa | 0V | 00:00:00 | 00:00:00 | 00:00:00 | |
| KRY50SP-1 | 2026-08-30 14:26:42 | 52.52808 | 17.58417 | 81° | 66km/h | 8593m | 4.6m/s | 0°C | 0% | 0hPa | 0V | 00:00:00 | 00:00:00 | 00:00:00 | |
| KRY50SP | 2026-08-30 14:26:40 | 52.52803 | 17.58358 | 85° | 78km/h | 8587m | 0.7m/s | 0°C | 0% | 0hPa | 0V | 00:00:00 | 00:00:00 | 00:00:00 | |
| SP3WXH-11 | 2026-08-30 14:26:35 | 52.52788 | 17.58185 | 86° | 55km/h | 8569m | 5.0m/s | 0°C | -1.0% | -1.0hPa | 0V | 00:00:00 | 00:00:00 | 00:00:00 | |
| SP3BTT-10 | 2026-08-30 14:26:33 | 52.52786 | 17.58159 | 81° | 69km/h | 8565m | 4.3m/s | 0°C | 0% | 0hPa | 0V | 00:00:00 | 00:00:00 | 00:00:00 | |
| KRY50SP-1 | 2026-08-30 14:26:30 | 52.52779 | 17.58070 | 74° | 84km/h | 8558m | 3.3m/s | 0°C | 0% | 0hPa | 0V | 00:00:00 | 00:00:00 | 00:00:00 | |
| KRY50SP | 2026-08-30 14:26:29 | 52.52775 | 17.58039 | 87° | 68km/h | 8554m | 4.7m/s | 0°C | 0% | 0hPa | 0V | 00:00:00 | 00:00:00 | 00:00:00 | |
| KRY50SP | 2026-08-30 14:26:24 | 52.52762 | 17.57897 | 83° | 69km/h | 8538m | 3.9m/s | 0°C | 0% | 0hPa | 0V | 00:00:00 | 00:00:00 | 00:00:00 | |
| SP6BVK | 2026-08-30 14:26:22 | 52.52758 | 17.57840 | 76° | 77km/h | 8533m | 1.4m/s | 0°C | 0% | 0hPa | 0V | 00:00:00 | 00:00:00 | 00:00:00 | |
| KRY50SP-1 | 2026-08-30 14:26:19 | 52.52751 | 17.57753 | 84° | 71km/h | 8523m | 3.4m/s | 0°C | 0% | 0hPa | 0V | 00:00:00 | 00:00:00 | 00:00:00 | |
| KRY50SP | 2026-08-30 14:26:18 | 52.52749 | 17.57725 | 88° | 64km/h | 8520m | 1.5m/s | 0°C | 0% | 0hPa | 0V | 00:00:00 | 00:00:00 | 00:00:00 | |
| KRY50SP-1 | 2026-08-30 14:26:14 | 52.52740 | 17.57610 | 80° | 71km/h | 8508m | 1.5m/s | 0°C | 0% | 0hPa | 0V | 00:00:00 | 00:00:00 | 00:00:00 | |
| KRY50SP | 2026-08-30 14:26:12 | 52.52737 | 17.57555 | 73° | 75km/h | 8504m | 3.4m/s | 0°C | 0% | 0hPa | 0V | 00:00:00 | 00:00:00 | 00:00:00 | |
| KRY50SP-1 | 2026-08-30 14:26:08 | 52.52727 | 17.57440 | 95° | 73km/h | 8493m | 2.9m/s | 0°C | 0% | 0hPa | 0V | 00:00:00 | 00:00:00 | 00:00:00 | |
| KRY50SP | 2026-08-30 14:26:06 | 52.52723 | 17.57384 | 82° | 69km/h | 8485m | 3.5m/s | 0°C | 0% | 0hPa | 0V | 00:00:00 | 00:00:00 | 00:00:00 | |
| SP3WXH-11 | 2026-08-30 14:26:04 | 52.52716 | 17.57300 | 91° | 73km/h | 8477m | 4.0m/s | 0°C | -1.0% | -1.0hPa | 0V | 00:00:00 | 00:00:00 | 00:00:00 | |
| KRY50SP | 2026-08-30 14:26:01 | 52.52712 | 17.57243 | 81° | 64km/h | 8470m | 2.0m/s | 0°C | 0% | 0hPa | 0V | 00:00:00 | 00:00:00 | 00:00:00 | |
| SP6BVK | 2026-08-30 14:26:00 | 52.52711 | 17.57213 | 91° | 77km/h | 8468m | 1.3m/s | 0°C | 0% | 0hPa | 0V | 00:00:00 | 00:00:00 | 00:00:00 | |
| KRY50SP-1 | 2026-08-30 14:25:56 | 52.52701 | 17.57103 | 80° | 62km/h | 8456m | 1.3m/s | 0°C | 0% | 0hPa | 0V | 00:00:00 | 00:00:00 | 00:00:00 | |
| KRY50SP | 2026-08-30 14:25:55 | 52.52700 | 17.57073 | 92° | 80km/h | 8454m | 2.4m/s | 0°C | 0% | 0hPa | 0V | 00:00:00 | 00:00:00 | 00:00:00 | |
| SP3BTT-10 | 2026-08-30 14:25:52 | 52.52693 | 17.56989 | 88° | 68km/h | 8443m | 1.9m/s | 0°C | 0% | 0hPa | 0V | 00:00:00 | 00:00:00 | 00:00:00 | |
| KRY50SP-1 | 2026-08-30 14:25:50 | 52.52689 | 17.56933 | 93° | 77km/h | 8439m | 2.6m/s | 0°C | 0% | 0hPa | 0V | 00:00:00 | 00:00:00 | 00:00:00 | |
| KRY50SP | 2026-08-30 14:25:48 | 52.52685 | 17.56877 | 82° | 69km/h | 8431m | 2.8m/s | 0°C | 0% | 0hPa | 0V | 00:00:00 | 00:00:00 | 00:00:00 | |
| KRY50SP-1 | 2026-08-30 14:25:38 | 52.52664 | 17.56597 | 76° | 58km/h | 8404m | 1.1m/s | 0°C | 0% | 0hPa | 0V | 00:00:00 | 00:00:00 | 00:00:00 | |
| SP3WXH-11 | 2026-08-30 14:25:33 | 52.52653 | 17.56429 | 79° | 69km/h | 8386m | 3.6m/s | 0°C | -1.0% | -1.0hPa | 0V | 00:00:00 | 00:00:00 | 00:00:00 | |
| KRY50SP | 2026-08-30 14:25:32 | 52.52653 | 17.56429 | 81° | 71km/h | 8386m | 3.6m/s | 0°C | 0% | 0hPa | 0V | 00:00:00 | 00:00:00 | 00:00:00 | |
| KRY50SP | 2026-08-30 14:25:23 | 52.52634 | 17.56179 | 89° | 68km/h | 8361m | 4.3m/s | 0°C | 0% | 0hPa | 0V | 00:00:00 | 00:00:00 | 00:00:00 | |
| KRY50SP-1 | 2026-08-30 14:25:17 | 52.52623 | 17.56012 | 88° | 75km/h | 8344m | 1.1m/s | 0°C | 0% | 0hPa | 0V | 00:00:00 | 00:00:00 | 00:00:00 | |
| KRY50SP | 2026-08-30 14:25:16 | 52.52621 | 17.55986 | 76° | 55km/h | 8342m | 1.5m/s | 0°C | 0% | 0hPa | 0V | 00:00:00 | 00:00:00 | 00:00:00 | |
| KRY50SP | 2026-08-30 14:25:11 | 52.52612 | 17.55848 | 84° | 49km/h | 8328m | 3.9m/s | 0°C | 0% | 0hPa | 0V | 00:00:00 | 00:00:00 | 00:00:00 | |
| SP3BTT-10 | 2026-08-30 14:25:09 | 52.52608 | 17.55796 | 79° | 66km/h | 8321m | 2.4m/s | 0°C | 0% | 0hPa | 0V | 00:00:00 | 00:00:00 | 00:00:00 | |
| KRY50SP | 2026-08-30 14:25:06 | 52.52601 | 17.55713 | 86° | 60km/h | 8313m | 4.7m/s | 0°C | 0% | 0hPa | 0V | 00:00:00 | 00:00:00 | 00:00:00 | |
| SP3WXH-11 | 2026-08-30 14:25:02 | 52.52591 | 17.55578 | 83° | 62km/h | 8298m | 4.5m/s | 0°C | -1.0% | -1.0hPa | 0V | 00:00:00 | 00:00:00 | 00:00:00 | |
| KRY50SP | 2026-08-30 14:25:00 | 52.52589 | 17.55552 | 86° | 62km/h | 8295m | 2.1m/s | 0°C | 0% | 0hPa | 0V | 00:00:00 | 00:00:00 | 00:00:00 | |
| KRY50SP-1 | 2026-08-30 14:24:59 | 52.52586 | 17.55524 | 78° | 75km/h | 8293m | 1.2m/s | 0°C | 0% | 0hPa | 0V | 00:00:00 | 00:00:00 | 00:00:00 | |
| KRY50SP-1 | 2026-08-30 14:24:54 | 52.52576 | 17.55389 | 78° | 78km/h | 8279m | 1.6m/s | 0°C | 0% | 0hPa | 0V | 00:00:00 | 00:00:00 | 00:00:00 | |
| KRY50SP-1 | 2026-08-30 14:24:48 | 52.52564 | 17.55228 | 87° | 60km/h | 8261m | 4.0m/s | 0°C | 0% | 0hPa | 0V | 00:00:00 | 00:00:00 | 00:00:00 | |
| KRY50SP | 2026-08-30 14:24:47 | 52.52563 | 17.55202 | 87° | 66km/h | 8257m | 3.1m/s | 0°C | 0% | 0hPa | 0V | 00:00:00 | 00:00:00 | 00:00:00 | |
| KRY50SP | 2026-08-30 14:24:42 | 52.52554 | 17.55067 | 91° | 68km/h | 8243m | 1.8m/s | 0°C | 0% | 0hPa | 0V | 00:00:00 | 00:00:00 | 00:00:00 | |
| KRY50SP | 2026-08-30 14:24:37 | 52.52545 | 17.54932 | 94° | 64km/h | 8228m | 1.1m/s | 0°C | 0% | 0hPa | 0V | 00:00:00 | 00:00:00 | 00:00:00 | |
| SP3WXH-11 | 2026-08-30 14:24:31 | 52.52532 | 17.54743 | 86° | 66km/h | 8206m | 4.2m/s | 0°C | -1.0% | -1.0hPa | 0V | 00:00:00 | 00:00:00 | 00:00:00 | |
| KRY50SP | 2026-08-30 14:24:30 | 52.52532 | 17.54743 | 87° | 66km/h | 8206m | 4.2m/s | 0°C | 0% | 0hPa | 0V | 00:00:00 | 00:00:00 | 00:00:00 | |
| KRY50SP-1 | 2026-08-30 14:24:23 | 52.52521 | 17.54551 | 74° | 69km/h | 8187m | 1.2m/s | 0°C | 0% | 0hPa | 0V | 00:00:00 | 00:00:00 | 00:00:00 | |
| SP3BTT-10 | 2026-08-30 14:24:18 | 52.52516 | 17.54414 | 75° | 68km/h | 8173m | 3.5m/s | 0°C | 0% | 0hPa | 0V | 00:00:00 | 00:00:00 | 00:00:00 | |
| KRY50SP | 2026-08-30 14:24:12 | 52.52508 | 17.54250 | 92° | 73km/h | 8153m | 4.5m/s | 0°C | 0% | 0hPa | 0V | 00:00:00 | 00:00:00 | 00:00:00 | |
| KRY50SP | 2026-08-30 14:24:05 | 52.52502 | 17.54056 | 92° | 55km/h | 8132m | 0.8m/s | 0°C | 0% | 0hPa | 0V | 00:00:00 | 00:00:00 | 00:00:00 | |
| KRY50SP-1 | 2026-08-30 14:24:04 | 52.52501 | 17.54028 | 86° | 80km/h | 8130m | 3.1m/s | 0°C | 0% | 0hPa | 0V | 00:00:00 | 00:00:00 | 00:00:00 | |
| SP3WXH-11 | 2026-08-30 14:24:00 | 52.52498 | 17.53889 | 84° | 77km/h | 8114m | 5.3m/s | 0°C | -1.0% | -1.0hPa | 0V | 00:00:00 | 00:00:00 | 00:00:00 | |
| KRY50SP-1 | 2026-08-30 14:23:58 | 52.52497 | 17.53859 | 88° | 68km/h | 8110m | 3.1m/s | 0°C | 0% | 0hPa | 0V | 00:00:00 | 00:00:00 | 00:00:00 | |
| KRY50SP-1 | 2026-08-30 14:23:51 | 52.52491 | 17.53663 | 76° | 71km/h | 8091m | 2.6m/s | 0°C | 0% | 0hPa | 0V | 00:00:00 | 00:00:00 | 00:00:00 | |
| KRY50SP-1 | 2026-08-30 14:23:45 | 52.52486 | 17.53493 | 90° | 71km/h | 8071m | 4.7m/s | 0°C | 0% | 0hPa | 0V | 00:00:00 | 00:00:00 | 00:00:00 | |
| SP6BVK | 2026-08-30 14:23:43 | 52.52485 | 17.53437 | 78° | 66km/h | 8066m | 1.3m/s | 0°C | 0% | 0hPa | 0V | 00:00:00 | 00:00:00 | 00:00:00 | |
| KRY50SP-1 | 2026-08-30 14:23:39 | 52.52482 | 17.53322 | 93° | 73km/h | 8054m | 1.5m/s | 0°C | 0% | 0hPa | 0V | 00:00:00 | 00:00:00 | 00:00:00 | |
| SP3BTT-10 | 2026-08-30 14:23:34 | 52.52478 | 17.53182 | 95° | 69km/h | 8040m | 1.7m/s | 0°C | 0% | 0hPa | 0V | 00:00:00 | 00:00:00 | 00:00:00 | |
| KRY50SP-1 | 2026-08-30 14:23:33 | 52.52477 | 17.53154 | 77° | 60km/h | 8037m | 3.5m/s | 0°C | 0% | 0hPa | 0V | 00:00:00 | 00:00:00 | 00:00:00 | |
| SP3WXH-11 | 2026-08-30 14:23:29 | 52.52474 | 17.53012 | 81° | 69km/h | 8021m | 5.2m/s | 0°C | -1.0% | -1.0hPa | 0V | 00:00:00 | 00:00:00 | 00:00:00 | |
| KRY50SP-1 | 2026-08-30 14:23:28 | 52.52474 | 17.53012 | 83° | 71km/h | 8021m | 5.2m/s | 0°C | 0% | 0hPa | 0V | 00:00:00 | 00:00:00 | 00:00:00 | |
| KRY50SP-1 | 2026-08-30 14:23:22 | 52.52468 | 17.52840 | 85° | 68km/h | 8002m | 2.1m/s | 0°C | 0% | 0hPa | 0V | 00:00:00 | 00:00:00 | 00:00:00 | |
| SP6BVK | 2026-08-30 14:23:21 | 52.52468 | 17.52811 | 99° | 75km/h | 8000m | 1.2m/s | 0°C | 0% | 0hPa | 0V | 00:00:00 | 00:00:00 | 00:00:00 | |
| KRY50SP-1 | 2026-08-30 14:23:16 | 52.52463 | 17.52671 | 103° | 66km/h | 7986m | 2.7m/s | 0°C | 0% | 0hPa | 0V | 00:00:00 | 00:00:00 | 00:00:00 | |
| KRY50SP-1 | 2026-08-30 14:23:11 | 52.52457 | 17.52528 | 89° | 57km/h | 7970m | 3.8m/s | 0°C | 0% | 0hPa | 0V | 00:00:00 | 00:00:00 | 00:00:00 | |
| KRY50SP-1 | 2026-08-30 14:23:05 | 52.52452 | 17.52360 | 92° | 71km/h | 7952m | 3.0m/s | 0°C | 0% | 0hPa | 0V | 00:00:00 | 00:00:00 | 00:00:00 | |
| SP3WXH-11 | 2026-08-30 14:22:58 | 52.52444 | 17.52107 | 85° | 64km/h | 7925m | 2.9m/s | 0°C | -1.0% | -1.0hPa | 0V | 00:00:00 | 00:00:00 | 00:00:00 | |
| KRY50SP-1 | 2026-08-30 14:22:53 | 52.52440 | 17.52022 | 93° | 73km/h | 7917m | 5.0m/s | 0°C | 0% | 0hPa | 0V | 00:00:00 | 00:00:00 | 00:00:00 | |
| SP3BTT-10 | 2026-08-30 14:22:49 | 52.52438 | 17.51907 | 78° | 71km/h | 7906m | 3.7m/s | 0°C | 0% | 0hPa | 0V | 00:00:00 | 00:00:00 | 00:00:00 | |
| KRY50SP-1 | 2026-08-30 14:22:47 | 52.52436 | 17.51850 | 91° | 71km/h | 7898m | 2.2m/s | 0°C | 0% | 0hPa | 0V | 00:00:00 | 00:00:00 | 00:00:00 | |
| KRY50SP-1 | 2026-08-30 14:22:41 | 52.52430 | 17.51674 | 88° | 57km/h | 7881m | 3.3m/s | 0°C | 0% | 0hPa | 0V | 00:00:00 | 00:00:00 | 00:00:00 | |
| SP6BVK | 2026-08-30 14:22:38 | 52.52429 | 17.51588 | 95° | 64km/h | 7871m | 1.0m/s | 0°C | 0% | 0hPa | 0V | 00:00:00 | 00:00:00 | 00:00:00 | |
| KRY50SP-1 | 2026-08-30 14:22:35 | 52.52425 | 17.51498 | 90° | 73km/h | 7861m | 3.3m/s | 0°C | 0% | 0hPa | 0V | 00:00:00 | 00:00:00 | 00:00:00 | |
| KRY50SP-1 | 2026-08-30 14:22:29 | 52.52418 | 17.51321 | 82° | 66km/h | 7844m | 1.1m/s | 0°C | 0% | 0hPa | 0V | 00:00:00 | 00:00:00 | 00:00:00 | |
| SP3WXH-11 | 2026-08-30 14:22:27 | 52.52415 | 17.51233 | 89° | 69km/h | 7835m | 4.9m/s | 0°C | -1.0% | -1.0hPa | 0V | 00:00:00 | 00:00:00 | 00:00:00 | |
| KRY50SP-1 | 2026-08-30 14:22:24 | 52.52412 | 17.51174 | 84° | 60km/h | 7829m | 1.7m/s | 0°C | 0% | 0hPa | 0V | 00:00:00 | 00:00:00 | 00:00:00 | |
| KRY50SP-1 | 2026-08-30 14:22:18 | 52.52406 | 17.50998 | 86° | 86km/h | 7811m | 3.8m/s | 0°C | 0% | 0hPa | 0V | 00:00:00 | 00:00:00 | 00:00:00 | |
| SP6BVK | 2026-08-30 14:22:15 | 52.52402 | 17.50909 | 82° | 75km/h | 7801m | 1.6m/s | 0°C | 0% | 0hPa | 0V | 00:00:00 | 00:00:00 | 00:00:00 | |
| KRY50SP-1 | 2026-08-30 14:22:13 | 52.52401 | 17.50851 | 79° | 77km/h | 7796m | 5.2m/s | 0°C | 0% | 0hPa | 0V | 00:00:00 | 00:00:00 | 00:00:00 | |
| KRY50SP-1 | 2026-08-30 14:22:07 | 52.52392 | 17.50677 | 85° | 69km/h | 7775m | 2.9m/s | 0°C | 0% | 0hPa | 0V | 00:00:00 | 00:00:00 | 00:00:00 | |
| SP3BTT-10 | 2026-08-30 14:22:06 | 52.52392 | 17.50648 | 96° | 73km/h | 7773m | 0.9m/s | 0°C | 0% | 0hPa | 0V | 00:00:00 | 00:00:00 | 00:00:00 | |
| SP3WXH-11 | 2026-08-30 14:21:56 | 52.52376 | 17.50332 | 86° | 69km/h | 7739m | 3.2m/s | 0°C | -1.0% | -1.0hPa | 0V | 00:00:00 | 00:00:00 | 00:00:00 | |
| KRY50SP-1 | 2026-08-30 14:21:55 | 52.52377 | 17.50332 | 88° | 71km/h | 7739m | 3.2m/s | 0°C | 0% | 0hPa | 0V | 00:00:00 | 00:00:00 | 00:00:00 | |
| SP6BVK | 2026-08-30 14:21:54 | 52.52374 | 17.50304 | 80° | 68km/h | 7737m | 1.5m/s | 0°C | 0% | 0hPa | 0V | 00:00:00 | 00:00:00 | 00:00:00 | |
| KRY50SP-1 | 2026-08-30 14:21:50 | 52.52369 | 17.50190 | 88° | 75km/h | 7724m | 2.1m/s | 0°C | 0% | 0hPa | 0V | 00:00:00 | 00:00:00 | 00:00:00 | |
| KRY50SP-1 | 2026-08-30 14:21:44 | 52.52359 | 17.50015 | 79° | 58km/h | 7707m | 2.1m/s | 0°C | 0% | 0hPa | 0V | 00:00:00 | 00:00:00 | 00:00:00 | |
| KRY50SP-1 | 2026-08-30 14:21:37 | 52.52348 | 17.49807 | 86° | 73km/h | 7683m | 3.4m/s | 0°C | 0% | 0hPa | 0V | 00:00:00 | 00:00:00 | 00:00:00 | |
| SP6BVK | 2026-08-30 14:21:32 | 52.52341 | 17.49658 | 83° | 73km/h | 7669m | 1.5m/s | 0°C | 0% | 0hPa | 0V | 00:00:00 | 00:00:00 | 00:00:00 | |
| KRY50SP-1 | 2026-08-30 14:21:31 | 52.52341 | 17.49628 | 98° | 73km/h | 7668m | 1.4m/s | 0°C | 0% | 0hPa | 0V | 00:00:00 | 00:00:00 | 00:00:00 | |
| SP3WXH-11 | 2026-08-30 14:21:25 | 52.52329 | 17.49415 | 85° | 86km/h | 7646m | 3.3m/s | 0°C | -1.0% | -1.0hPa | 0V | 00:00:00 | 00:00:00 | 00:00:00 | |
| KRY50SP-1 | 2026-08-30 14:21:23 | 52.52327 | 17.49382 | 84° | 71km/h | 7642m | 3.7m/s | 0°C | 0% | 0hPa | 0V | 00:00:00 | 00:00:00 | 00:00:00 | |
| SP3BTT-10 | 2026-08-30 14:21:18 | 52.52322 | 17.49230 | 87° | 75km/h | 7628m | 3.7m/s | 0°C | 0% | 0hPa | 0V | 00:00:00 | 00:00:00 | 00:00:00 | |
| KRY50SP-1 | 2026-08-30 14:21:17 | 52.52320 | 17.49199 | 82° | 77km/h | 7625m | 1.6m/s | 0°C | 0% | 0hPa | 0V | 00:00:00 | 00:00:00 | 00:00:00 | |
| KRY50SP-1 | 2026-08-30 14:21:11 | 52.52314 | 17.49014 | 100° | 73km/h | 7608m | 4.2m/s | 0°C | 0% | 0hPa | 0V | 00:00:00 | 00:00:00 | 00:00:00 | |
| SP6BVK | 2026-08-30 14:21:08 | 52.52312 | 17.48921 | 92° | 73km/h | 7596m | 1.9m/s | 0°C | 0% | 0hPa | 0V | 00:00:00 | 00:00:00 | 00:00:00 | |
| KRY50SP-1 | 2026-08-30 14:21:05 | 52.52308 | 17.48829 | 87° | 82km/h | 7587m | 4.4m/s | 0°C | 0% | 0hPa | 0V | 00:00:00 | 00:00:00 | 00:00:00 | |
| KRY50SP-1 | 2026-08-30 14:21:00 | 52.52303 | 17.48674 | 87° | 75km/h | 7572m | 3.7m/s | 0°C | 0% | 0hPa | 0V | 00:00:00 | 00:00:00 | 00:00:00 | |
| SP3WXH-11 | 2026-08-30 14:20:54 | 52.52294 | 17.48455 | 97° | 75km/h | 7551m | 2.1m/s | 0°C | -1.0% | -1.0hPa | 0V | 00:00:00 | 00:00:00 | 00:00:00 | |
| KRY50SP-1 | 2026-08-30 14:20:53 | 52.52294 | 17.48455 | 98° | 77km/h | 7552m | 2.2m/s | 0°C | 0% | 0hPa | 0V | 00:00:00 | 00:00:00 | 00:00:00 | |
| KRY50SP-1 | 2026-08-30 14:20:46 | 52.52286 | 17.48237 | 89° | 75km/h | 7528m | 5.0m/s | 0°C | 0% | 0hPa | 0V | 00:00:00 | 00:00:00 | 00:00:00 | |
| SP3BTT-10 | 2026-08-30 14:20:38 | 52.52279 | 17.47990 | 100° | 71km/h | 7504m | 3.6m/s | 0°C | 0% | 0hPa | 0V | 00:00:00 | 00:00:00 | 00:00:00 | |
| KRY50SP-1 | 2026-08-30 14:20:33 | 52.52274 | 17.47835 | 94° | 68km/h | 7487m | 5.1m/s | 0°C | 0% | 0hPa | 0V | 00:00:00 | 00:00:00 | 00:00:00 | |
| SP3WXH-11 | 2026-08-30 14:20:23 | 52.52266 | 17.47439 | 91° | 86km/h | 7447m | 2.6m/s | 0°C | -1.0% | -1.0hPa | 0V | 00:00:00 | 00:00:00 | 00:00:00 | |
| KRY50SP-1 | 2026-08-30 14:20:16 | 52.52263 | 17.47318 | 88° | 58km/h | 7435m | 2.3m/s | 0°C | 0% | 0hPa | 0V | 00:00:00 | 00:00:00 | 00:00:00 | |
| KRY50SP-1 | 2026-08-30 14:20:11 | 52.52259 | 17.47162 | 92° | 62km/h | 7419m | 2.6m/s | 0°C | 0% | 0hPa | 0V | 00:00:00 | 00:00:00 | 00:00:00 | |
| KRY50SP-1 | 2026-08-30 14:20:04 | 52.52251 | 17.46950 | 85° | 71km/h | 7394m | 2.7m/s | 0°C | 0% | 0hPa | 0V | 00:00:00 | 00:00:00 | 00:00:00 | |
| SP3WXH-11 | 2026-08-30 14:19:52 | 52.52231 | 17.46394 | 88° | 77km/h | 7341m | 4.5m/s | 0°C | -1.0% | -1.0hPa | 0V | 00:00:00 | 00:00:00 | 00:00:00 | |
| KRY50SP-1 | 2026-08-30 14:19:44 | 52.52229 | 17.46332 | 98° | 69km/h | 7337m | 1.7m/s | 0°C | 0% | 0hPa | 0V | 00:00:00 | 00:00:00 | 00:00:00 | |
| KRY50SP-1 | 2026-08-30 14:19:36 | 52.52218 | 17.46090 | 91° | 75km/h | 7310m | 2.0m/s | 0°C | 0% | 0hPa | 0V | 00:00:00 | 00:00:00 | 00:00:00 | |
| KRY50SP-1 | 2026-08-30 14:19:29 | 52.52206 | 17.45878 | 97° | 66km/h | 7292m | 3.6m/s | 0°C | 0% | 0hPa | 0V | 00:00:00 | 00:00:00 | 00:00:00 | |
| KRY50SP-1 | 2026-08-30 14:19:22 | 52.52195 | 17.45666 | 83° | 77km/h | 7269m | 3.6m/s | 0°C | 0% | 0hPa | 0V | 00:00:00 | 00:00:00 | 00:00:00 | |
| SP3WXH-11 | 2026-08-30 14:19:21 | 52.52189 | 17.45577 | 84° | 60km/h | 7261m | 4.3m/s | 0°C | -1.0% | -1.0hPa | 0V | 00:00:00 | 00:00:00 | 00:00:00 | |
| KRY50SP-1 | 2026-08-30 14:19:14 | 52.52179 | 17.45426 | 81° | 68km/h | 7244m | 5.2m/s | 0°C | 0% | 0hPa | 0V | 00:00:00 | 00:00:00 | 00:00:00 | |
| SP3BTT-10 | 2026-08-30 14:19:10 | 52.52171 | 17.45306 | 86° | 73km/h | 7233m | 2.6m/s | 0°C | 0% | 0hPa | 0V | 00:00:00 | 00:00:00 | 00:00:00 | |
| KRY50SP-1 | 2026-08-30 14:19:08 | 52.52168 | 17.45247 | 85° | 73km/h | 7225m | 3.9m/s | 0°C | 0% | 0hPa | 0V | 00:00:00 | 00:00:00 | 00:00:00 | |
| KRY50SP-1 | 2026-08-30 14:19:01 | 52.52153 | 17.45034 | 85° | 55km/h | 7206m | 3.3m/s | 0°C | 0% | 0hPa | 0V | 00:00:00 | 00:00:00 | 00:00:00 | |
| SP3WXH-11 | 2026-08-30 14:18:50 | 52.52121 | 17.44679 | 75° | 80km/h | 7170m | 1.4m/s | 0°C | -1.0% | -1.0hPa | 0V | 00:00:00 | 00:00:00 | 00:00:00 | |
| KRY50SP-1 | 2026-08-30 14:18:49 | 52.52121 | 17.44679 | 77° | 82km/h | 7170m | 1.4m/s | 0°C | 0% | 0hPa | 0V | 00:00:00 | 00:00:00 | 00:00:00 | |
| KRY50SP-1 | 2026-08-30 14:18:43 | 52.52101 | 17.44506 | 91° | 68km/h | 7153m | 4.4m/s | 0°C | 0% | 0hPa | 0V | 00:00:00 | 00:00:00 | 00:00:00 | |
| KRY50SP-1 | 2026-08-30 14:18:36 | 52.52081 | 17.44306 | 77° | 71km/h | 7131m | 2.3m/s | 0°C | 0% | 0hPa | 0V | 00:00:00 | 00:00:00 | 00:00:00 | |
| KRY50SP-1 | 2026-08-30 14:18:29 | 52.52060 | 17.44105 | 72° | 71km/h | 7112m | 4.7m/s | 0°C | 0% | 0hPa | 0V | 00:00:00 | 00:00:00 | 00:00:00 | |
| KRY50SP-1 | 2026-08-30 14:18:24 | 52.52044 | 17.43961 | 76° | 69km/h | 7095m | 5.5m/s | 0°C | 0% | 0hPa | 0V | 00:00:00 | 00:00:00 | 00:00:00 | |
| SP3WXH-11 | 2026-08-30 14:18:19 | 52.52014 | 17.43702 | 82° | 77km/h | 7070m | 4.9m/s | 0°C | -1.0% | -1.0hPa | 0V | 00:00:00 | 00:00:00 | 00:00:00 | |
| KRY50SP-1 | 2026-08-30 14:18:15 | 52.52014 | 17.43703 | 84° | 78km/h | 7070m | 4.9m/s | 0°C | 0% | 0hPa | 0V | 00:00:00 | 00:00:00 | 00:00:00 | |
| KRY50SP-1 | 2026-08-30 14:18:09 | 52.51999 | 17.43529 | 82° | 71km/h | 7050m | 3.4m/s | 0°C | 0% | 0hPa | 0V | 00:00:00 | 00:00:00 | 00:00:00 | |
| KRY50SP-1 | 2026-08-30 14:18:01 | 52.51977 | 17.43299 | 85° | 58km/h | 7029m | 4.9m/s | 0°C | 0% | 0hPa | 0V | 00:00:00 | 00:00:00 | 00:00:00 | |
| SP3WXH-11 | 2026-08-30 14:17:48 | 52.51933 | 17.42773 | 90° | 68km/h | 6974m | 3.9m/s | 0°C | -1.0% | -1.0hPa | 0V | 00:00:00 | 00:00:00 | 00:00:00 | |
| KRY50SP-1 | 2026-08-30 14:17:47 | 52.51944 | 17.42909 | 89° | 77km/h | 6989m | 4.4m/s | 0°C | 0% | 0hPa | 0V | 00:00:00 | 00:00:00 | 00:00:00 | |
| SP3BTT-10 | 2026-08-30 14:17:42 | 52.51933 | 17.42773 | 91° | 66km/h | 6974m | 3.9m/s | 0°C | 0% | 0hPa | 0V | 00:00:00 | 00:00:00 | 00:00:00 | |
| KRY50SP-1 | 2026-08-30 14:17:39 | 52.51928 | 17.42694 | 93° | 58km/h | 6967m | 0.6m/s | 0°C | 0% | 0hPa | 0V | 00:00:00 | 00:00:00 | 00:00:00 | |
| KRY50SP-1 | 2026-08-30 14:17:34 | 52.51916 | 17.42557 | 95° | 68km/h | 6953m | 2.3m/s | 0°C | 0% | 0hPa | 0V | 00:00:00 | 00:00:00 | 00:00:00 | |
| KRY50SP-1 | 2026-08-30 14:17:24 | 52.51887 | 17.42284 | 89° | 71km/h | 6924m | 5.7m/s | 0°C | 0% | 0hPa | 0V | 00:00:00 | 00:00:00 | 00:00:00 | |
| KRY50SP-1 | 2026-08-30 14:17:19 | 52.51871 | 17.42145 | 80° | 68km/h | 6906m | 4.8m/s | 0°C | 0% | 0hPa | 0V | 00:00:00 | 00:00:00 | 00:00:00 | |
| SP3WXH-11 | 2026-08-30 14:17:17 | 52.51857 | 17.42032 | 71° | 62km/h | 6895m | 5.6m/s | 0°C | -1.0% | -1.0hPa | 0V | 00:00:00 | 00:00:00 | 00:00:00 | |
| KRY50SP-1 | 2026-08-30 14:17:12 | 52.51845 | 17.41951 | 71° | 55km/h | 6887m | 2.7m/s | 0°C | 0% | 0hPa | 0V | 00:00:00 | 00:00:00 | 00:00:00 | |
| KRY50SP-1 | 2026-08-30 14:17:05 | 52.51816 | 17.41759 | 78° | 71km/h | 6864m | 1.7m/s | 0°C | 0% | 0hPa | 0V | 00:00:00 | 00:00:00 | 00:00:00 | |
| SP3WXH-11 | 2026-08-30 14:16:46 | 52.51711 | 17.41181 | 80° | 68km/h | 6805m | 5.0m/s | 0°C | -1.0% | -1.0hPa | 0V | 00:00:00 | 00:00:00 | 00:00:00 | |
| KRY50SP-1 | 2026-08-30 14:16:42 | 52.51701 | 17.41126 | 69° | 68km/h | 6798m | 1.9m/s | 0°C | 0% | 0hPa | 0V | 00:00:00 | 00:00:00 | 00:00:00 | |
| KRY50SP-1 | 2026-08-30 14:16:37 | 52.51673 | 17.40990 | 67° | 64km/h | 6784m | 0.4m/s | 0°C | 0% | 0hPa | 0V | 00:00:00 | 00:00:00 | 00:00:00 | |
| KRY50SP-1 | 2026-08-30 14:16:31 | 52.51637 | 17.40829 | 78° | 82km/h | 6768m | 4.2m/s | 0°C | 0% | 0hPa | 0V | 00:00:00 | 00:00:00 | 00:00:00 | |
| KRY50SP-1 | 2026-08-30 14:16:25 | 52.51598 | 17.40670 | 64° | 69km/h | 6748m | 3.3m/s | 0°C | 0% | 0hPa | 0V | 00:00:00 | 00:00:00 | 00:00:00 | |
| KRY50SP-1 | 2026-08-30 14:16:20 | 52.51565 | 17.40540 | 66° | 71km/h | 6735m | 2.7m/s | 0°C | 0% | 0hPa | 0V | 00:00:00 | 00:00:00 | 00:00:00 | |
| SP3WXH-11 | 2026-08-30 14:16:15 | 52.51524 | 17.40384 | 73° | 58km/h | 6719m | 1.0m/s | 0°C | -1.0% | -1.0hPa | 0V | 00:00:00 | 00:00:00 | 00:00:00 | |
| KRY50SP-1 | 2026-08-30 14:16:14 | 52.51524 | 17.40384 | 75° | 58km/h | 6719m | 1.0m/s | 0°C | 0% | 0hPa | 0V | 00:00:00 | 00:00:00 | 00:00:00 | |
| SP3BTT-10 | 2026-08-30 14:16:12 | 52.51509 | 17.40330 | 72° | 68km/h | 6714m | 4.8m/s | 0°C | 0% | 0hPa | 0V | 00:00:00 | 00:00:00 | 00:00:00 | |
| KRY50SP-1 | 2026-08-30 14:16:08 | 52.51484 | 17.40228 | 68° | 80km/h | 6703m | 4.6m/s | 0°C | 0% | 0hPa | 0V | 00:00:00 | 00:00:00 | 00:00:00 | |
| SP3WXH-11 | 2026-08-30 14:15:44 | 52.51318 | 17.39595 | 65° | 66km/h | 6627m | 4.4m/s | 0°C | -1.0% | -1.0hPa | 0V | 00:00:00 | 00:00:00 | 00:00:00 | |
| KRY50SP-1 | 2026-08-30 14:15:39 | 52.51292 | 17.39493 | 70° | 64km/h | 6616m | 3.5m/s | 0°C | 0% | 0hPa | 0V | 00:00:00 | 00:00:00 | 00:00:00 | |
| KRY50SP-1 | 2026-08-30 14:15:32 | 52.51251 | 17.39317 | 79° | 53km/h | 6598m | 2.8m/s | 0°C | 0% | 0hPa | 0V | 00:00:00 | 00:00:00 | 00:00:00 | |
| KRY50SP-1 | 2026-08-30 14:15:26 | 52.51215 | 17.39166 | 70° | 66km/h | 6580m | 3.7m/s | 0°C | 0% | 0hPa | 0V | 00:00:00 | 00:00:00 | 00:00:00 | |
| SP3BTT-10 | 2026-08-30 14:15:20 | 52.51177 | 17.39011 | 69° | 66km/h | 6562m | 1.4m/s | 0°C | 0% | 0hPa | 0V | 00:00:00 | 00:00:00 | 00:00:00 | |
| KRY50SP-1 | 2026-08-30 14:15:15 | 52.51146 | 17.38881 | 69° | 78km/h | 6547m | 1.4m/s | 0°C | 0% | 0hPa | 0V | 00:00:00 | 00:00:00 | 00:00:00 | |
| SP3WXH-11 | 2026-08-30 14:15:13 | 52.51127 | 17.38805 | 65° | 64km/h | 6538m | 4.0m/s | 0°C | -1.0% | -1.0hPa | 0V | 00:00:00 | 00:00:00 | 00:00:00 | |
| KRY50SP-1 | 2026-08-30 14:15:10 | 52.51114 | 17.38753 | 68° | 77km/h | 6533m | 1.2m/s | 0°C | 0% | 0hPa | 0V | 00:00:00 | 00:00:00 | 00:00:00 | |
| KRY50SP | 2026-08-30 14:15:04 | 52.51075 | 17.38597 | 67° | 53km/h | 6514m | 4.2m/s | 0°C | 0% | 0hPa | 0V | 00:00:00 | 00:00:00 | 00:00:00 | |
| KRY50SP-1 | 2026-08-30 14:14:58 | 52.51036 | 17.38439 | 70° | 68km/h | 6494m | 4.1m/s | 0°C | 0% | 0hPa | 0V | 00:00:00 | 00:00:00 | 00:00:00 | |
| KRY50SP | 2026-08-30 14:14:46 | 52.50958 | 17.38124 | 63° | 55km/h | 6460m | 2.9m/s | 0°C | 0% | 0hPa | 0V | 00:00:00 | 00:00:00 | 00:00:00 | |
| SP3WXH-11 | 2026-08-30 14:14:42 | 52.50925 | 17.37994 | 64° | 51km/h | 6443m | 2.8m/s | 0°C | -1.0% | -1.0hPa | 0V | 00:00:00 | 00:00:00 | 00:00:00 | |
| KRY50SP-1 | 2026-08-30 14:14:40 | 52.50919 | 17.37970 | 70° | 75km/h | 6440m | 4.8m/s | 0°C | 0% | 0hPa | 0V | 00:00:00 | 00:00:00 | 00:00:00 | |
| SP3BTT-10 | 2026-08-30 14:14:35 | 52.50884 | 17.37840 | 68° | 68km/h | 6423m | 4.4m/s | 0°C | 0% | 0hPa | 0V | 00:00:00 | 00:00:00 | 00:00:00 | |
| KRY50SP | 2026-08-30 14:14:32 | 52.50864 | 17.37760 | 77° | 75km/h | 6414m | 1.5m/s | 0°C | 0% | 0hPa | 0V | 00:00:00 | 00:00:00 | 00:00:00 | |
| KRY50SP-1 | 2026-08-30 14:14:29 | 52.50845 | 17.37682 | 70° | 68km/h | 6403m | 3.6m/s | 0°C | 0% | 0hPa | 0V | 00:00:00 | 00:00:00 | 00:00:00 | |
| KRY50SP-1 | 2026-08-30 14:14:23 | 52.50803 | 17.37527 | 62° | 60km/h | 6385m | 1.7m/s | 0°C | 0% | 0hPa | 0V | 00:00:00 | 00:00:00 | 00:00:00 | |
| KRY50SP-1 | 2026-08-30 14:14:17 | 52.50764 | 17.37369 | 76° | 80km/h | 6367m | 3.9m/s | 0°C | 0% | 0hPa | 0V | 00:00:00 | 00:00:00 | 00:00:00 | |
| KRY50SP | 2026-08-30 14:14:16 | 52.50757 | 17.37340 | 66° | 68km/h | 6363m | 4.7m/s | 0°C | 0% | 0hPa | 0V | 00:00:00 | 00:00:00 | 00:00:00 | |
| KRY50SP-1 | 2026-08-30 14:14:12 | 52.50730 | 17.37235 | 78° | 77km/h | 6351m | 4.5m/s | 0°C | 0% | 0hPa | 0V | 00:00:00 | 00:00:00 | 00:00:00 | |
| SP3WXH-11 | 2026-08-30 14:14:10 | 52.50717 | 17.37181 | 65° | 68km/h | 6342m | 2.8m/s | 0°C | -1.0% | -1.0hPa | 0V | 00:00:00 | 00:00:00 | 00:00:00 | |
| KRY50SP-1 | 2026-08-30 14:14:06 | 52.50692 | 17.37077 | 70° | 69km/h | 6329m | 3.3m/s | 0°C | 0% | 0hPa | 0V | 00:00:00 | 00:00:00 | 00:00:00 | |
| KRY50SP | 2026-08-30 14:14:05 | 52.50685 | 17.37048 | 70° | 78km/h | 6326m | 2.6m/s | 0°C | 0% | 0hPa | 0V | 00:00:00 | 00:00:00 | 00:00:00 | |
| KRY50SP-1 | 2026-08-30 14:14:00 | 52.50655 | 17.36918 | 79° | 64km/h | 6312m | 1.6m/s | 0°C | 0% | 0hPa | 0V | 00:00:00 | 00:00:00 | 00:00:00 | |
| KRY50SP | 2026-08-30 14:13:57 | 52.50635 | 17.36840 | 74° | 64km/h | 6301m | 2.6m/s | 0°C | 0% | 0hPa | 0V | 00:00:00 | 00:00:00 | 00:00:00 | |
| KRY50SP-1 | 2026-08-30 14:13:54 | 52.50617 | 17.36762 | 61° | 66km/h | 6292m | 4.8m/s | 0°C | 0% | 0hPa | 0V | 00:00:00 | 00:00:00 | 00:00:00 | |
| SP3BTT-10 | 2026-08-30 14:13:50 | 52.50592 | 17.36658 | 82° | 66km/h | 6279m | 3.3m/s | 0°C | 0% | 0hPa | 0V | 00:00:00 | 00:00:00 | 00:00:00 | |
| KRY50SP-1 | 2026-08-30 14:13:49 | 52.50587 | 17.36632 | 64° | 60km/h | 6276m | 4.7m/s | 0°C | 0% | 0hPa | 0V | 00:00:00 | 00:00:00 | 00:00:00 | |
| KRY50SP-1 | 2026-08-30 14:13:44 | 52.50558 | 17.36502 | 62° | 66km/h | 6258m | 5.2m/s | 0°C | 0% | 0hPa | 0V | 00:00:00 | 00:00:00 | 00:00:00 | |
| SP3WXH-11 | 2026-08-30 14:13:39 | 52.50529 | 17.36375 | 69° | 64km/h | 6241m | 4.0m/s | 0°C | -1.0% | -1.0hPa | 0V | 00:00:00 | 00:00:00 | 00:00:00 | |
| KRY50SP | 2026-08-30 14:13:38 | 52.50522 | 17.36351 | 63° | 66km/h | 6238m | 1.7m/s | 0°C | 0% | 0hPa | 0V | 00:00:00 | 00:00:00 | 00:00:00 | |
| KRY50SP | 2026-08-30 14:13:32 | 52.50487 | 17.36201 | 78° | 75km/h | 6217m | 4.3m/s | 0°C | 0% | 0hPa | 0V | 00:00:00 | 00:00:00 | 00:00:00 | |
| KRY50SP-1 | 2026-08-30 14:13:31 | 52.50482 | 17.36173 | 65° | 66km/h | 6212m | 5.4m/s | 0°C | 0% | 0hPa | 0V | 00:00:00 | 00:00:00 | 00:00:00 | |
| KRY50SP | 2026-08-30 14:13:26 | 52.50451 | 17.36045 | 69° | 64km/h | 6194m | 4.1m/s | 0°C | 0% | 0hPa | 0V | 00:00:00 | 00:00:00 | 00:00:00 | |
| KRY50SP-1 | 2026-08-30 14:13:24 | 52.50439 | 17.35995 | 76° | 71km/h | 6188m | 1.9m/s | 0°C | 0% | 0hPa | 0V | 00:00:00 | 00:00:00 | 00:00:00 | |
| KRY50SP-1 | 2026-08-30 14:13:19 | 52.50407 | 17.35868 | 79° | 73km/h | 6170m | 2.3m/s | 0°C | 0% | 0hPa | 0V | 00:00:00 | 00:00:00 | 00:00:00 | |
| KRY50SP | 2026-08-30 14:13:16 | 52.50389 | 17.35793 | 71° | 68km/h | 6158m | 3.1m/s | 0°C | 0% | 0hPa | 0V | 00:00:00 | 00:00:00 | 00:00:00 | |
| KRY50SP-1 | 2026-08-30 14:13:13 | 52.50370 | 17.35718 | 61° | 58km/h | 6150m | 5.6m/s | 0°C | 0% | 0hPa | 0V | 00:00:00 | 00:00:00 | 00:00:00 | |
| KRY50SP | 2026-08-30 14:13:11 | 52.50357 | 17.35669 | 70° | 68km/h | 6140m | 3.0m/s | 0°C | 0% | 0hPa | 0V | 00:00:00 | 00:00:00 | 00:00:00 | |
| SP3WXH-11 | 2026-08-30 14:13:08 | 52.50338 | 17.35596 | 55° | 58km/h | 6130m | 4.8m/s | 0°C | -1.0% | -1.0hPa | 0V | 00:00:00 | 00:00:00 | 00:00:00 | |
| KRY50SP-1 | 2026-08-30 14:13:07 | 52.50331 | 17.35573 | 69° | 62km/h | 6126m | 4.8m/s | 0°C | 0% | 0hPa | 0V | 00:00:00 | 00:00:00 | 00:00:00 | |
| KRY50SP | 2026-08-30 14:13:06 | 52.50325 | 17.35548 | 69° | 68km/h | 6122m | 2.7m/s | 0°C | 0% | 0hPa | 0V | 00:00:00 | 00:00:00 | 00:00:00 | |
| SP3BTT-10 | 2026-08-30 14:13:05 | 52.50318 | 17.35525 | 61° | 62km/h | 6119m | 1.9m/s | 0°C | 0% | 0hPa | 0V | 00:00:00 | 00:00:00 | 00:00:00 | |
| KRY50SP | 2026-08-30 14:13:01 | 52.50293 | 17.35428 | 68° | 69km/h | 6104m | 2.2m/s | 0°C | 0% | 0hPa | 0V | 00:00:00 | 00:00:00 | 00:00:00 | |
| KRY50SP-1 | 2026-08-30 14:12:54 | 52.50251 | 17.35262 | 60° | 68km/h | 6080m | 4.8m/s | 0°C | 0% | 0hPa | 0V | 00:00:00 | 00:00:00 | 00:00:00 | |
| KRY50SP | 2026-08-30 14:12:50 | 52.50226 | 17.35164 | 79° | 66km/h | 6066m | 3.3m/s | 0°C | 0% | 0hPa | 0V | 00:00:00 | 00:00:00 | 00:00:00 | |
| KRY50SP-1 | 2026-08-30 14:12:48 | 52.50213 | 17.35118 | 68° | 64km/h | 6057m | 4.5m/s | 0°C | 0% | 0hPa | 0V | 00:00:00 | 00:00:00 | 00:00:00 | |
| KRY50SP | 2026-08-30 14:12:44 | 52.50188 | 17.35020 | 59° | 58km/h | 6043m | 5.4m/s | 0°C | 0% | 0hPa | 0V | 00:00:00 | 00:00:00 | 00:00:00 | |
| KRY50SP-1 | 2026-08-30 14:12:43 | 52.50181 | 17.34998 | 69° | 64km/h | 6038m | 4.9m/s | 0°C | 0% | 0hPa | 0V | 00:00:00 | 00:00:00 | 00:00:00 | |
| KRY50SP-1 | 2026-08-30 14:12:38 | 52.50151 | 17.34880 | 72° | 64km/h | 6020m | 5.3m/s | 0°C | 0% | 0hPa | 0V | 00:00:00 | 00:00:00 | 00:00:00 | |
| SP3WXH-11 | 2026-08-30 14:12:37 | 52.50145 | 17.34855 | 68° | 64km/h | 6016m | 3.5m/s | 0°C | -1.0% | -1.0hPa | 0V | 00:00:00 | 00:00:00 | 00:00:00 | |
| KRY50SP-1 | 2026-08-30 14:12:32 | 52.50116 | 17.34736 | 71° | 64km/h | 5998m | 3.3m/s | 0°C | 0% | 0hPa | 0V | 00:00:00 | 00:00:00 | 00:00:00 | |
| KRY50SP-1 | 2026-08-30 14:12:27 | 52.50087 | 17.34616 | 72° | 66km/h | 5980m | 3.1m/s | 0°C | 0% | 0hPa | 0V | 00:00:00 | 00:00:00 | 00:00:00 | |
| KRY50SP | 2026-08-30 14:12:22 | 52.50058 | 17.34497 | 69° | 64km/h | 5961m | 3.7m/s | 0°C | 0% | 0hPa | 0V | 00:00:00 | 00:00:00 | 00:00:00 | |
| KRY50SP-1 | 2026-08-30 14:12:21 | 52.50053 | 17.34474 | 73° | 55km/h | 5958m | 1.9m/s | 0°C | 0% | 0hPa | 0V | 00:00:00 | 00:00:00 | 00:00:00 | |
| SP3BTT-10 | 2026-08-30 14:12:20 | 52.50047 | 17.34448 | 69° | 62km/h | 5955m | 2.6m/s | 0°C | 0% | 0hPa | 0V | 00:00:00 | 00:00:00 | 00:00:00 | |
| KRY50SP-1 | 2026-08-30 14:12:16 | 52.50025 | 17.34353 | 70° | 53km/h | 5939m | 2.6m/s | 0°C | 0% | 0hPa | 0V | 00:00:00 | 00:00:00 | 00:00:00 | |
| KRY50SP | 2026-08-30 14:12:13 | 52.50009 | 17.34283 | 71° | 64km/h | 5928m | 4.5m/s | 0°C | 0% | 0hPa | 0V | 00:00:00 | 00:00:00 | 00:00:00 | |
| KRY50SP-1 | 2026-08-30 14:12:10 | 52.49991 | 17.34211 | 67° | 73km/h | 5919m | 2.5m/s | 0°C | 0% | 0hPa | 0V | 00:00:00 | 00:00:00 | 00:00:00 | |
| KRY50SP | 2026-08-30 14:12:06 | 52.49969 | 17.34117 | 71° | 55km/h | 5904m | 1.8m/s | 0°C | 0% | 0hPa | 0V | 00:00:00 | 00:00:00 | 00:00:00 | |
| SP6BVK | 2026-08-30 14:12:02 | 52.49944 | 17.34020 | 69° | 71km/h | 5889m | 2.0m/s | 0°C | 0% | 0hPa | 0V | 00:00:00 | 00:00:00 | 00:00:00 | |
| KRY50SP | 2026-08-30 14:11:57 | 52.49914 | 17.33905 | 68° | 58km/h | 5872m | 3.5m/s | 0°C | 0% | 0hPa | 0V | 00:00:00 | 00:00:00 | 00:00:00 | |
| KRY50SP-1 | 2026-08-30 14:11:56 | 52.49908 | 17.33880 | 68° | 71km/h | 5869m | 2.7m/s | 0°C | 0% | 0hPa | 0V | 00:00:00 | 00:00:00 | 00:00:00 | |
| KRY50SP | 2026-08-30 14:11:51 | 52.49877 | 17.33761 | 70° | 51km/h | 5852m | 2.7m/s | 0°C | 0% | 0hPa | 0V | 00:00:00 | 00:00:00 | 00:00:00 | |
| KRY50SP-1 | 2026-08-30 14:11:50 | 52.49871 | 17.33739 | 67° | 66km/h | 5849m | 4.5m/s | 0°C | 0% | 0hPa | 0V | 00:00:00 | 00:00:00 | 00:00:00 | |
| KRY50SP | 2026-08-30 14:11:45 | 52.49841 | 17.33621 | 68° | 58km/h | 5832m | 3.9m/s | 0°C | 0% | 0hPa | 0V | 00:00:00 | 00:00:00 | 00:00:00 | |
| KRY50SP-1 | 2026-08-30 14:11:44 | 52.49836 | 17.33599 | 71° | 55km/h | 5829m | 2.3m/s | 0°C | 0% | 0hPa | 0V | 00:00:00 | 00:00:00 | 00:00:00 | |
| KRY50SP | 2026-08-30 14:11:39 | 52.49806 | 17.33482 | 62° | 68km/h | 5813m | 1.8m/s | 0°C | 0% | 0hPa | 0V | 00:00:00 | 00:00:00 | 00:00:00 | |
| KRY50SP-1 | 2026-08-30 14:11:38 | 52.49801 | 17.33458 | 81° | 55km/h | 5810m | 4.1m/s | 0°C | 0% | 0hPa | 0V | 00:00:00 | 00:00:00 | 00:00:00 | |
| SP6BVK | 2026-08-30 14:11:36 | 52.49790 | 17.33412 | 69° | 66km/h | 5802m | 3.2m/s | 0°C | 0% | 0hPa | 0V | 00:00:00 | 00:00:00 | 00:00:00 | |
| SP3BTT-10 | 2026-08-30 14:11:35 | 52.49785 | 17.33387 | 74° | 60km/h | 5799m | 1.8m/s | 0°C | 0% | 0hPa | 0V | 00:00:00 | 00:00:00 | 00:00:00 | |
| KRY50SP | 2026-08-30 14:11:33 | 52.49772 | 17.33342 | 77° | 66km/h | 5794m | 4.9m/s | 0°C | 0% | 0hPa | 0V | 00:00:00 | 00:00:00 | 00:00:00 | |
| KRY50SP | 2026-08-30 14:11:28 | 52.49743 | 17.33228 | 74° | 69km/h | 5775m | 5.5m/s | 0°C | 0% | 0hPa | 0V | 00:00:00 | 00:00:00 | 00:00:00 | |
| KRY50SP-1 | 2026-08-30 14:11:27 | 52.49737 | 17.33203 | 64° | 62km/h | 5770m | 4.3m/s | 0°C | 0% | 0hPa | 0V | 00:00:00 | 00:00:00 | 00:00:00 | |
| KRY50SP-1 | 2026-08-30 14:11:22 | 52.49707 | 17.33090 | 63° | 57km/h | 5753m | 5.2m/s | 0°C | 0% | 0hPa | 0V | 00:00:00 | 00:00:00 | 00:00:00 | |
| KRY50SP | 2026-08-30 14:11:08 | 52.49627 | 17.32776 | 58° | 64km/h | 5705m | 4.8m/s | 0°C | 0% | 0hPa | 0V | 00:00:00 | 00:00:00 | 00:00:00 | |
| KRY50SP-1 | 2026-08-30 14:11:06 | 52.49614 | 17.32731 | 72° | 58km/h | 5696m | 3.0m/s | 0°C | 0% | 0hPa | 0V | 00:00:00 | 00:00:00 | 00:00:00 | |
| SP3WXH-11 | 2026-08-30 14:11:04 | 52.49597 | 17.32662 | 57° | 62km/h | 5688m | 5.3m/s | 0°C | -1.0% | -1.0hPa | 0V | 00:00:00 | 00:00:00 | 00:00:00 | |
| KRY50SP | 2026-08-30 14:11:03 | 52.49597 | 17.32662 | 58° | 62km/h | 5688m | 5.3m/s | 0°C | 0% | 0hPa | 0V | 00:00:00 | 00:00:00 | 00:00:00 | |
| KRY50SP-1 | 2026-08-30 14:11:01 | 52.49585 | 17.32616 | 72° | 58km/h | 5679m | 3.2m/s | 0°C | 0% | 0hPa | 0V | 00:00:00 | 00:00:00 | 00:00:00 | |
| KRY50SP | 2026-08-30 14:10:57 | 52.49561 | 17.32527 | 77° | 58km/h | 5667m | 5.8m/s | 0°C | 0% | 0hPa | 0V | 00:00:00 | 00:00:00 | 00:00:00 | |
| KRY50SP-1 | 2026-08-30 14:10:56 | 52.49556 | 17.32504 | 70° | 62km/h | 5662m | 3.5m/s | 0°C | 0% | 0hPa | 0V | 00:00:00 | 00:00:00 | 00:00:00 | |
| SP3BTT-10 | 2026-08-30 14:10:53 | 52.49539 | 17.32434 | 58° | 57km/h | 5653m | 4.5m/s | 0°C | 0% | 0hPa | 0V | 00:00:00 | 00:00:00 | 00:00:00 | |
| KRY50SP-1 | 2026-08-30 14:10:51 | 52.49528 | 17.32389 | 67° | 64km/h | 5644m | 3.3m/s | 0°C | 0% | 0hPa | 0V | 00:00:00 | 00:00:00 | 00:00:00 | |
| SP6BVK | 2026-08-30 14:10:50 | 52.49522 | 17.32367 | 70° | 51km/h | 5642m | 2.0m/s | 0°C | 0% | 0hPa | 0V | 00:00:00 | 00:00:00 | 00:00:00 | |
| KRY50SP | 2026-08-30 14:10:45 | 52.49495 | 17.32254 | 70° | 49km/h | 5626m | 1.4m/s | 0°C | 0% | 0hPa | 0V | 00:00:00 | 00:00:00 | 00:00:00 | |
| KRY50SP | 2026-08-30 14:10:40 | 52.49467 | 17.32139 | 61° | 47km/h | 5611m | 1.9m/s | 0°C | 0% | 0hPa | 0V | 00:00:00 | 00:00:00 | 00:00:00 | |
| KRY50SP-1 | 2026-08-30 14:10:39 | 52.49462 | 17.32117 | 77° | 69km/h | 5607m | 5.1m/s | 0°C | 0% | 0hPa | 0V | 00:00:00 | 00:00:00 | 00:00:00 | |
| KRY50SP | 2026-08-30 14:10:35 | 52.49439 | 17.32023 | 54° | 58km/h | 5594m | 2.7m/s | 0°C | 0% | 0hPa | 0V | 00:00:00 | 00:00:00 | 00:00:00 | |
| KRY50SP-1 | 2026-08-30 14:10:34 | 52.49433 | 17.32002 | 76° | 60km/h | 5590m | 5.5m/s | 0°C | 0% | 0hPa | 0V | 00:00:00 | 00:00:00 | 00:00:00 | |
| SP3WXH-11 | 2026-08-30 14:10:33 | 52.49423 | 17.31957 | 64° | 57km/h | 5581m | 2.9m/s | 0°C | -1.0% | -1.0hPa | 0V | 00:00:00 | 00:00:00 | 00:00:00 | |
| KRY50SP | 2026-08-30 14:10:30 | 52.49412 | 17.31911 | 60° | 60km/h | 5577m | 1.7m/s | 0°C | 0% | 0hPa | 0V | 00:00:00 | 00:00:00 | 00:00:00 | |
| KRY50SP-1 | 2026-08-30 14:10:28 | 52.49403 | 17.31865 | 65° | 57km/h | 5569m | 5.2m/s | 0°C | 0% | 0hPa | 0V | 00:00:00 | 00:00:00 | 00:00:00 | |
| KRY50SP | 2026-08-30 14:10:25 | 52.49386 | 17.31799 | 57° | 64km/h | 5560m | 1.9m/s | 0°C | 0% | 0hPa | 0V | 00:00:00 | 00:00:00 | 00:00:00 | |
| KRY50SP-1 | 2026-08-30 14:10:22 | 52.49371 | 17.31732 | 65° | 57km/h | 5549m | 2.7m/s | 0°C | 0% | 0hPa | 0V | 00:00:00 | 00:00:00 | 00:00:00 | |
| KRY50SP | 2026-08-30 14:10:19 | 52.49354 | 17.31667 | 79° | 55km/h | 5541m | 4.2m/s | 0°C | 0% | 0hPa | 0V | 00:00:00 | 00:00:00 | 00:00:00 | |
| KRY50SP-1 | 2026-08-30 14:10:16 | 52.49339 | 17.31601 | 80° | 55km/h | 5530m | 1.7m/s | 0°C | 0% | 0hPa | 0V | 00:00:00 | 00:00:00 | 00:00:00 | |
| KRY50SP | 2026-08-30 14:10:14 | 52.49327 | 17.31559 | 79° | 53km/h | 5525m | 5.6m/s | 0°C | 0% | 0hPa | 0V | 00:00:00 | 00:00:00 | 00:00:00 | |
| KRY50SP-1 | 2026-08-30 14:10:10 | 52.49307 | 17.31473 | 54° | 57km/h | 5511m | 3.1m/s | 0°C | 0% | 0hPa | 0V | 00:00:00 | 00:00:00 | 00:00:00 | |
| KRY50SP | 2026-08-30 14:10:08 | 52.49297 | 17.31429 | 71° | 60km/h | 5503m | 3.4m/s | 0°C | 0% | 0hPa | 0V | 00:00:00 | 00:00:00 | 00:00:00 | |
| SP3BTT-10 | 2026-08-30 14:10:05 | 52.49281 | 17.31363 | 58° | 55km/h | 5496m | 4.8m/s | 0°C | 0% | 0hPa | 0V | 00:00:00 | 00:00:00 | 00:00:00 | |
| KRY50SP-1 | 2026-08-30 14:10:04 | 52.49275 | 17.31343 | 72° | 58km/h | 5491m | 4.4m/s | 0°C | 0% | 0hPa | 0V | 00:00:00 | 00:00:00 | 00:00:00 | |
| KRY50SP | 2026-08-30 14:10:03 | 52.49271 | 17.31320 | 71° | 58km/h | 5487m | 3.6m/s | 0°C | 0% | 0hPa | 0V | 00:00:00 | 00:00:00 | 00:00:00 | |
| SP3WXH-11 | 2026-08-30 14:10:02 | 52.49260 | 17.31277 | 78° | 64km/h | 5482m | 1.5m/s | 0°C | -1.0% | -1.0hPa | 0V | 00:00:00 | 00:00:00 | 00:00:00 | |
| KRY50SP | 2026-08-30 14:09:58 | 52.49244 | 17.31212 | 68° | 57km/h | 5471m | 3.9m/s | 0°C | 0% | 0hPa | 0V | 00:00:00 | 00:00:00 | 00:00:00 | |
| KRY50SP-1 | 2026-08-30 14:09:53 | 52.49219 | 17.31105 | 67° | 57km/h | 5456m | 4.2m/s | 0°C | 0% | 0hPa | 0V | 00:00:00 | 00:00:00 | 00:00:00 | |
| KRY50SP | 2026-08-30 14:09:52 | 52.49213 | 17.31084 | 71° | 51km/h | 5453m | 1.9m/s | 0°C | 0% | 0hPa | 0V | 00:00:00 | 00:00:00 | 00:00:00 | |
| KRY50SP-1 | 2026-08-30 14:09:47 | 52.49187 | 17.30977 | 75° | 51km/h | 5439m | 1.5m/s | 0°C | 0% | 0hPa | 0V | 00:00:00 | 00:00:00 | 00:00:00 | |
| KRY50SP | 2026-08-30 14:09:41 | 52.49156 | 17.30850 | 69° | 66km/h | 5422m | 2.0m/s | 0°C | 0% | 0hPa | 0V | 00:00:00 | 00:00:00 | 00:00:00 | |
| KRY50SP-1 | 2026-08-30 14:09:36 | 52.49128 | 17.30746 | 75° | 66km/h | 5407m | 1.2m/s | 0°C | 0% | 0hPa | 0V | 00:00:00 | 00:00:00 | 00:00:00 | |
| KRY50SP | 2026-08-30 14:09:35 | 52.49123 | 17.30725 | 54° | 46km/h | 5405m | 3.8m/s | 0°C | 0% | 0hPa | 0V | 00:00:00 | 00:00:00 | 00:00:00 | |
| SP3WXH-11 | 2026-08-30 14:09:31 | 52.49096 | 17.30624 | 62° | 55km/h | 5390m | 3.1m/s | 0°C | -1.0% | -1.0hPa | 0V | 00:00:00 | 00:00:00 | 00:00:00 | |
| KRY50SP | 2026-08-30 14:09:30 | 52.49096 | 17.30624 | 63° | 57km/h | 5390m | 3.1m/s | 0°C | 0% | 0hPa | 0V | 00:00:00 | 00:00:00 | 00:00:00 | |
| KRY50SP | 2026-08-30 14:09:24 | 52.49063 | 17.30498 | 64° | 51km/h | 5374m | 3.3m/s | 0°C | 0% | 0hPa | 0V | 00:00:00 | 00:00:00 | 00:00:00 | |
| SP3BTT-10 | 2026-08-30 14:09:20 | 52.49042 | 17.30416 | 60° | 57km/h | 5364m | 4.5m/s | 0°C | 0% | 0hPa | 0V | 00:00:00 | 00:00:00 | 00:00:00 | |
| KRY50SP | 2026-08-30 14:09:19 | 52.49036 | 17.30396 | 65° | 53km/h | 5360m | 3.4m/s | 0°C | 0% | 0hPa | 0V | 00:00:00 | 00:00:00 | 00:00:00 | |
| KRY50SP | 2026-08-30 14:09:13 | 52.49003 | 17.30273 | 73° | 55km/h | 5343m | 1.5m/s | 0°C | 0% | 0hPa | 0V | 00:00:00 | 00:00:00 | 00:00:00 | |
| KRY50SP | 2026-08-30 14:09:08 | 52.48977 | 17.30170 | 74° | 53km/h | 5330m | 1.3m/s | 0°C | 0% | 0hPa | 0V | 00:00:00 | 00:00:00 | 00:00:00 | |
| KRY50SP | 2026-08-30 14:09:03 | 52.48949 | 17.30067 | 75° | 58km/h | 5317m | 0.9m/s | 0°C | 0% | 0hPa | 0V | 00:00:00 | 00:00:00 | 00:00:00 | |
| SP3WXH-11 | 2026-08-30 14:09:00 | 52.48927 | 17.29981 | 66° | 57km/h | 5307m | 2.9m/s | 0°C | -1.0% | -1.0hPa | 0V | 00:00:00 | 00:00:00 | 00:00:00 | |
| KRY50SP | 2026-08-30 14:08:57 | 52.48916 | 17.29937 | 55° | 58km/h | 5304m | 1.0m/s | 0°C | 0% | 0hPa | 0V | 00:00:00 | 00:00:00 | 00:00:00 | |
| KRY50SP | 2026-08-30 14:08:51 | 52.48884 | 17.29808 | 68° | 55km/h | 5288m | 3.3m/s | 0°C | 0% | 0hPa | 0V | 00:00:00 | 00:00:00 | 00:00:00 | |
| KRY50SP | 2026-08-30 14:08:46 | 52.48858 | 17.29698 | 65° | 62km/h | 5276m | 2.8m/s | 0°C | 0% | 0hPa | 0V | 00:00:00 | 00:00:00 | 00:00:00 | |
| KRY50SP | 2026-08-30 14:08:40 | 52.48826 | 17.29569 | 66° | 60km/h | 5263m | 2.9m/s | 0°C | 0% | 0hPa | 0V | 00:00:00 | 00:00:00 | 00:00:00 | |
| SP3BTT-10 | 2026-08-30 14:08:35 | 52.48800 | 17.29458 | 68° | 57km/h | 5253m | 1.7m/s | 0°C | 0% | 0hPa | 0V | 00:00:00 | 00:00:00 | 00:00:00 | |
| KRY50SP | 2026-08-30 14:08:34 | 52.48796 | 17.29436 | 74° | 62km/h | 5250m | 3.1m/s | 0°C | 0% | 0hPa | 0V | 00:00:00 | 00:00:00 | 00:00:00 | |
| SP3WXH-11 | 2026-08-30 14:08:29 | 52.48765 | 17.29299 | 67° | 46km/h | 5237m | 1.8m/s | 0°C | -1.0% | -1.0hPa | 0V | 00:00:00 | 00:00:00 | 00:00:00 | |
| KRY50SP | 2026-08-30 14:08:28 | 52.48765 | 17.29299 | 68° | 47km/h | 5237m | 1.8m/s | 0°C | 0% | 0hPa | 0V | 00:00:00 | 00:00:00 | 00:00:00 | |
| KRY50SP | 2026-08-30 14:08:22 | 52.48734 | 17.29162 | 75° | 49km/h | 5225m | 2.4m/s | 0°C | 0% | 0hPa | 0V | 00:00:00 | 00:00:00 | 00:00:00 | |
| KRY50SP | 2026-08-30 14:08:16 | 52.48706 | 17.29025 | 76° | 47km/h | 5212m | 3.0m/s | 0°C | 0% | 0hPa | 0V | 00:00:00 | 00:00:00 | 00:00:00 | |
| KRY50SP | 2026-08-30 14:08:10 | 52.48679 | 17.28890 | 72° | 51km/h | 5198m | 1.4m/s | 0°C | 0% | 0hPa | 0V | 00:00:00 | 00:00:00 | 00:00:00 | |
| KRY50SP | 2026-08-30 14:08:04 | 52.48651 | 17.28753 | 76° | 71km/h | 5186m | 1.3m/s | 0°C | 0% | 0hPa | 0V | 00:00:00 | 00:00:00 | 00:00:00 | |
| SP3WXH-11 | 2026-08-30 14:07:58 | 52.48619 | 17.28597 | 73° | 60km/h | 5167m | 4.2m/s | 0°C | -1.0% | -1.0hPa | 0V | 00:00:00 | 00:00:00 | 00:00:00 | |
| KRY50SP | 2026-08-30 14:07:54 | 52.48606 | 17.28529 | 78° | 68km/h | 5161m | 1.2m/s | 0°C | 0% | 0hPa | 0V | 00:00:00 | 00:00:00 | 00:00:00 | |
| SP3BTT-10 | 2026-08-30 14:07:50 | 52.48587 | 17.28443 | 68° | 53km/h | 5149m | 1.8m/s | 0°C | 0% | 0hPa | 0V | 00:00:00 | 00:00:00 | 00:00:00 | |
| KRY50SP | 2026-08-30 14:07:49 | 52.48583 | 17.28421 | 80° | 60km/h | 5148m | 0.2m/s | 0°C | 0% | 0hPa | 0V | 00:00:00 | 00:00:00 | 00:00:00 | |
| KRY50SP | 2026-08-30 14:07:43 | 52.48557 | 17.28294 | 56° | 51km/h | 5134m | 3.1m/s | 0°C | 0% | 0hPa | 0V | 00:00:00 | 00:00:00 | 00:00:00 | |
| KRY50SP | 2026-08-30 14:07:37 | 52.48532 | 17.28167 | 77° | 53km/h | 5117m | 3.4m/s | 0°C | 0% | 0hPa | 0V | 00:00:00 | 00:00:00 | 00:00:00 | |
| KRY50SP | 2026-08-30 14:07:32 | 52.48512 | 17.28062 | 76° | 57km/h | 5105m | 4.1m/s | 0°C | 0% | 0hPa | 0V | 00:00:00 | 00:00:00 | 00:00:00 | |
| KRY50SP | 2026-08-30 14:07:27 | 52.48491 | 17.27960 | 80° | 58km/h | 5093m | 4.2m/s | 0°C | 0% | 0hPa | 0V | 00:00:00 | 00:00:00 | 00:00:00 | |
| KRY50SP | 2026-08-30 14:07:21 | 52.48467 | 17.27833 | 68° | 53km/h | 5076m | 4.2m/s | 0°C | 0% | 0hPa | 0V | 00:00:00 | 00:00:00 | 00:00:00 | |
| KRY50SP | 2026-08-30 14:07:16 | 52.48445 | 17.27732 | 68° | 51km/h | 5063m | 4.4m/s | 0°C | 0% | 0hPa | 0V | 00:00:00 | 00:00:00 | 00:00:00 | |
| KRY50SP | 2026-08-30 14:07:11 | 52.48419 | 17.27616 | 69° | 49km/h | 5047m | 2.5m/s | 0°C | 0% | 0hPa | 0V | 00:00:00 | 00:00:00 | 00:00:00 | |
| SP3BTT-10 | 2026-08-30 14:07:10 | 52.48419 | 17.27616 | 68° | 49km/h | 5047m | 2.4m/s | 0°C | 0% | 0hPa | 0V | 00:00:00 | 00:00:00 | 00:00:00 | |
| KRY50SP | 2026-08-30 14:07:03 | 52.48390 | 17.27476 | 75° | 38km/h | 5030m | 1.3m/s | 0°C | 0% | 0hPa | 0V | 00:00:00 | 00:00:00 | 00:00:00 | |
| SP3WXH-11 | 2026-08-30 14:06:56 | 52.48352 | 17.27295 | 66° | 57km/h | 5005m | 1.5m/s | 0°C | -1.0% | -1.0hPa | 0V | 00:00:00 | 00:00:00 | 00:00:00 | |
| KRY50SP | 2026-08-30 14:06:54 | 52.48352 | 17.27295 | 68° | 58km/h | 5005m | 1.5m/s | 0°C | 0% | 0hPa | 0V | 00:00:00 | 00:00:00 | 00:00:00 | |
| KRY50SP | 2026-08-30 14:06:48 | 52.48325 | 17.27176 | 85° | 42km/h | 4991m | 1.9m/s | 0°C | 0% | 0hPa | 0V | 00:00:00 | 00:00:00 | 00:00:00 | |
| KRY50SP | 2026-08-30 14:06:41 | 52.48292 | 17.27035 | 73° | 46km/h | 4969m | 4.5m/s | 0°C | 0% | 0hPa | 0V | 00:00:00 | 00:00:00 | 00:00:00 | |
| KRY50SP | 2026-08-30 14:06:36 | 52.48269 | 17.26935 | 73° | 49km/h | 4954m | 4.8m/s | 0°C | 0% | 0hPa | 0V | 00:00:00 | 00:00:00 | 00:00:00 | |
| KRY50SP | 2026-08-30 14:06:30 | 52.48240 | 17.26816 | 70° | 53km/h | 4936m | 4.1m/s | 0°C | 0% | 0hPa | 0V | 00:00:00 | 00:00:00 | 00:00:00 | |
| SP3WXH-11 | 2026-08-30 14:06:25 | 52.48210 | 17.26693 | 66° | 55km/h | 4918m | 2.5m/s | 0°C | -1.0% | -1.0hPa | 0V | 00:00:00 | 00:00:00 | 00:00:00 | |
| SP3BTT-10 | 2026-08-30 14:06:24 | 52.48210 | 17.26693 | 67° | 53km/h | 4918m | 2.5m/s | 0°C | 0% | 0hPa | 0V | 00:00:00 | 00:00:00 | 00:00:00 | |
| KRY50SP | 2026-08-30 14:06:20 | 52.48191 | 17.26612 | 72° | 53km/h | 4906m | 3.4m/s | 0°C | 0% | 0hPa | 0V | 00:00:00 | 00:00:00 | 00:00:00 | |
| KRY50SP | 2026-08-30 14:06:14 | 52.48161 | 17.26491 | 72° | 55km/h | 4890m | 2.2m/s | 0°C | 0% | 0hPa | 0V | 00:00:00 | 00:00:00 | 00:00:00 | |
| KRY50SP | 2026-08-30 14:06:09 | 52.48136 | 17.26390 | 70° | 58km/h | 4875m | 2.2m/s | 0°C | 0% | 0hPa | 0V | 00:00:00 | 00:00:00 | 00:00:00 | |
| KRY50SP | 2026-08-30 14:06:04 | 52.48109 | 17.26289 | 63° | 60km/h | 4861m | 1.1m/s | 0°C | 0% | 0hPa | 0V | 00:00:00 | 00:00:00 | 00:00:00 | |
| SP3WXH-11 | 2026-08-30 14:05:54 | 52.48056 | 17.26066 | 69° | 38km/h | 4827m | 3.2m/s | 0°C | -1.0% | -1.0hPa | 0V | 00:00:00 | 00:00:00 | 00:00:00 | |
| KRY50SP | 2026-08-30 14:05:53 | 52.48056 | 17.26066 | 70° | 38km/h | 4827m | 3.2m/s | 0°C | 0% | 0hPa | 0V | 00:00:00 | 00:00:00 | 00:00:00 | |
| KRY50SP | 2026-08-30 14:05:48 | 52.48030 | 17.25960 | 60° | 42km/h | 4811m | 2.9m/s | 0°C | 0% | 0hPa | 0V | 00:00:00 | 00:00:00 | 00:00:00 | |
| KRY50SP | 2026-08-30 14:05:42 | 52.47997 | 17.25834 | 67° | 58km/h | 4791m | 4.8m/s | 0°C | 0% | 0hPa | 0V | 00:00:00 | 00:00:00 | 00:00:00 | |
| KRY50SP | 2026-08-30 14:05:36 | 52.47966 | 17.25705 | 68° | 55km/h | 4769m | 4.1m/s | 0°C | 0% | 0hPa | 0V | 00:00:00 | 00:00:00 | 00:00:00 | |
| KRY50SP | 2026-08-30 14:05:26 | 52.47915 | 17.25490 | 74° | 58km/h | 4735m | 4.2m/s | 0°C | 0% | 0hPa | 0V | 00:00:00 | 00:00:00 | 00:00:00 | |
| SP3BTT-10 | 2026-08-30 14:05:24 | 52.47906 | 17.25447 | 69° | 55km/h | 4728m | 1.7m/s | 0°C | 0% | 0hPa | 0V | 00:00:00 | 00:00:00 | 00:00:00 | |
| SP3WXH-11 | 2026-08-30 14:05:23 | 52.47896 | 17.25406 | 66° | 66km/h | 4723m | 3.6m/s | 0°C | -1.0% | -1.0hPa | 0V | 00:00:00 | 00:00:00 | 00:00:00 | |
| KRY50SP | 2026-08-30 14:05:20 | 52.47886 | 17.25364 | 70° | 57km/h | 4715m | 3.8m/s | 0°C | 0% | 0hPa | 0V | 00:00:00 | 00:00:00 | 00:00:00 | |
| KRY50SP | 2026-08-30 14:05:02 | 52.47800 | 17.24976 | 71° | 55km/h | 4656m | 4.4m/s | 0°C | 0% | 0hPa | 0V | 00:00:00 | 00:00:00 | 00:00:00 | |
| SP3WXH-11 | 2026-08-30 14:04:52 | 52.47754 | 17.24742 | 74° | 55km/h | 4620m | 4.6m/s | 0°C | -1.0% | -1.0hPa | 0V | 00:00:00 | 00:00:00 | 00:00:00 | |
| KRY50SP | 2026-08-30 14:04:51 | 52.47754 | 17.24742 | 76° | 55km/h | 4620m | 4.6m/s | 0°C | 0% | 0hPa | 0V | 00:00:00 | 00:00:00 | 00:00:00 | |
| KRY50SP | 2026-08-30 14:04:45 | 52.47727 | 17.24614 | 68° | 57km/h | 4600m | 2.7m/s | 0°C | 0% | 0hPa | 0V | 00:00:00 | 00:00:00 | 00:00:00 | |
| KRY50SP | 2026-08-30 14:04:40 | 52.47706 | 17.24508 | 69° | 57km/h | 4582m | 3.0m/s | 0°C | 0% | 0hPa | 0V | 00:00:00 | 00:00:00 | 00:00:00 | |
| KRY50SP | 2026-08-30 14:04:35 | 52.47684 | 17.24403 | 69° | 55km/h | 4565m | 3.2m/s | 0°C | 0% | 0hPa | 0V | 00:00:00 | 00:00:00 | 00:00:00 | |
| KRY50SP | 2026-08-30 14:04:29 | 52.47657 | 17.24278 | 79° | 47km/h | 4548m | 3.2m/s | 0°C | 0% | 0hPa | 0V | 00:00:00 | 00:00:00 | 00:00:00 | |
| SP3BTT-10 | 2026-08-30 14:04:24 | 52.47636 | 17.24173 | 56° | 53km/h | 4533m | 4.1m/s | 0°C | 0% | 0hPa | 0V | 00:00:00 | 00:00:00 | 00:00:00 | |
| SP3WXH-11 | 2026-08-30 14:04:21 | 52.47618 | 17.24091 | 82° | 58km/h | 4521m | 3.2m/s | 0°C | -1.0% | -1.0hPa | 0V | 00:00:00 | 00:00:00 | 00:00:00 | |
| KRY50SP | 2026-08-30 14:04:18 | 52.47609 | 17.24050 | 71° | 53km/h | 4513m | 3.3m/s | 0°C | 0% | 0hPa | 0V | 00:00:00 | 00:00:00 | 00:00:00 | |
| KRY50SP | 2026-08-30 14:04:10 | 52.47573 | 17.23882 | 71° | 58km/h | 4488m | 4.3m/s | 0°C | 0% | 0hPa | 0V | 00:00:00 | 00:00:00 | 00:00:00 | |
| KRY50SP | 2026-08-30 14:04:05 | 52.47552 | 17.23776 | 64° | 47km/h | 4472m | 4.9m/s | 0°C | 0% | 0hPa | 0V | 00:00:00 | 00:00:00 | 00:00:00 | |
| KRY50SP | 2026-08-30 14:04:00 | 52.47529 | 17.23673 | 77° | 58km/h | 4456m | 2.1m/s | 0°C | 0% | 0hPa | 0V | 00:00:00 | 00:00:00 | 00:00:00 | |
| SP3WXH-11 | 2026-08-30 14:03:50 | 52.47471 | 17.23434 | 69° | 47km/h | 4417m | 2.0m/s | 0°C | 0% | -1.0hPa | 0V | 00:00:00 | 00:00:00 | 00:00:00 | |
| KRY50SP | 2026-08-30 14:03:48 | 52.47470 | 17.23434 | 71° | 47km/h | 4417m | 2.0m/s | 0°C | 0% | 0hPa | 0V | 00:00:00 | 00:00:00 | 00:00:00 | |
| KRY50SP | 2026-08-30 14:03:42 | 52.47442 | 17.23310 | 63° | 62km/h | 4400m | 2.2m/s | 0°C | 0% | 0hPa | 0V | 00:00:00 | 00:00:00 | 00:00:00 | |
| KRY50SP | 2026-08-30 14:03:37 | 52.47418 | 17.23211 | 69° | 66km/h | 4385m | 2.1m/s | 0°C | 0% | 0hPa | 0V | 00:00:00 | 00:00:00 | 00:00:00 | |
| KRY50SP | 2026-08-30 14:03:31 | 52.47386 | 17.23089 | 54° | 47km/h | 4365m | 4.8m/s | 0°C | 0% | 0hPa | 0V | 00:00:00 | 00:00:00 | 00:00:00 | |
| KRY50SP | 2026-08-30 14:03:26 | 52.47360 | 17.22990 | 62° | 57km/h | 4348m | 4.4m/s | 0°C | 0% | 0hPa | 0V | 00:00:00 | 00:00:00 | 00:00:00 | |
| SP3BTT-10 | 2026-08-30 14:03:22 | 52.47340 | 17.22913 | 71° | 53km/h | 4336m | 5.0m/s | 0°C | 0% | 0hPa | 0V | 00:00:00 | 00:00:00 | 00:00:00 | |
| KRY50SP | 2026-08-30 14:03:20 | 52.47331 | 17.22872 | 70° | 49km/h | 4329m | 2.3m/s | 0°C | 0% | 0hPa | 0V | 00:00:00 | 00:00:00 | 00:00:00 | |
| SP3WXH-11 | 2026-08-30 14:03:19 | 52.47321 | 17.22832 | 68° | 38km/h | 4325m | 2.3m/s | 0°C | -1.0% | -1.0hPa | 0V | 00:00:00 | 00:00:00 | 00:00:00 | |
| KRY50SP | 2026-08-30 14:03:14 | 52.47299 | 17.22752 | 64° | 57km/h | 4310m | 2.0m/s | 0°C | 0% | 0hPa | 0V | 00:00:00 | 00:00:00 | 00:00:00 | |
| KRY50SP | 2026-08-30 14:03:09 | 52.47274 | 17.22654 | 67° | 58km/h | 4294m | 2.3m/s | 0°C | 0% | 0hPa | 0V | 00:00:00 | 00:00:00 | 00:00:00 | |
| KRY50SP | 2026-08-30 14:03:04 | 52.47247 | 17.22556 | 67° | 58km/h | 4278m | 1.8m/s | 0°C | 0% | 0hPa | 0V | 00:00:00 | 00:00:00 | 00:00:00 | |
| SP3WXH-11 | 2026-08-30 14:02:48 | 52.47158 | 17.22237 | 66° | 38km/h | 4229m | 4.5m/s | 0°C | -1.0% | -1.0hPa | 0V | 00:00:00 | 00:00:00 | 00:00:00 | |
| KRY50SP | 2026-08-30 14:02:47 | 52.47158 | 17.22237 | 67° | 40km/h | 4229m | 4.5m/s | 0°C | 0% | 0hPa | 0V | 00:00:00 | 00:00:00 | 00:00:00 | |
| KRY50SP | 2026-08-30 14:02:42 | 52.47132 | 17.22143 | 75° | 40km/h | 4215m | 3.6m/s | 0°C | 0% | 0hPa | 0V | 00:00:00 | 00:00:00 | 00:00:00 | |
| KRY50SP | 2026-08-30 14:02:36 | 52.47101 | 17.22031 | 59° | 46km/h | 4197m | 4.0m/s | 0°C | 0% | 0hPa | 0V | 00:00:00 | 00:00:00 | 00:00:00 | |
| KRY50SP | 2026-08-30 14:02:30 | 52.47069 | 17.21920 | 66° | 47km/h | 4179m | 3.7m/s | 0°C | 0% | 0hPa | 0V | 00:00:00 | 00:00:00 | 00:00:00 | |
| KRY50SP | 2026-08-30 14:02:25 | 52.47042 | 17.21829 | 66° | 46km/h | 4166m | 4.7m/s | 0°C | 0% | 0hPa | 0V | 00:00:00 | 00:00:00 | 00:00:00 | |
| SP3BTT-10 | 2026-08-30 14:02:22 | 52.47026 | 17.21775 | 78° | 51km/h | 4158m | 1.4m/s | 0°C | 0% | 0hPa | 0V | 00:00:00 | 00:00:00 | 00:00:00 | |
| SP3WXH-11 | 2026-08-30 14:02:17 | 52.46993 | 17.21668 | 48° | 55km/h | 4141m | 2.8m/s | 0°C | -1.0% | -1.0hPa | 0V | 00:00:00 | 00:00:00 | 00:00:00 | |
| KRY50SP | 2026-08-30 14:02:14 | 52.46981 | 17.21633 | 62° | 53km/h | 4134m | 4.1m/s | 0°C | 0% | 0hPa | 0V | 00:00:00 | 00:00:00 | 00:00:00 | |
| KRY50SP | 2026-08-30 14:02:09 | 52.46953 | 17.21545 | 60° | 47km/h | 4120m | 4.9m/s | 0°C | 0% | 0hPa | 0V | 00:00:00 | 00:00:00 | 00:00:00 | |
| KRY50SP | 2026-08-30 14:02:04 | 52.46924 | 17.21455 | 52° | 44km/h | 4106m | 4.1m/s | 0°C | 0% | 0hPa | 0V | 00:00:00 | 00:00:00 | 00:00:00 | |
| SP3WXH-11 | 2026-08-30 14:01:46 | 52.46821 | 17.21106 | 57° | 42km/h | 4059m | 0.3m/s | 0°C | -1.0% | -1.0hPa | 0V | 00:00:00 | 00:00:00 | 00:00:00 | |
| KRY50SP | 2026-08-30 14:01:41 | 52.46799 | 17.21027 | 73° | 57km/h | 4050m | 0.6m/s | 0°C | 0% | 0hPa | 0V | 00:00:00 | 00:00:00 | 00:00:00 | |
| KRY50SP | 2026-08-30 14:01:35 | 52.46766 | 17.20913 | 59° | 42km/h | 4037m | 0.7m/s | 0°C | 0% | 0hPa | 0V | 00:00:00 | 00:00:00 | 00:00:00 | |
| KRY50SP | 2026-08-30 14:01:30 | 52.46739 | 17.20820 | 52° | 44km/h | 4026m | 0.4m/s | 0°C | 0% | 0hPa | 0V | 00:00:00 | 00:00:00 | 00:00:00 | |
| KRY50SP | 2026-08-30 14:01:25 | 52.46712 | 17.20729 | 55° | 47km/h | 4015m | 0.2m/s | 0°C | 0% | 0hPa | 0V | 00:00:00 | 00:00:00 | 00:00:00 | |
| SP3BTT-10 | 2026-08-30 14:01:20 | 52.46687 | 17.20637 | 56° | 53km/h | 4005m | 0.7m/s | 0°C | 0% | 0hPa | 0V | 00:00:00 | 00:00:00 | 00:00:00 | |
| SP3WXH-11 | 2026-08-30 14:01:15 | 52.46657 | 17.20524 | 77° | 53km/h | 3993m | 0.2m/s | 0°C | -1.0% | -1.0hPa | 0V | 00:00:00 | 00:00:00 | 00:00:00 | |
| KRY50SP | 2026-08-30 14:01:14 | 52.46657 | 17.20524 | 78° | 55km/h | 3993m | 0.2m/s | 0°C | 0% | 0hPa | 0V | 00:00:00 | 00:00:00 | 00:00:00 | |
| KRY50SP | 2026-08-30 14:01:08 | 52.46627 | 17.20412 | 55° | 40km/h | 3981m | 1.3m/s | 0°C | 0% | 0hPa | 0V | 00:00:00 | 00:00:00 | 00:00:00 | |
| KRY50SP | 2026-08-30 14:01:02 | 52.46596 | 17.20295 | 74° | 62km/h | 3969m | 2.6m/s | 0°C | 0% | 0hPa | 0V | 00:00:00 | 00:00:00 | 00:00:00 | |
| SP3WXH-11 | 2026-08-30 14:00:44 | 52.46499 | 17.19908 | 66° | 51km/h | 3929m | 2.2m/s | 0°C | -1.0% | -1.0hPa | 0V | 00:00:00 | 00:00:00 | 00:00:00 | |
| KRY50SP | 2026-08-30 14:00:41 | 52.46488 | 17.19867 | 57° | 46km/h | 3927m | 1.2m/s | 0°C | 0% | 0hPa | 0V | 00:00:00 | 00:00:00 | 00:00:00 | |
| KRY50SP | 2026-08-30 14:00:35 | 52.46455 | 17.19742 | 78° | 66km/h | 3914m | 1.1m/s | 0°C | 0% | 0hPa | 0V | 00:00:00 | 00:00:00 | 00:00:00 | |
| KRY50SP | 2026-08-30 14:00:30 | 52.46428 | 17.19637 | 77° | 60km/h | 3903m | 0.5m/s | 0°C | 0% | 0hPa | 0V | 00:00:00 | 00:00:00 | 00:00:00 | |
| KRY50SP | 2026-08-30 14:00:25 | 52.46401 | 17.19536 | 77° | 64km/h | 3893m | 2.4m/s | 0°C | 0% | 0hPa | 0V | 00:00:00 | 00:00:00 | 00:00:00 | |
| KRY50SP | 2026-08-30 14:00:19 | 52.46370 | 17.19412 | 63° | 57km/h | 3880m | 4.6m/s | 0°C | 0% | 0hPa | 0V | 00:00:00 | 00:00:00 | 00:00:00 | |
| SP3WXH-11 | 2026-08-30 14:00:13 | 52.46332 | 17.19250 | 58° | 53km/h | 3861m | 1.2m/s | 0°C | -1.0% | -1.0hPa | 0V | 00:00:00 | 00:00:00 | 00:00:00 | |
| KRY50SP | 2026-08-30 14:00:07 | 52.46314 | 17.19169 | 75° | 51km/h | 3850m | 2.1m/s | 0°C | 0% | 0hPa | 0V | 00:00:00 | 00:00:00 | 00:00:00 | |
| KRY50SP | 2026-08-30 14:00:01 | 52.46289 | 17.19049 | 65° | 49km/h | 3837m | 1.5m/s | 0°C | 0% | 0hPa | 0V | 00:00:00 | 00:00:00 | 00:00:00 | |
| KRY50SP | 2026-08-30 13:59:55 | 52.46264 | 17.18930 | 80° | 55km/h | 3822m | 0.8m/s | 0°C | 0% | 0hPa | 0V | 00:00:00 | 00:00:00 | 00:00:00 | |
| KRY50SP | 2026-08-30 13:59:49 | 52.46236 | 17.18810 | 54° | 51km/h | 3808m | 1.6m/s | 0°C | 0% | 0hPa | 0V | 00:00:00 | 00:00:00 | 00:00:00 | |
| SP3BTT-10 | 2026-08-30 13:59:44 | 52.46211 | 17.18707 | 53° | 51km/h | 3794m | 1.9m/s | 0°C | 0% | 0hPa | 0V | 00:00:00 | 00:00:00 | 00:00:00 | |
| SP3WXH-11 | 2026-08-30 13:59:42 | 52.46196 | 17.18648 | 65° | 51km/h | 3782m | 3.1m/s | 0°C | -1.0% | -1.0hPa | 0V | 00:00:00 | 00:00:00 | 00:00:00 | |
| KRY50SP | 2026-08-30 13:59:38 | 52.46181 | 17.18587 | 82° | 44km/h | 3776m | 2.6m/s | 0°C | 0% | 0hPa | 0V | 00:00:00 | 00:00:00 | 00:00:00 | |
| KRY50SP | 2026-08-30 13:59:32 | 52.46152 | 17.18469 | 65° | 55km/h | 3758m | 4.4m/s | 0°C | 0% | 0hPa | 0V | 00:00:00 | 00:00:00 | 00:00:00 | |
| KRY50SP | 2026-08-30 13:59:26 | 52.46119 | 17.18351 | 69° | 55km/h | 3741m | 3.1m/s | 0°C | 0% | 0hPa | 0V | 00:00:00 | 00:00:00 | 00:00:00 | |
| KRY50SP | 2026-08-30 13:59:21 | 52.46091 | 17.18258 | 67° | 51km/h | 3729m | 3.7m/s | 0°C | 0% | 0hPa | 0V | 00:00:00 | 00:00:00 | 00:00:00 | |
| KRY50SP | 2026-08-30 13:59:15 | 52.46056 | 17.18143 | 58° | 47km/h | 3712m | 1.9m/s | 0°C | 0% | 0hPa | 0V | 00:00:00 | 00:00:00 | 00:00:00 | |
| SP3BTT-10 | 2026-08-30 13:59:14 | 52.46050 | 17.18122 | 73° | 55km/h | 3710m | 1.7m/s | 0°C | 0% | 0hPa | 0V | 00:00:00 | 00:00:00 | 00:00:00 | |
| SP3WXH-11 | 2026-08-30 13:59:11 | 52.46028 | 17.18045 | 60° | 46km/h | 3698m | 2.3m/s | 0°C | -1.0% | -1.0hPa | 0V | 00:00:00 | 00:00:00 | 00:00:00 | |
| KRY50SP | 2026-08-30 13:59:10 | 52.46028 | 17.18045 | 61° | 47km/h | 3698m | 2.3m/s | 0°C | 0% | 0hPa | 0V | 00:00:00 | 00:00:00 | 00:00:00 | |
| KRY50SP | 2026-08-30 13:59:04 | 52.45994 | 17.17926 | 69° | 60km/h | 3680m | 1.6m/s | 0°C | 0% | 0hPa | 0V | 00:00:00 | 00:00:00 | 00:00:00 | |
| KRY50SP | 2026-08-30 13:58:58 | 52.45958 | 17.17807 | 66° | 46km/h | 3662m | 1.3m/s | 0°C | 0% | 0hPa | 0V | 00:00:00 | 00:00:00 | 00:00:00 | |
| KRY50SP | 2026-08-30 13:58:52 | 52.45920 | 17.17684 | 64° | 66km/h | 3642m | 3.0m/s | 0°C | 0% | 0hPa | 0V | 00:00:00 | 00:00:00 | 00:00:00 | |
| KRY50SP | 2026-08-30 13:58:46 | 52.45883 | 17.17560 | 75° | 46km/h | 3620m | 2.3m/s | 0°C | 0% | 0hPa | 0V | 00:00:00 | 00:00:00 | 00:00:00 | |
| SP3BTT-10 | 2026-08-30 13:58:44 | 52.45869 | 17.17518 | 68° | 57km/h | 3611m | 5.3m/s | 0°C | 0% | 0hPa | 0V | 00:00:00 | 00:00:00 | 00:00:00 | |
| KRY50SP | 2026-08-30 13:58:41 | 52.45850 | 17.17456 | 77° | 53km/h | 3602m | 3.1m/s | 0°C | 0% | 0hPa | 0V | 00:00:00 | 00:00:00 | 00:00:00 | |
| SP3WXH-11 | 2026-08-30 13:58:40 | 52.45836 | 17.17414 | 68° | 58km/h | 3594m | 4.8m/s | 0°C | -1.0% | -1.0hPa | 0V | 00:00:00 | 00:00:00 | 00:00:00 | |
| KRY50SP | 2026-08-30 13:58:35 | 52.45809 | 17.17330 | 51° | 60km/h | 3581m | 3.6m/s | 0°C | 0% | 0hPa | 0V | 00:00:00 | 00:00:00 | 00:00:00 | |
| KRY50SP | 2026-08-30 13:58:29 | 52.45768 | 17.17209 | 73° | 64km/h | 3558m | 4.9m/s | 0°C | 0% | 0hPa | 0V | 00:00:00 | 00:00:00 | 00:00:00 | |
| KRY50SP | 2026-08-30 13:58:23 | 52.45728 | 17.17090 | 63° | 51km/h | 3533m | 5.3m/s | 0°C | 0% | 0hPa | 0V | 00:00:00 | 00:00:00 | 00:00:00 | |
| KRY50SP | 2026-08-30 13:58:18 | 52.45695 | 17.16991 | 55° | 55km/h | 3516m | 2.2m/s | 0°C | 0% | 0hPa | 0V | 00:00:00 | 00:00:00 | 00:00:00 | |
| SP3BTT-10 | 2026-08-30 13:58:14 | 52.45670 | 17.16911 | 64° | 51km/h | 3500m | 4.0m/s | 0°C | 0% | 0hPa | 0V | 00:00:00 | 00:00:00 | 00:00:00 | |
| KRY50SP | 2026-08-30 13:58:12 | 52.45658 | 17.16873 | 75° | 55km/h | 3494m | 3.1m/s | 0°C | 0% | 0hPa | 0V | 00:00:00 | 00:00:00 | 00:00:00 | |
| SP3WXH-11 | 2026-08-30 13:58:09 | 52.45631 | 17.16794 | 57° | 58km/h | 3478m | 3.0m/s | 0°C | -1.0% | -1.0hPa | 0V | 00:00:00 | 00:00:00 | 00:00:00 | |
| KRY50SP | 2026-08-30 13:58:06 | 52.45619 | 17.16756 | 59° | 64km/h | 3472m | 3.9m/s | 0°C | 0% | 0hPa | 0V | 00:00:00 | 00:00:00 | 00:00:00 | |
| KRY50SP | 2026-08-30 13:58:00 | 52.45582 | 17.16639 | 67° | 42km/h | 3446m | 5.8m/s | 0°C | 0% | 0hPa | 0V | 00:00:00 | 00:00:00 | 00:00:00 | |
| KRY50SP | 2026-08-30 13:57:54 | 52.45549 | 17.16528 | 65° | 49km/h | 3421m | 4.7m/s | 0°C | 0% | 0hPa | 0V | 00:00:00 | 00:00:00 | 00:00:00 | |
| KRY50SP | 2026-08-30 13:57:49 | 52.45522 | 17.16434 | 67° | 55km/h | 3402m | 5.1m/s | 0°C | 0% | 0hPa | 0V | 00:00:00 | 00:00:00 | 00:00:00 | |
| SP3BTT-10 | 2026-08-30 13:57:44 | 52.45495 | 17.16342 | 58° | 46km/h | 3384m | 4.4m/s | 0°C | 0% | 0hPa | 0V | 00:00:00 | 00:00:00 | 00:00:00 | |
| KRY50SP | 2026-08-30 13:57:43 | 52.45490 | 17.16323 | 69° | 46km/h | 3378m | 6.7m/s | 0°C | 0% | 0hPa | 0V | 00:00:00 | 00:00:00 | 00:00:00 | |
| SP3WXH-11 | 2026-08-30 13:57:38 | 52.45461 | 17.16221 | 63° | 38km/h | 3355m | 2.5m/s | 0°C | -1.0% | -1.0hPa | 0V | 00:00:00 | 00:00:00 | 00:00:00 | |
| KRY50SP | 2026-08-30 13:57:37 | 52.45460 | 17.16221 | 65° | 40km/h | 3355m | 2.5m/s | 0°C | 0% | 0hPa | 0V | 00:00:00 | 00:00:00 | 00:00:00 | |
| KRY50SP | 2026-08-30 13:57:32 | 52.45434 | 17.16139 | 68° | 40km/h | 3337m | 2.8m/s | 0°C | 0% | 0hPa | 0V | 00:00:00 | 00:00:00 | 00:00:00 | |
| KRY50SP | 2026-08-30 13:57:27 | 52.45408 | 17.16056 | 61° | 40km/h | 3320m | 3.0m/s | 0°C | 0% | 0hPa | 0V | 00:00:00 | 00:00:00 | 00:00:00 | |
| KRY50SP | 2026-08-30 13:57:21 | 52.45375 | 17.15961 | 59° | 51km/h | 3300m | 1.9m/s | 0°C | 0% | 0hPa | 0V | 00:00:00 | 00:00:00 | 00:00:00 | |
| KRY50SP | 2026-08-30 13:57:16 | 52.45348 | 17.15881 | 58° | 47km/h | 3282m | 3.1m/s | 0°C | 0% | 0hPa | 0V | 00:00:00 | 00:00:00 | 00:00:00 | |
| SP3BTT-10 | 2026-08-30 13:57:14 | 52.45336 | 17.15849 | 54° | 46km/h | 3277m | 1.9m/s | 0°C | 0% | 0hPa | 0V | 00:00:00 | 00:00:00 | 00:00:00 | |
| KRY50SP | 2026-08-30 13:57:09 | 52.45309 | 17.15771 | 63° | 55km/h | 3259m | 2.0m/s | 0°C | 0% | 0hPa | 0V | 00:00:00 | 00:00:00 | 00:00:00 | |
| SP3WXH-11 | 2026-08-30 13:57:07 | 52.45292 | 17.15722 | 56° | 40km/h | 3249m | 5.3m/s | 0°C | -1.0% | -1.0hPa | 0V | 00:00:00 | 00:00:00 | 00:00:00 | |
| KRY50SP | 2026-08-30 13:57:04 | 52.45280 | 17.15690 | 60° | 51km/h | 3241m | 2.1m/s | 0°C | 0% | 0hPa | 0V | 00:00:00 | 00:00:00 | 00:00:00 | |
| KRY50SP | 2026-08-30 13:56:59 | 52.45251 | 17.15613 | 50° | 42km/h | 3224m | 2.5m/s | 0°C | 0% | 0hPa | 0V | 00:00:00 | 00:00:00 | 00:00:00 | |
| KRY50SP | 2026-08-30 13:56:53 | 52.45217 | 17.15518 | 71° | 47km/h | 3205m | 1.8m/s | 0°C | 0% | 0hPa | 0V | 00:00:00 | 00:00:00 | 00:00:00 | |
| SP6BVK | 2026-08-30 13:56:47 | 52.45184 | 17.15423 | 49° | 44km/h | 3186m | 2.1m/s | 0°C | 0% | 0hPa | 0V | 00:00:00 | 00:00:00 | 00:00:00 | |
| SP3BTT-10 | 2026-08-30 13:56:44 | 52.45166 | 17.15373 | 69° | 46km/h | 3177m | 5.1m/s | 0°C | 0% | 0hPa | 0V | 00:00:00 | 00:00:00 | 00:00:00 | |
| KRY50SP | 2026-08-30 13:56:42 | 52.45155 | 17.15340 | 57° | 47km/h | 3170m | 2.8m/s | 0°C | 0% | 0hPa | 0V | 00:00:00 | 00:00:00 | 00:00:00 | |
| KRY50SP | 2026-08-30 13:56:36 | 52.45124 | 17.15242 | 70° | 38km/h | 3151m | 1.0m/s | 0°C | 0% | 0hPa | 0V | 00:00:00 | 00:00:00 | 00:00:00 | |
| SP3WXH-11 | 2026-08-30 13:56:35 | 52.45119 | 17.15224 | 60° | 58km/h | 3149m | 2.0m/s | 0°C | -1.0% | -1.0hPa | 0V | 00:00:00 | 00:00:00 | 00:00:00 | |
| KRY50SP | 2026-08-30 13:56:30 | 52.45093 | 17.15141 | 53° | 53km/h | 3134m | 1.1m/s | 0°C | 0% | 0hPa | 0V | 00:00:00 | 00:00:00 | 00:00:00 | |
| KRY50SP | 2026-08-30 13:56:25 | 52.45067 | 17.15059 | 49° | 46km/h | 3117m | 0.8m/s | 0°C | 0% | 0hPa | 0V | 00:00:00 | 00:00:00 | 00:00:00 | |
| KRY50SP | 2026-08-30 13:56:19 | 52.45034 | 17.14956 | 79° | 55km/h | 3100m | 2.6m/s | 0°C | 0% | 0hPa | 0V | 00:00:00 | 00:00:00 | 00:00:00 | |
| KRY50SP | 2026-08-30 13:56:13 | 52.45003 | 17.14853 | 50° | 47km/h | 3080m | 4.9m/s | 0°C | 0% | 0hPa | 0V | 00:00:00 | 00:00:00 | 00:00:00 | |
| KRY50SP | 2026-08-30 13:56:07 | 52.44973 | 17.14753 | 75° | 46km/h | 3060m | 4.8m/s | 0°C | 0% | 0hPa | 0V | 00:00:00 | 00:00:00 | 00:00:00 | |
| SP3WXH-11 | 2026-08-30 13:56:05 | 52.44960 | 17.14702 | 82° | 42km/h | 3051m | 1.8m/s | 0°C | -1.0% | -1.0hPa | 0V | 00:00:00 | 00:00:00 | 00:00:00 | |
| KRY50SP | 2026-08-30 13:56:02 | 52.44950 | 17.14668 | 76° | 40km/h | 3044m | 4.5m/s | 0°C | 0% | 0hPa | 0V | 00:00:00 | 00:00:00 | 00:00:00 | |
| KRY50SP | 2026-08-30 13:55:56 | 52.44923 | 17.14566 | 75° | 49km/h | 3023m | 2.6m/s | 0°C | 0% | 0hPa | 0V | 00:00:00 | 00:00:00 | 00:00:00 | |
| KRY50SP | 2026-08-30 13:55:50 | 52.44897 | 17.14463 | 65° | 42km/h | 3006m | 2.7m/s | 0°C | 0% | 0hPa | 0V | 00:00:00 | 00:00:00 | 00:00:00 | |
| SP3BTT-10 | 2026-08-30 13:55:44 | 52.44873 | 17.14359 | 75° | 46km/h | 2990m | 1.0m/s | 0°C | 0% | 0hPa | 0V | 00:00:00 | 00:00:00 | 00:00:00 | |
| KRY50SP | 2026-08-30 13:55:38 | 52.44849 | 17.14257 | 64° | 44km/h | 2971m | 1.6m/s | 0°C | 0% | 0hPa | 0V | 00:00:00 | 00:00:00 | 00:00:00 | |
| KRY50SP | 2026-08-30 13:55:33 | 52.44832 | 17.14172 | 72° | 42km/h | 2957m | 2.6m/s | 0°C | 0% | 0hPa | 0V | 00:00:00 | 00:00:00 | 00:00:00 | |
| KRY50SP | 2026-08-30 13:55:27 | 52.44813 | 17.14065 | 76° | 40km/h | 2940m | 2.2m/s | 0°C | 0% | 0hPa | 0V | 00:00:00 | 00:00:00 | 00:00:00 | |
| KRY50SP | 2026-08-30 13:55:16 | 52.44778 | 17.13866 | 79° | 47km/h | 2912m | 2.7m/s | 0°C | 0% | 0hPa | 0V | 00:00:00 | 00:00:00 | 00:00:00 | |
| SP3BTT-10 | 2026-08-30 13:55:14 | 52.44772 | 17.13828 | 77° | 49km/h | 2908m | 2.3m/s | 0°C | 0% | 0hPa | 0V | 00:00:00 | 00:00:00 | 00:00:00 | |
| KRY50SP | 2026-08-30 13:55:10 | 52.44760 | 17.13755 | 78° | 57km/h | 2899m | 1.6m/s | 0°C | 0% | 0hPa | 0V | 00:00:00 | 00:00:00 | 00:00:00 | |
| KRY50SP | 2026-08-30 13:55:04 | 52.44743 | 17.13642 | 61° | 42km/h | 2886m | 1.9m/s | 0°C | 0% | 0hPa | 0V | 00:00:00 | 00:00:00 | 00:00:00 | |
| SP3WXH-11 | 2026-08-30 13:55:02 | 52.44738 | 17.13603 | 71° | 51km/h | 2879m | 3.8m/s | 0°C | -1.0% | -1.0hPa | 0V | 00:00:00 | 00:00:00 | 00:00:00 | |
| KRY50SP | 2026-08-30 13:54:58 | 52.44726 | 17.13527 | 84° | 62km/h | 2872m | 2.6m/s | 0°C | 0% | 0hPa | 0V | 00:00:00 | 00:00:00 | 00:00:00 | |
| KRY50SP | 2026-08-30 13:54:53 | 52.44710 | 17.13424 | 81° | 68km/h | 2862m | 1.7m/s | 0°C | 0% | 0hPa | 0V | 00:00:00 | 00:00:00 | 00:00:00 | |
| KRY50SP | 2026-08-30 13:54:48 | 52.44693 | 17.13317 | 86° | 64km/h | 2850m | 1.6m/s | 0°C | 0% | 0hPa | 0V | 00:00:00 | 00:00:00 | 00:00:00 | |
| SP3BTT-10 | 2026-08-30 13:54:44 | 52.44681 | 17.13235 | 70° | 55km/h | 2839m | 0.3m/s | 0°C | 0% | 0hPa | 0V | 00:00:00 | 00:00:00 | 00:00:00 | |
| KRY50SP | 2026-08-30 13:54:42 | 52.44676 | 17.13192 | 61° | 49km/h | 2837m | 3.0m/s | 0°C | 0% | 0hPa | 0V | 00:00:00 | 00:00:00 | 00:00:00 | |
| KRY50SP | 2026-08-30 13:54:36 | 52.44658 | 17.13064 | 91° | 51km/h | 2825m | 2.7m/s | 0°C | 0% | 0hPa | 0V | 00:00:00 | 00:00:00 | 00:00:00 | |
| SP3WXH-11 | 2026-08-30 13:54:31 | 52.44641 | 17.12934 | 79° | 64km/h | 2813m | 1.3m/s | 0°C | -1.0% | -1.0hPa | 0V | 00:00:00 | 00:00:00 | 00:00:00 | |
| KRY50SP | 2026-08-30 13:54:30 | 52.44641 | 17.12934 | 81° | 66km/h | 2813m | 1.3m/s | 0°C | 0% | 0hPa | 0V | 00:00:00 | 00:00:00 | 00:00:00 | |
| KRY50SP | 2026-08-30 13:54:25 | 52.44625 | 17.12824 | 85° | 64km/h | 2803m | -0.2m/s | 0°C | 0% | 0hPa | 0V | 00:00:00 | 00:00:00 | 00:00:00 | |
| KRY50SP | 2026-08-30 13:54:20 | 52.44609 | 17.12713 | 79° | 68km/h | 2794m | 0.7m/s | 0°C | 0% | 0hPa | 0V | 00:00:00 | 00:00:00 | 00:00:00 | |
| SP3BTT-10 | 2026-08-30 13:54:14 | 52.44592 | 17.12581 | 86° | 53km/h | 2784m | 2.0m/s | 0°C | 0% | 0hPa | 0V | 00:00:00 | 00:00:00 | 00:00:00 | |
| KRY50SP | 2026-08-30 13:54:09 | 52.44579 | 17.12470 | 67° | 46km/h | 2775m | 3.5m/s | 0°C | 0% | 0hPa | 0V | 00:00:00 | 00:00:00 | 00:00:00 | |
| KRY50SP | 2026-08-30 13:54:03 | 52.44559 | 17.12341 | 86° | 57km/h | 2764m | 3.7m/s | 0°C | 0% | 0hPa | 0V | 00:00:00 | 00:00:00 | 00:00:00 | |
| SP3WXH-11 | 2026-08-30 13:54:00 | 52.44548 | 17.12254 | 62° | 51km/h | 2757m | 1.0m/s | 0°C | -1.0% | -1.0hPa | 0V | 00:00:00 | 00:00:00 | 00:00:00 | |
| KRY50SP | 2026-08-30 13:53:57 | 52.44543 | 17.12212 | 69° | 49km/h | 2751m | 3.2m/s | 0°C | 0% | 0hPa | 0V | 00:00:00 | 00:00:00 | 00:00:00 | |
| KRY50SP | 2026-08-30 13:53:51 | 52.44526 | 17.12082 | 83° | 49km/h | 2738m | 4.1m/s | 0°C | 0% | 0hPa | 0V | 00:00:00 | 00:00:00 | 00:00:00 | |
| KRY50SP | 2026-08-30 13:53:45 | 52.44511 | 17.11956 | 84° | 55km/h | 2726m | 3.2m/s | 0°C | 0% | 0hPa | 0V | 00:00:00 | 00:00:00 | 00:00:00 | |
| SP3BTT-10 | 2026-08-30 13:53:44 | 52.44509 | 17.11934 | 75° | 51km/h | 2723m | 2.0m/s | 0°C | 0% | 0hPa | 0V | 00:00:00 | 00:00:00 | 00:00:00 | |
| KRY50SP | 2026-08-30 13:53:39 | 52.44497 | 17.11828 | 83° | 49km/h | 2713m | 3.4m/s | 0°C | 0% | 0hPa | 0V | 00:00:00 | 00:00:00 | 00:00:00 | |
| KRY50SP | 2026-08-30 13:53:33 | 52.44485 | 17.11701 | 81° | 53km/h | 2701m | 3.5m/s | 0°C | 0% | 0hPa | 0V | 00:00:00 | 00:00:00 | 00:00:00 | |
| SP3WXH-11 | 2026-08-30 13:53:29 | 52.44473 | 17.11596 | 83° | 55km/h | 2690m | 4.0m/s | 0°C | -1.0% | -1.0hPa | 0V | 00:00:00 | 00:00:00 | 00:00:00 | |
| KRY50SP | 2026-08-30 13:53:27 | 52.44472 | 17.11574 | 86° | 49km/h | 2688m | 2.3m/s | 0°C | 0% | 0hPa | 0V | 00:00:00 | 00:00:00 | 00:00:00 | |
| KRY50SP | 2026-08-30 13:53:21 | 52.44459 | 17.11445 | 79° | 57km/h | 2675m | 1.2m/s | 0°C | 0% | 0hPa | 0V | 00:00:00 | 00:00:00 | 00:00:00 | |
| KRY50SP | 2026-08-30 13:53:15 | 52.44447 | 17.11319 | 85° | 40km/h | 2664m | 0.2m/s | 0°C | 0% | 0hPa | 0V | 00:00:00 | 00:00:00 | 00:00:00 | |
| SP3BTT-10 | 2026-08-30 13:53:14 | 52.44445 | 17.11297 | 82° | 51km/h | 2662m | 2.3m/s | 0°C | 0% | 0hPa | 0V | 00:00:00 | 00:00:00 | 00:00:00 | |
| KRY50SP | 2026-08-30 13:53:10 | 52.44436 | 17.11214 | 80° | 44km/h | 2652m | 1.0m/s | 0°C | 0% | 0hPa | 0V | 00:00:00 | 00:00:00 | 00:00:00 | |
| KRY50SP | 2026-08-30 13:53:05 | 52.44427 | 17.11111 | 84° | 46km/h | 2640m | 2.2m/s | 0°C | 0% | 0hPa | 0V | 00:00:00 | 00:00:00 | 00:00:00 | |
| SP3WXH-11 | 2026-08-30 13:52:58 | 52.44414 | 17.10947 | 72° | 58km/h | 2622m | 2.0m/s | 0°C | -1.0% | -1.0hPa | 0V | 00:00:00 | 00:00:00 | 00:00:00 | |
| KRY50SP | 2026-08-30 13:52:53 | 52.44408 | 17.10865 | 90° | 47km/h | 2611m | 1.4m/s | 0°C | 0% | 0hPa | 0V | 00:00:00 | 00:00:00 | 00:00:00 | |
| KRY50SP | 2026-08-30 13:52:47 | 52.44396 | 17.10743 | 80° | 42km/h | 2597m | 1.4m/s | 0°C | 0% | 0hPa | 0V | 00:00:00 | 00:00:00 | 00:00:00 | |
| SP3BTT-10 | 2026-08-30 13:52:44 | 52.44392 | 17.10684 | 88° | 49km/h | 2591m | 4.0m/s | 0°C | 0% | 0hPa | 0V | 00:00:00 | 00:00:00 | 00:00:00 | |
| KRY50SP | 2026-08-30 13:52:42 | 52.44389 | 17.10644 | 81° | 47km/h | 2583m | 3.0m/s | 0°C | 0% | 0hPa | 0V | 00:00:00 | 00:00:00 | 00:00:00 | |
| KRY50SP | 2026-08-30 13:52:36 | 52.44379 | 17.10524 | 78° | 53km/h | 2569m | 1.3m/s | 0°C | 0% | 0hPa | 0V | 00:00:00 | 00:00:00 | 00:00:00 | |
| KRY50SP | 2026-08-30 13:52:30 | 52.44370 | 17.10406 | 96° | 40km/h | 2555m | 1.2m/s | 0°C | 0% | 0hPa | 0V | 00:00:00 | 00:00:00 | 00:00:00 | |
| SP3WXH-11 | 2026-08-30 13:52:27 | 52.44363 | 17.10327 | 77° | 46km/h | 2542m | 1.8m/s | 0°C | -1.0% | -1.0hPa | 0V | 00:00:00 | 00:00:00 | 00:00:00 | |
| KRY50SP | 2026-08-30 13:52:24 | 52.44361 | 17.10288 | 68° | 47km/h | 2538m | 1.9m/s | 0°C | 0% | 0hPa | 0V | 00:00:00 | 00:00:00 | 00:00:00 | |
| KRY50SP | 2026-08-30 13:52:19 | 52.44355 | 17.10190 | 71° | 40km/h | 2524m | 1.8m/s | 0°C | 0% | 0hPa | 0V | 00:00:00 | 00:00:00 | 00:00:00 | |
| SP3BTT-10 | 2026-08-30 13:52:14 | 52.44349 | 17.10093 | 80° | 46km/h | 2507m | 1.4m/s | 0°C | 0% | 0hPa | 0V | 00:00:00 | 00:00:00 | 00:00:00 | |
| KRY50SP | 2026-08-30 13:52:13 | 52.44349 | 17.10073 | 95° | 57km/h | 2506m | 1.5m/s | 0°C | 0% | 0hPa | 0V | 00:00:00 | 00:00:00 | 00:00:00 | |
| KRY50SP | 2026-08-30 13:52:08 | 52.44342 | 17.09977 | 93° | 51km/h | 2491m | 1.7m/s | 0°C | 0% | 0hPa | 0V | 00:00:00 | 00:00:00 | 00:00:00 | |
| KRY50SP | 2026-08-30 13:52:03 | 52.44337 | 17.09883 | 92° | 47km/h | 2477m | 2.0m/s | 0°C | 0% | 0hPa | 0V | 00:00:00 | 00:00:00 | 00:00:00 | |
| SP3WXH-11 | 2026-08-30 13:51:56 | 52.44329 | 17.09733 | 68° | 44km/h | 2455m | 4.0m/s | 0°C | -1.0% | -1.0hPa | 0V | 00:00:00 | 00:00:00 | 00:00:00 | |
| KRY50SP | 2026-08-30 13:51:51 | 52.44325 | 17.09659 | 104° | 38km/h | 2444m | 2.9m/s | 0°C | 0% | 0hPa | 0V | 00:00:00 | 00:00:00 | 00:00:00 | |
| KRY50SP | 2026-08-30 13:51:45 | 52.44321 | 17.09547 | 85° | 58km/h | 2425m | 2.7m/s | 0°C | 0% | 0hPa | 0V | 00:00:00 | 00:00:00 | 00:00:00 | |
| SP3BTT-10 | 2026-08-30 13:51:44 | 52.44320 | 17.09527 | 89° | 44km/h | 2421m | 4.3m/s | 0°C | 0% | 0hPa | 0V | 00:00:00 | 00:00:00 | 00:00:00 | |
| KRY50SP | 2026-08-30 13:51:40 | 52.44317 | 17.09454 | 81° | 55km/h | 2409m | 2.0m/s | 0°C | 0% | 0hPa | 0V | 00:00:00 | 00:00:00 | 00:00:00 | |
| KRY50SP | 2026-08-30 13:51:35 | 52.44314 | 17.09363 | 86° | 47km/h | 2391m | 2.2m/s | 0°C | 0% | 0hPa | 0V | 00:00:00 | 00:00:00 | 00:00:00 | |
| SP3WXH-11 | 2026-08-30 13:51:25 | 52.44314 | 17.09163 | 91° | 37km/h | 2356m | 1.8m/s | 0°C | -1.0% | -1.0hPa | 0V | 00:00:00 | 00:00:00 | 00:00:00 | |
| KRY50SP | 2026-08-30 13:51:23 | 52.44314 | 17.09144 | 90° | 57km/h | 2354m | 2.7m/s | 0°C | 0% | 0hPa | 0V | 00:00:00 | 00:00:00 | 00:00:00 | |
| KRY50SP | 2026-08-30 13:51:18 | 52.44315 | 17.09053 | 84° | 53km/h | 2337m | 2.1m/s | 0°C | 0% | 0hPa | 0V | 00:00:00 | 00:00:00 | 00:00:00 | |
| SP3BTT-10 | 2026-08-30 13:51:14 | 52.44316 | 17.08980 | 90° | 44km/h | 2323m | 3.3m/s | 0°C | 0% | 0hPa | 0V | 00:00:00 | 00:00:00 | 00:00:00 | |
| KRY50SP | 2026-08-30 13:51:13 | 52.44316 | 17.08962 | 87° | 47km/h | 2320m | 2.2m/s | 0°C | 0% | 0hPa | 0V | 00:00:00 | 00:00:00 | 00:00:00 | |
| KRY50SP | 2026-08-30 13:51:07 | 52.44319 | 17.08853 | 102° | 40km/h | 2302m | 1.4m/s | 0°C | 0% | 0hPa | 0V | 00:00:00 | 00:00:00 | 00:00:00 | |
| SP3WXH-11 | 2026-08-30 13:50:54 | 52.44319 | 17.08600 | 98° | 53km/h | 2259m | 3.8m/s | 0°C | -1.0% | -1.0hPa | 0V | 00:00:00 | 00:00:00 | 00:00:00 | |
| KRY50SP | 2026-08-30 13:50:51 | 52.44318 | 17.08564 | 91° | 46km/h | 2251m | 3.8m/s | 0°C | 0% | 0hPa | 0V | 00:00:00 | 00:00:00 | 00:00:00 | |
| KRY50SP | 2026-08-30 13:50:46 | 52.44317 | 17.08472 | 95° | 47km/h | 2235m | 4.6m/s | 0°C | 0% | 0hPa | 0V | 00:00:00 | 00:00:00 | 00:00:00 | |
| SP3BTT-10 | 2026-08-30 13:50:44 | 52.44316 | 17.08435 | 88° | 46km/h | 2227m | 3.2m/s | 0°C | 0% | 0hPa | 0V | 00:00:00 | 00:00:00 | 00:00:00 | |
| KRY50SP | 2026-08-30 13:50:41 | 52.44316 | 17.08380 | 97° | 58km/h | 2220m | 3.3m/s | 0°C | 0% | 0hPa | 0V | 00:00:00 | 00:00:00 | 00:00:00 | |
| KRY50SP | 2026-08-30 13:50:35 | 52.44313 | 17.08269 | 74° | 37km/h | 2199m | 5.2m/s | 0°C | 0% | 0hPa | 0V | 00:00:00 | 00:00:00 | 00:00:00 | |
| KRY50SP | 2026-08-30 13:50:29 | 52.44309 | 17.08159 | 84° | 51km/h | 2179m | 5.3m/s | 0°C | 0% | 0hPa | 0V | 00:00:00 | 00:00:00 | 00:00:00 | |
| KRY50SP | 2026-08-30 13:50:24 | 52.44305 | 17.08067 | 78° | 53km/h | 2162m | 4.2m/s | 0°C | 0% | 0hPa | 0V | 00:00:00 | 00:00:00 | 00:00:00 | |
| SP3WXH-11 | 2026-08-30 13:50:23 | 52.44303 | 17.08030 | 87° | 46km/h | 2153m | 3.4m/s | 0°C | -1.0% | -1.0hPa | 0V | 00:00:00 | 00:00:00 | 00:00:00 | |
| KRY50SP | 2026-08-30 13:50:19 | 52.44299 | 17.07974 | 68° | 53km/h | 2145m | 3.3m/s | 0°C | 0% | 0hPa | 0V | 00:00:00 | 00:00:00 | 00:00:00 | |
| SP3BTT-10 | 2026-08-30 13:50:14 | 52.44290 | 17.07881 | 72° | 44km/h | 2130m | 2.9m/s | 0°C | 0% | 0hPa | 0V | 00:00:00 | 00:00:00 | 00:00:00 | |
| KRY50SP | 2026-08-30 13:50:12 | 52.44287 | 17.07844 | 81° | 40km/h | 2123m | 4.8m/s | 0°C | 0% | 0hPa | 0V | 00:00:00 | 00:00:00 | 00:00:00 | |
| KRY50SP | 2026-08-30 13:50:07 | 52.44278 | 17.07753 | 82° | 46km/h | 2108m | 3.5m/s | 0°C | 0% | 0hPa | 0V | 00:00:00 | 00:00:00 | 00:00:00 | |
| KRY50SP | 2026-08-30 13:50:02 | 52.44269 | 17.07664 | 94° | 44km/h | 2094m | 5.4m/s | 0°C | 0% | 0hPa | 0V | 00:00:00 | 00:00:00 | 00:00:00 | |
| SP3WXH-11 | 2026-08-30 13:49:52 | 52.44247 | 17.07467 | 88° | 47km/h | 2060m | 2.2m/s | 0°C | -1.0% | -1.0hPa | 0V | 00:00:00 | 00:00:00 | 00:00:00 | |
| KRY50SP | 2026-08-30 13:49:51 | 52.44247 | 17.07467 | 89° | 49km/h | 2060m | 2.2m/s | 0°C | 0% | 0hPa | 0V | 00:00:00 | 00:00:00 | 00:00:00 | |
| KRY50SP | 2026-08-30 13:49:45 | 52.44232 | 17.07360 | 89° | 42km/h | 2041m | 4.3m/s | 0°C | 0% | 0hPa | 0V | 00:00:00 | 00:00:00 | 00:00:00 | |
| SP3BTT-10 | 2026-08-30 13:49:44 | 52.44231 | 17.07343 | 79° | 42km/h | 2037m | 3.0m/s | 0°C | 0% | 0hPa | 0V | 00:00:00 | 00:00:00 | 00:00:00 | |
| KRY50SP | 2026-08-30 13:49:39 | 52.44217 | 17.07258 | 82° | 40km/h | 2023m | 4.1m/s | 0°C | 0% | 0hPa | 0V | 00:00:00 | 00:00:00 | 00:00:00 | |
| KRY50SP | 2026-08-30 13:49:34 | 52.44206 | 17.07170 | 77° | 38km/h | 2009m | 2.6m/s | 0°C | 0% | 0hPa | 0V | 00:00:00 | 00:00:00 | 00:00:00 | |
| KRY50SP | 2026-08-30 13:49:28 | 52.44187 | 17.07068 | 80° | 44km/h | 1989m | 3.0m/s | 0°C | 0% | 0hPa | 0V | 00:00:00 | 00:00:00 | 00:00:00 | |
| KRY50SP | 2026-08-30 13:49:22 | 52.44167 | 17.06970 | 68° | 44km/h | 1969m | 3.0m/s | 0°C | 0% | 0hPa | 0V | 00:00:00 | 00:00:00 | 00:00:00 | |
| SP3WXH-11 | 2026-08-30 13:49:21 | 52.44161 | 17.06936 | 62° | 47km/h | 1963m | 4.0m/s | 0°C | -1.0% | -1.0hPa | 0V | 00:00:00 | 00:00:00 | 00:00:00 | |
| KRY50SP | 2026-08-30 13:49:17 | 52.44152 | 17.06886 | 86° | 44km/h | 1952m | 4.3m/s | 0°C | 0% | 0hPa | 0V | 00:00:00 | 00:00:00 | 00:00:00 | |
| SP3BTT-10 | 2026-08-30 13:49:14 | 52.44142 | 17.06839 | 80° | 40km/h | 1941m | 2.4m/s | 0°C | 0% | 0hPa | 0V | 00:00:00 | 00:00:00 | 00:00:00 | |
| KRY50SP | 2026-08-30 13:49:11 | 52.44131 | 17.06788 | 67° | 44km/h | 1930m | 4.7m/s | 0°C | 0% | 0hPa | 0V | 00:00:00 | 00:00:00 | 00:00:00 | |
| KRY50SP | 2026-08-30 13:49:06 | 52.44112 | 17.06709 | 67° | 49km/h | 1913m | 1.9m/s | 0°C | 0% | 0hPa | 0V | 00:00:00 | 00:00:00 | 00:00:00 | |
| KRY50SP | 2026-08-30 13:49:00 | 52.44088 | 17.06620 | 75° | 47km/h | 1893m | 1.5m/s | 0°C | 0% | 0hPa | 0V | 00:00:00 | 00:00:00 | 00:00:00 | |
| KRY50SP | 2026-08-30 13:48:55 | 52.44069 | 17.06546 | 62° | 31km/h | 1878m | 4.0m/s | 0°C | 0% | 0hPa | 0V | 00:00:00 | 00:00:00 | 00:00:00 | |
| KRY50SP | 2026-08-30 13:48:49 | 52.44045 | 17.06458 | 59° | 38km/h | 1858m | 2.2m/s | 0°C | 0% | 0hPa | 0V | 00:00:00 | 00:00:00 | 00:00:00 | |
| SP3BTT-10 | 2026-08-30 13:48:45 | 52.44024 | 17.06387 | 63° | 38km/h | 1843m | 3.8m/s | 0°C | 0% | 0hPa | 0V | 00:00:00 | 00:00:00 | 00:00:00 | |
| KRY50SP | 2026-08-30 13:48:44 | 52.44024 | 17.06387 | 63° | 37km/h | 1843m | 3.9m/s | 0°C | 0% | 0hPa | 0V | 00:00:00 | 00:00:00 | 00:00:00 | |
| KRY50SP | 2026-08-30 13:48:39 | 52.44003 | 17.06315 | 66° | 40km/h | 1827m | 5.3m/s | 0°C | 0% | 0hPa | 0V | 00:00:00 | 00:00:00 | 00:00:00 | |
| KRY50SP | 2026-08-30 13:48:33 | 52.43974 | 17.06232 | 45° | 29km/h | 1810m | 4.2m/s | 0°C | 0% | 0hPa | 0V | 00:00:00 | 00:00:00 | 00:00:00 | |
| KRY50SP | 2026-08-30 13:48:27 | 52.43948 | 17.06152 | 77° | 49km/h | 1788m | 3.5m/s | 0°C | 0% | 0hPa | 0V | 00:00:00 | 00:00:00 | 00:00:00 | |
| KRY50SP | 2026-08-30 13:48:22 | 52.43928 | 17.06081 | 73° | 49km/h | 1769m | 2.1m/s | 0°C | 0% | 0hPa | 0V | 00:00:00 | 00:00:00 | 00:00:00 | |
| KRY50SP | 2026-08-30 13:48:16 | 52.43905 | 17.05993 | 61° | 46km/h | 1750m | 2.6m/s | 0°C | 0% | 0hPa | 0V | 00:00:00 | 00:00:00 | 00:00:00 | |
| SP3BTT-10 | 2026-08-30 13:48:14 | 52.43896 | 17.05968 | 54° | 37km/h | 1744m | 2.7m/s | 0°C | 0% | 0hPa | 0V | 00:00:00 | 00:00:00 | 00:00:00 | |
| KRY50SP | 2026-08-30 13:48:10 | 52.43879 | 17.05915 | 60° | 33km/h | 1730m | 3.0m/s | 0°C | 0% | 0hPa | 0V | 00:00:00 | 00:00:00 | 00:00:00 | |
| KRY50SP | 2026-08-30 13:48:05 | 52.43858 | 17.05849 | 50° | 27km/h | 1716m | 3.2m/s | 0°C | 0% | 0hPa | 0V | 00:00:00 | 00:00:00 | 00:00:00 | |
| KRY50SP | 2026-08-30 13:48:00 | 52.43835 | 17.05785 | 65° | 27km/h | 1703m | 4.7m/s | 0°C | 0% | 0hPa | 0V | 00:00:00 | 00:00:00 | 00:00:00 | |
| KRY50SP | 2026-08-30 13:47:54 | 52.43809 | 17.05706 | 64° | 40km/h | 1684m | 3.4m/s | 0°C | 0% | 0hPa | 0V | 00:00:00 | 00:00:00 | 00:00:00 | |
| KRY50SP | 2026-08-30 13:47:49 | 52.43786 | 17.05641 | 55° | 31km/h | 1669m | 4.5m/s | 0°C | 0% | 0hPa | 0V | 00:00:00 | 00:00:00 | 00:00:00 | |
| SP3BTT-10 | 2026-08-30 13:47:44 | 52.43765 | 17.05578 | 68° | 37km/h | 1653m | 3.4m/s | 0°C | 0% | 0hPa | 0V | 00:00:00 | 00:00:00 | 00:00:00 | |
| KRY50SP | 2026-08-30 13:47:43 | 52.43762 | 17.05566 | 61° | 29km/h | 1650m | 2.7m/s | 0°C | 0% | 0hPa | 0V | 00:00:00 | 00:00:00 | 00:00:00 | |
| KRY50SP | 2026-08-30 13:47:37 | 52.43736 | 17.05490 | 84° | 31km/h | 1632m | 2.7m/s | 0°C | 0% | 0hPa | 0V | 00:00:00 | 00:00:00 | 00:00:00 | |
| KRY50SP | 2026-08-30 13:47:31 | 52.43710 | 17.05412 | 56° | 49km/h | 1611m | 3.5m/s | 0°C | 0% | 0hPa | 0V | 00:00:00 | 00:00:00 | 00:00:00 | |
| KRY50SP | 2026-08-30 13:47:25 | 52.43683 | 17.05334 | 40° | 35km/h | 1589m | 3.7m/s | 0°C | 0% | 0hPa | 0V | 00:00:00 | 00:00:00 | 00:00:00 | |
| KRY50SP | 2026-08-30 13:47:19 | 52.43657 | 17.05257 | 82° | 37km/h | 1569m | 3.8m/s | 0°C | 0% | 0hPa | 0V | 00:00:00 | 00:00:00 | 00:00:00 | |
| SP3BTT-10 | 2026-08-30 13:47:14 | 52.43637 | 17.05193 | 68° | 38km/h | 1552m | 1.9m/s | 0°C | 0% | 0hPa | 0V | 00:00:00 | 00:00:00 | 00:00:00 | |
| KRY50SP | 2026-08-30 13:47:13 | 52.43632 | 17.05180 | 52° | 24km/h | 1549m | 3.3m/s | 0°C | 0% | 0hPa | 0V | 00:00:00 | 00:00:00 | 00:00:00 | |
| KRY50SP | 2026-08-30 13:47:07 | 52.43605 | 17.05101 | 56° | 49km/h | 1529m | 4.1m/s | 0°C | 0% | 0hPa | 0V | 00:00:00 | 00:00:00 | 00:00:00 | |
| KRY50SP | 2026-08-30 13:47:02 | 52.43582 | 17.05035 | 53° | 47km/h | 1512m | 1.9m/s | 0°C | 0% | 0hPa | 0V | 00:00:00 | 00:00:00 | 00:00:00 | |
| KRY50SP | 2026-08-30 13:46:56 | 52.43555 | 17.04953 | 81° | 31km/h | 1493m | 3.3m/s | 0°C | 0% | 0hPa | 0V | 00:00:00 | 00:00:00 | 00:00:00 | |
| KRY50SP | 2026-08-30 13:46:51 | 52.43530 | 17.04889 | 57° | 24km/h | 1476m | 1.7m/s | 0°C | 0% | 0hPa | 0V | 00:00:00 | 00:00:00 | 00:00:00 | |
| KRY50SP | 2026-08-30 13:46:45 | 52.43501 | 17.04807 | 80° | 40km/h | 1459m | 2.7m/s | 0°C | 0% | 0hPa | 0V | 00:00:00 | 00:00:00 | 00:00:00 | |
| SP3BTT-10 | 2026-08-30 13:46:44 | 52.43495 | 17.04793 | 42° | 37km/h | 1455m | 4.8m/s | 0°C | 0% | 0hPa | 0V | 00:00:00 | 00:00:00 | 00:00:00 | |
| KRY50SP | 2026-08-30 13:46:38 | 52.43462 | 17.04716 | 46° | 44km/h | 1435m | 2.3m/s | 0°C | 0% | 0hPa | 0V | 00:00:00 | 00:00:00 | 00:00:00 | |
| KRY50SP | 2026-08-30 13:46:33 | 52.43436 | 17.04651 | 62° | 31km/h | 1419m | 2.5m/s | 0°C | 0% | 0hPa | 0V | 00:00:00 | 00:00:00 | 00:00:00 | |
| KRY50SP | 2026-08-30 13:46:27 | 52.43402 | 17.04577 | 74° | 27km/h | 1401m | 2.5m/s | 0°C | 0% | 0hPa | 0V | 00:00:00 | 00:00:00 | 00:00:00 | |
| KRY50SP | 2026-08-30 13:46:22 | 52.43377 | 17.04517 | 65° | 20km/h | 1385m | 2.8m/s | 0°C | 0% | 0hPa | 0V | 00:00:00 | 00:00:00 | 00:00:00 | |
| KRY50SP | 2026-08-30 13:46:16 | 52.43345 | 17.04445 | 41° | 44km/h | 1366m | 4.4m/s | 0°C | 0% | 0hPa | 0V | 00:00:00 | 00:00:00 | 00:00:00 | |
| SP3BTT-10 | 2026-08-30 13:46:14 | 52.43335 | 17.04420 | 53° | 38km/h | 1357m | 3.6m/s | 0°C | 0% | 0hPa | 0V | 00:00:00 | 00:00:00 | 00:00:00 | |
| KRY50SP | 2026-08-30 13:46:10 | 52.43313 | 17.04370 | 64° | 26km/h | 1347m | 4.5m/s | 0°C | 0% | 0hPa | 0V | 00:00:00 | 00:00:00 | 00:00:00 | |
| KRY50SP | 2026-08-30 13:46:04 | 52.43282 | 17.04297 | 49° | 37km/h | 1327m | 3.0m/s | 0°C | 0% | 0hPa | 0V | 00:00:00 | 00:00:00 | 00:00:00 | |
| KRY50SP | 2026-08-30 13:45:58 | 52.43249 | 17.04223 | 63° | 37km/h | 1310m | 2.3m/s | 0°C | 0% | 0hPa | 0V | 00:00:00 | 00:00:00 | 00:00:00 | |
| KRY50SP | 2026-08-30 13:45:52 | 52.43215 | 17.04147 | 52° | 40km/h | 1293m | 3.4m/s | 0°C | 0% | 0hPa | 0V | 00:00:00 | 00:00:00 | 00:00:00 | |
| KRY50SP | 2026-08-30 13:45:47 | 52.43186 | 17.04082 | 72° | 35km/h | 1280m | 4.7m/s | 0°C | 0% | 0hPa | 0V | 00:00:00 | 00:00:00 | 00:00:00 | |
| SP3BTT-10 | 2026-08-30 13:45:44 | 52.43169 | 17.04043 | 47° | 38km/h | 1269m | 2.3m/s | 0°C | 0% | 0hPa | 0V | 00:00:00 | 00:00:00 | 00:00:00 | |
| KRY50SP | 2026-08-30 13:45:41 | 52.43151 | 17.04001 | 54° | 42km/h | 1258m | 2.9m/s | 0°C | 0% | 0hPa | 0V | 00:00:00 | 00:00:00 | 00:00:00 | |
| KRY50SP | 2026-08-30 13:45:36 | 52.43123 | 17.03936 | 54° | 37km/h | 1245m | 4.5m/s | 0°C | 0% | 0hPa | 0V | 00:00:00 | 00:00:00 | 00:00:00 | |
| KRY50SP | 2026-08-30 13:45:25 | 52.43058 | 17.03792 | 40° | 46km/h | 1217m | 2.2m/s | 0°C | 0% | 0hPa | 0V | 00:00:00 | 00:00:00 | 00:00:00 | |
| KRY50SP | 2026-08-30 13:45:19 | 52.43025 | 17.03718 | 77° | 40km/h | 1204m | 3.4m/s | 0°C | 0% | 0hPa | 0V | 00:00:00 | 00:00:00 | 00:00:00 | |
| SP3BTT-10 | 2026-08-30 13:45:14 | 52.42998 | 17.03656 | 55° | 35km/h | 1188m | 1.6m/s | 0°C | 0% | 0hPa | 0V | 00:00:00 | 00:00:00 | 00:00:00 | |
| KRY50SP | 2026-08-30 13:45:13 | 52.42992 | 17.03643 | 54° | 29km/h | 1186m | 1.8m/s | 0°C | 0% | 0hPa | 0V | 00:00:00 | 00:00:00 | 00:00:00 | |
| KRY50SP | 2026-08-30 13:45:08 | 52.42966 | 17.03582 | 54° | 42km/h | 1177m | 5.1m/s | 0°C | 0% | 0hPa | 0V | 00:00:00 | 00:00:00 | 00:00:00 | |
| KRY50SP | 2026-08-30 13:45:03 | 52.42940 | 17.03520 | 53° | 42km/h | 1164m | 2.3m/s | 0°C | 0% | 0hPa | 0V | 00:00:00 | 00:00:00 | 00:00:00 | |
| KRY50SP | 2026-08-30 13:44:58 | 52.42908 | 17.03460 | 46° | 33km/h | 1152m | 2.8m/s | 0°C | 0% | 0hPa | 0V | 00:00:00 | 00:00:00 | 00:00:00 | |
| KRY50SP | 2026-08-30 13:44:53 | 52.42882 | 17.03412 | 62° | 40km/h | 1142m | 1.8m/s | 0°C | 0% | 0hPa | 0V | 00:00:00 | 00:00:00 | 00:00:00 | |
| KRY50SP | 2026-08-30 13:44:47 | 52.42850 | 17.03350 | 45° | 20km/h | 1134m | 1.1m/s | 0°C | 0% | 0hPa | 0V | 00:00:00 | 00:00:00 | 00:00:00 | |
| SP3BTT-10 | 2026-08-30 13:44:44 | 52.42831 | 17.03320 | 53° | 35km/h | 1129m | 3.9m/s | 0°C | 0% | 0hPa | 0V | 00:00:00 | 00:00:00 | 00:00:00 | |
| KRY50SP | 2026-08-30 13:44:42 | 52.42821 | 17.03297 | 55° | 27km/h | 1126m | 0.8m/s | 0°C | 0% | 0hPa | 0V | 00:00:00 | 00:00:00 | 00:00:00 | |
| KRY50SP | 2026-08-30 13:44:36 | 52.42788 | 17.03233 | 54° | 26km/h | 1119m | 0.2m/s | 0°C | 0% | 0hPa | 0V | 00:00:00 | 00:00:00 | 00:00:00 | |
| KRY50SP | 2026-08-30 13:44:30 | 52.42756 | 17.03166 | 51° | 46km/h | 1111m | 0.9m/s | 0°C | 0% | 0hPa | 0V | 00:00:00 | 00:00:00 | 00:00:00 | |
| KRY50SP | 2026-08-30 13:44:25 | 52.42727 | 17.03114 | 44° | 37km/h | 1102m | 1.1m/s | 0°C | 0% | 0hPa | 0V | 00:00:00 | 00:00:00 | 00:00:00 | |
| KRY50SP | 2026-08-30 13:44:19 | 52.42695 | 17.03050 | 35° | 35km/h | 1093m | 2.7m/s | 0°C | 0% | 0hPa | 0V | 00:00:00 | 00:00:00 | 00:00:00 | |
| SP3BTT-10 | 2026-08-30 13:44:14 | 52.42664 | 17.02998 | 47° | 33km/h | 1086m | -1.2m/s | 0°C | 0% | 0hPa | 0V | 00:00:00 | 00:00:00 | 00:00:00 | |
| KRY50SP | 2026-08-30 13:44:13 | 52.42659 | 17.02989 | 41° | 16km/h | 1086m | 1.4m/s | 0°C | 0% | 0hPa | 0V | 00:00:00 | 00:00:00 | 00:00:00 | |
| KRY50SP | 2026-08-30 13:44:07 | 52.42624 | 17.02934 | 44° | 24km/h | 1075m | 3.9m/s | 0°C | 0% | 0hPa | 0V | 00:00:00 | 00:00:00 | 00:00:00 | |
| SP3BTT-10 | 2026-08-30 13:44:02 | 52.42595 | 17.02891 | 14° | 33km/h | 1065m | 2.6m/s | 0°C | 0% | 0hPa | 0V | 00:00:00 | 00:00:00 | 00:00:00 | |
| KRY50SP | 2026-08-30 13:44:01 | 52.42589 | 17.02884 | 54° | 33km/h | 1062m | 4.2m/s | 0°C | 0% | 0hPa | 0V | 00:00:00 | 00:00:00 | 00:00:00 | |
| KRY50SP | 2026-08-30 13:43:56 | 52.42560 | 17.02840 | 68° | 31km/h | 1049m | 2.2m/s | 0°C | 0% | 0hPa | 0V | 00:00:00 | 00:00:00 | 00:00:00 | |
| KRY50SP | 2026-08-30 13:43:50 | 52.42527 | 17.02787 | 59° | 31km/h | 1034m | 5.2m/s | 0°C | 0% | 0hPa | 0V | 00:00:00 | 00:00:00 | 00:00:00 | |
| KRY50SP | 2026-08-30 13:43:44 | 52.42493 | 17.02734 | 42° | 40km/h | 1017m | 1.3m/s | 0°C | 0% | 0hPa | 0V | 00:00:00 | 00:00:00 | 00:00:00 | |
| KRY50SP | 2026-08-30 13:43:38 | 52.42464 | 17.02670 | 56° | 29km/h | 995m | 1.9m/s | 0°C | 0% | 0hPa | 0V | 00:00:00 | 00:00:00 | 00:00:00 | |
| KRY50SP | 2026-08-30 13:43:33 | 52.42438 | 17.02615 | 58° | 37km/h | 982m | 6.0m/s | 0°C | 0% | 0hPa | 0V | 00:00:00 | 00:00:00 | 00:00:00 | |
| SP3BTT-10 | 2026-08-30 13:43:32 | 52.42434 | 17.02604 | 51° | 29km/h | 977m | 4.4m/s | 0°C | 0% | 0hPa | 0V | 00:00:00 | 00:00:00 | 00:00:00 | |
| KRY50SP | 2026-08-30 13:43:28 | 52.42414 | 17.02564 | 66° | 35km/h | 967m | 1.4m/s | 0°C | 0% | 0hPa | 0V | 00:00:00 | 00:00:00 | 00:00:00 | |
| KRY50SP | 2026-08-30 13:43:22 | 52.42384 | 17.02507 | 50° | 33km/h | 954m | 2.4m/s | 0°C | 0% | 0hPa | 0V | 00:00:00 | 00:00:00 | 00:00:00 | |
| KRY50SP | 2026-08-30 13:43:16 | 52.42354 | 17.02459 | 40° | 27km/h | 940m | 2.2m/s | 0°C | 0% | 0hPa | 0V | 00:00:00 | 00:00:00 | 00:00:00 | |
| KRY50SP | 2026-08-30 13:43:10 | 52.42324 | 17.02411 | 30° | 37km/h | 929m | 3.7m/s | 0°C | 0% | 0hPa | 0V | 00:00:00 | 00:00:00 | 00:00:00 | |
| KRY50SP | 2026-08-30 13:43:04 | 52.42295 | 17.02369 | 59° | 24km/h | 910m | 0.8m/s | 0°C | 0% | 0hPa | 0V | 00:00:00 | 00:00:00 | 00:00:00 | |
| SP3BTT-10 | 2026-08-30 13:43:02 | 52.42285 | 17.02356 | 65° | 29km/h | 906m | 2.9m/s | 0°C | 0% | 0hPa | 0V | 00:00:00 | 00:00:00 | 00:00:00 | |
| KRY50SP | 2026-08-30 13:42:58 | 52.42266 | 17.02327 | 45° | 22km/h | 889m | 3.6m/s | 0°C | 0% | 0hPa | 0V | 00:00:00 | 00:00:00 | 00:00:00 | |
| KRY50SP | 2026-08-30 13:42:52 | 52.42236 | 17.02278 | 54° | 26km/h | 872m | 3.5m/s | 0°C | 0% | 0hPa | 0V | 00:00:00 | 00:00:00 | 00:00:00 | |
| KRY50SP | 2026-08-30 13:42:47 | 52.42212 | 17.02232 | 35° | 37km/h | 854m | 3.3m/s | 0°C | 0% | 0hPa | 0V | 00:00:00 | 00:00:00 | 00:00:00 | |
| KRY50SP | 2026-08-30 13:42:41 | 52.42182 | 17.02174 | 41° | 24km/h | 829m | 2.2m/s | 0°C | 0% | 0hPa | 0V | 00:00:00 | 00:00:00 | 00:00:00 | |
| KRY50SP | 2026-08-30 13:42:35 | 52.42152 | 17.02115 | 52° | 22km/h | 814m | 2.4m/s | 0°C | 0% | 0hPa | 0V | 00:00:00 | 00:00:00 | 00:00:00 | |
| SP3BTT-10 | 2026-08-30 13:42:32 | 52.42137 | 17.02084 | 40° | 27km/h | 805m | 1.9m/s | 0°C | 0% | 0hPa | 0V | 00:00:00 | 00:00:00 | 00:00:00 | |
| KRY50SP | 2026-08-30 13:42:30 | 52.42130 | 17.02069 | 41° | 26km/h | 802m | 0.6m/s | 0°C | 0% | 0hPa | 0V | 00:00:00 | 00:00:00 | 00:00:00 | |
| KRY50SP | 2026-08-30 13:42:24 | 52.42100 | 17.02022 | 49° | 26km/h | 789m | 2.2m/s | 0°C | 0% | 0hPa | 0V | 00:00:00 | 00:00:00 | 00:00:00 | |
| KRY50SP | 2026-08-30 13:42:19 | 52.42074 | 17.01982 | 48° | 33km/h | 781m | 3.2m/s | 0°C | 0% | 0hPa | 0V | 00:00:00 | 00:00:00 | 00:00:00 | |
| KRY50SP | 2026-08-30 13:42:13 | 52.42040 | 17.01936 | 20° | 29km/h | 771m | 1.7m/s | 0°C | 0% | 0hPa | 0V | 00:00:00 | 00:00:00 | 00:00:00 | |
| KRY50SP | 2026-08-30 13:42:08 | 52.42014 | 17.01898 | 33° | 38km/h | 762m | 1.4m/s | 0°C | 0% | 0hPa | 0V | 00:00:00 | 00:00:00 | 00:00:00 | |
| KRY50SP | 2026-08-30 13:42:02 | 52.41984 | 17.01855 | 29° | 37km/h | 753m | 2.5m/s | 0°C | 0% | 0hPa | 0V | 00:00:00 | 00:00:00 | 00:00:00 | |
| SP3BTT-10 | 2026-08-30 13:42:02 | 52.41984 | 17.01855 | 28° | 33km/h | 753m | 2.5m/s | 0°C | 0% | 0hPa | 0V | 00:00:00 | 00:00:00 | 00:00:00 | |
| KRY50SP | 2026-08-30 13:41:56 | 52.41950 | 17.01799 | 52° | 33km/h | 730m | 3.2m/s | 0°C | 0% | 0hPa | 0V | 00:00:00 | 00:00:00 | 00:00:00 | |
| KRY50SP | 2026-08-30 13:41:50 | 52.41918 | 17.01747 | 53° | 38km/h | 714m | 5.3m/s | 0°C | 0% | 0hPa | 0V | 00:00:00 | 00:00:00 | 00:00:00 | |
| KRY50SP | 2026-08-30 13:41:45 | 52.41888 | 17.01698 | 50° | 22km/h | 698m | 2.0m/s | 0°C | 0% | 0hPa | 0V | 00:00:00 | 00:00:00 | 00:00:00 | |
| KRY50SP | 2026-08-30 13:41:40 | 52.41859 | 17.01651 | 36° | 33km/h | 690m | 3.2m/s | 0°C | 0% | 0hPa | 0V | 00:00:00 | 00:00:00 | 00:00:00 | |
| KRY50SP | 2026-08-30 13:41:34 | 52.41821 | 17.01592 | 46° | 38km/h | 676m | 2.5m/s | 0°C | 0% | 0hPa | 0V | 00:00:00 | 00:00:00 | 00:00:00 | |
| SP3BTT-10 | 2026-08-30 13:41:32 | 52.41810 | 17.01573 | 44° | 33km/h | 671m | 3.4m/s | 0°C | 0% | 0hPa | 0V | 00:00:00 | 00:00:00 | 00:00:00 | |
| KRY50SP | 2026-08-30 13:41:28 | 52.41786 | 17.01532 | 48° | 35km/h | 658m | 2.6m/s | 0°C | 0% | 0hPa | 0V | 00:00:00 | 00:00:00 | 00:00:00 | |
| KRY50SP | 2026-08-30 13:41:22 | 52.41747 | 17.01483 | 43° | 24km/h | 646m | 3.1m/s | 0°C | 0% | 0hPa | 0V | 00:00:00 | 00:00:00 | 00:00:00 | |
| KRY50SP | 2026-08-30 13:41:17 | 52.41713 | 17.01447 | 16° | 40km/h | 635m | 2.2m/s | 0°C | 0% | 0hPa | 0V | 00:00:00 | 00:00:00 | 00:00:00 | |
| KRY50SP | 2026-08-30 13:41:10 | 52.41668 | 17.01389 | 36° | 44km/h | 621m | 0.7m/s | 0°C | 0% | 0hPa | 0V | 00:00:00 | 00:00:00 | 00:00:00 | |
| KRY50SP | 2026-08-30 13:41:05 | 52.41636 | 17.01345 | 35° | 20km/h | 612m | 3.1m/s | 0°C | 0% | 0hPa | 0V | 00:00:00 | 00:00:00 | 00:00:00 | |
| SP3BTT-10 | 2026-08-30 13:41:01 | 52.41611 | 17.01303 | 49° | 35km/h | 600m | 1.2m/s | 0°C | 0% | 0hPa | 0V | 00:00:00 | 00:00:00 | 00:00:00 | |
| KRY50SP | 2026-08-30 13:40:58 | 52.41595 | 17.01275 | 58° | 38km/h | 596m | 1.5m/s | 0°C | 0% | 0hPa | 0V | 00:00:00 | 00:00:00 | 00:00:00 | |
| KRY50SP | 2026-08-30 13:40:52 | 52.41560 | 17.01212 | 41° | 33km/h | 589m | 2.2m/s | 0°C | 0% | 0hPa | 0V | 00:00:00 | 00:00:00 | 00:00:00 | |
| KRY50SP | 2026-08-30 13:40:47 | 52.41531 | 17.01159 | 53° | 46km/h | 585m | 2.6m/s | 0°C | 0% | 0hPa | 0V | 00:00:00 | 00:00:00 | 00:00:00 | |
| KRY50SP | 2026-08-30 13:40:40 | 52.41489 | 17.01086 | 42° | 35km/h | 572m | 1.2m/s | 0°C | 0% | 0hPa | 0V | 00:00:00 | 00:00:00 | 00:00:00 | |
| KRY50SP | 2026-08-30 13:40:35 | 52.41462 | 17.01036 | 42° | 22km/h | 564m | 1.9m/s | 0°C | 0% | 0hPa | 0V | 00:00:00 | 00:00:00 | 00:00:00 | |
| SP3BTT-10 | 2026-08-30 13:40:31 | 52.41438 | 17.00992 | 47° | 37km/h | 553m | 3.2m/s | 0°C | 0% | 0hPa | 0V | 00:00:00 | 00:00:00 | 00:00:00 | |
| KRY50SP | 2026-08-30 13:40:29 | 52.41426 | 17.00973 | 42° | 42km/h | 550m | 0.3m/s | 0°C | 0% | 0hPa | 0V | 00:00:00 | 00:00:00 | 00:00:00 | |
| KRY50SP | 2026-08-30 13:40:23 | 52.41388 | 17.00911 | 41° | 37km/h | 538m | 2.8m/s | 0°C | 0% | 0hPa | 0V | 00:00:00 | 00:00:00 | 00:00:00 | |
| KRY50SP | 2026-08-30 13:40:18 | 52.41355 | 17.00861 | 45° | 40km/h | 529m | 2.6m/s | 0°C | 0% | 0hPa | 0V | 00:00:00 | 00:00:00 | 00:00:00 | |
| KRY50SP | 2026-08-30 13:40:13 | 52.41322 | 17.00809 | 31° | 46km/h | 521m | 1.1m/s | 0°C | 0% | 0hPa | 0V | 00:00:00 | 00:00:00 | 00:00:00 | |
| KRY50SP | 2026-08-30 13:40:07 | 52.41282 | 17.00751 | 32° | 37km/h | 506m | 0.5m/s | 0°C | 0% | 0hPa | 0V | 00:00:00 | 00:00:00 | 00:00:00 | |
| KRY50SP | 2026-08-30 13:40:01 | 52.41244 | 17.00688 | 27° | 37km/h | 503m | -0.5m/s | 0°C | 0% | 0hPa | 0V | 00:00:00 | 00:00:00 | 00:00:00 | |
| SP3BTT-10 | 2026-08-30 13:40:01 | 52.41244 | 17.00688 | 27° | 35km/h | 503m | -0.4m/s | 0°C | 0% | 0hPa | 0V | 00:00:00 | 00:00:00 | 00:00:00 | |
| KRY50SP | 2026-08-30 13:39:55 | 52.41207 | 17.00630 | 49° | 24km/h | 494m | -0.6m/s | 0°C | 0% | 0hPa | 0V | 00:00:00 | 00:00:00 | 00:00:00 | |
| SP3BTT-10 | 2026-08-30 13:39:55 | 52.41206 | 17.00630 | 49° | 33km/h | 494m | -0.5m/s | 0°C | 0% | 0hPa | 0V | 00:00:00 | 00:00:00 | 00:00:00 | |
| SP3BTT-10 | 2026-08-30 13:39:42 | 52.41125 | 17.00496 | 33° | 35km/h | 473m | -0.5m/s | 0°C | 0% | 0hPa | 0V | 00:00:00 | 00:00:00 | 00:00:00 | |
| KRY50SP | 2026-08-30 13:39:41 | 52.41118 | 17.00486 | 47° | 40km/h | 473m | 0.2m/s | 0°C | 0% | 0hPa | 0V | 00:00:00 | 00:00:00 | 00:00:00 | |
| KRY50SP | 2026-08-30 13:39:34 | 52.41075 | 17.00417 | 42° | 31km/h | 468m | 0.5m/s | 0°C | 0% | 0hPa | 0V | 00:00:00 | 00:00:00 | 00:00:00 | |
| SP3BTT-10 | 2026-08-30 13:39:29 | 52.41043 | 17.00365 | 38° | 35km/h | 466m | -0.5m/s | 0°C | 0% | 0hPa | 0V | 00:00:00 | 00:00:00 | 00:00:00 | |
| KRY50SP | 2026-08-30 13:39:23 | 52.41007 | 17.00304 | 24° | 38km/h | 463m | 0.5m/s | 0°C | 0% | 0hPa | 0V | 00:00:00 | 00:00:00 | 00:00:00 | |
| KRY50SP | 2026-08-30 13:39:17 | 52.40971 | 17.00242 | 48° | 29km/h | 456m | 1.0m/s | 0°C | 0% | 0hPa | 0V | 00:00:00 | 00:00:00 | 00:00:00 | |
| KRY50SP | 2026-08-30 13:39:11 | 52.40932 | 17.00186 | 59° | 26km/h | 453m | -0.6m/s | 0°C | 0% | 0hPa | 0V | 00:00:00 | 00:00:00 | 00:00:00 | |
| SP3BTT-10 | 2026-08-30 13:39:11 | 52.40932 | 17.00186 | 58° | 31km/h | 453m | -0.6m/s | 0°C | 0% | 0hPa | 0V | 00:00:00 | 00:00:00 | 00:00:00 | |
| SP3BTT-10 | 2026-08-30 13:39:05 | 52.40899 | 17.00131 | 34° | 35km/h | 445m | -0.5m/s | 0°C | 0% | 0hPa | 0V | 00:00:00 | 00:00:00 | 00:00:00 | |
| KRY50SP | 2026-08-30 13:39:04 | 52.40893 | 17.00119 | 70° | 38km/h | 445m | 0.6m/s | 0°C | 0% | 0hPa | 0V | 00:00:00 | 00:00:00 | 00:00:00 | |
| SP3BTT-10 | 2026-08-30 13:38:59 | 52.40867 | 17.00068 | 50° | 29km/h | 436m | 0.6m/s | 0°C | 0% | 0hPa | 0V | 00:00:00 | 00:00:00 | 00:00:00 | |
| KRY50SP | 2026-08-30 13:38:57 | 52.40857 | 17.00049 | 59° | 37km/h | 436m | -1.0m/s | 0°C | 0% | 0hPa | 0V | 00:00:00 | 00:00:00 | 00:00:00 | |
| KRY50SP | 2026-08-30 13:38:50 | 52.40820 | 16.99981 | 45° | 44km/h | 428m | -0.0m/s | 0°C | 0% | 0hPa | 0V | 00:00:00 | 00:00:00 | 00:00:00 | |
| KRY50SP | 2026-08-30 13:38:44 | 52.40788 | 16.99920 | 50° | 26km/h | 419m | -0.5m/s | 0°C | 0% | 0hPa | 0V | 00:00:00 | 00:00:00 | 00:00:00 | |
| KRY50SP | 2026-08-30 13:38:36 | 52.40747 | 16.99842 | 44° | 38km/h | 412m | -0.6m/s | 0°C | 0% | 0hPa | 0V | 00:00:00 | 00:00:00 | 00:00:00 |